<?xml version="1.0" encoding="UTF-8" standalone="no" ?>
<gpx xmlns="http://www.topografix.com/GPX/1/1" xmlns:xsi="http://www.w3.org/2001/XMLSchema-instance" xsi:schemaLocation="http://www.topografix.com/GPX/1/1 http://www.topografix.com/GPX/1/1/gpx.xsd" version="1.1" creator="VisuGPX - https://www.visugpx.com">
  <metadata>
    <name>Raind INPG - Handiraid J2</name>
    <desc><![CDATA[Itinéraire suivi par l\'équipe \"Handbike\" lors du raid Grenoble-INP 2011]]></desc>
  </metadata>
  <trk>
    <name><![CDATA[Raind INPG 2011]]></name>
    <trkseg>
      <trkpt lat="45.12392" lon="5.59166">
        <ele>1006.7</ele>
        <time>2011-05-08T03:00:38.998Z</time>
      </trkpt>
      <trkpt lat="45.12411" lon="5.59147">
        <ele>1013</ele>
        <time>2011-05-08T03:05:53.997Z</time>
      </trkpt>
      <trkpt lat="45.12416" lon="5.59117">
        <ele>997.7</ele>
        <time>2011-05-08T03:08:54Z</time>
      </trkpt>
      <trkpt lat="45.12415" lon="5.59077">
        <ele>1004.3</ele>
        <time>2011-05-08T03:09:14Z</time>
      </trkpt>
      <trkpt lat="45.12384" lon="5.59069">
        <ele>1006.1</ele>
        <time>2011-05-08T03:09:29Z</time>
      </trkpt>
      <trkpt lat="45.12357" lon="5.59059">
        <ele>1008.1</ele>
        <time>2011-05-08T03:09:39.001Z</time>
      </trkpt>
      <trkpt lat="45.12336" lon="5.59043">
        <ele>1008.1</ele>
        <time>2011-05-08T03:09:48.998Z</time>
      </trkpt>
      <trkpt lat="45.12318" lon="5.59027">
        <ele>1007.4</ele>
        <time>2011-05-08T03:09:59Z</time>
      </trkpt>
      <trkpt lat="45.12295" lon="5.59">
        <ele>1008.4</ele>
        <time>2011-05-08T03:10:14Z</time>
      </trkpt>
      <trkpt lat="45.12277" lon="5.5897">
        <ele>1007</ele>
        <time>2011-05-08T03:10:24.002Z</time>
      </trkpt>
      <trkpt lat="45.12265" lon="5.58948">
        <ele>1005.2</ele>
        <time>2011-05-08T03:10:28.994Z</time>
      </trkpt>
      <trkpt lat="45.12253" lon="5.58927">
        <ele>1002</ele>
        <time>2011-05-08T03:10:34Z</time>
      </trkpt>
      <trkpt lat="45.12229" lon="5.58888">
        <ele>996.1</ele>
        <time>2011-05-08T03:10:44Z</time>
      </trkpt>
      <trkpt lat="45.12209" lon="5.5885">
        <ele>994</ele>
        <time>2011-05-08T03:10:53.997Z</time>
      </trkpt>
      <trkpt lat="45.12186" lon="5.58813">
        <ele>994.2</ele>
        <time>2011-05-08T03:11:03.998Z</time>
      </trkpt>
      <trkpt lat="45.12156" lon="5.58782">
        <ele>989.9</ele>
        <time>2011-05-08T03:11:13.998Z</time>
      </trkpt>
      <trkpt lat="45.12124" lon="5.58764">
        <ele>985.9</ele>
        <time>2011-05-08T03:11:23.997Z</time>
      </trkpt>
      <trkpt lat="45.12088" lon="5.58753">
        <ele>990.3</ele>
        <time>2011-05-08T03:11:34.002Z</time>
      </trkpt>
      <trkpt lat="45.12048" lon="5.58746">
        <ele>993.2</ele>
        <time>2011-05-08T03:11:44.002Z</time>
      </trkpt>
      <trkpt lat="45.12009" lon="5.58745">
        <ele>996.4</ele>
        <time>2011-05-08T03:11:53.994Z</time>
      </trkpt>
      <trkpt lat="45.11968" lon="5.58749">
        <ele>998.8</ele>
        <time>2011-05-08T03:12:04Z</time>
      </trkpt>
      <trkpt lat="45.1195" lon="5.58734">
        <ele>1005.3</ele>
        <time>2011-05-08T03:12:09Z</time>
      </trkpt>
      <trkpt lat="45.11942" lon="5.58705">
        <ele>1012.1</ele>
        <time>2011-05-08T03:12:14Z</time>
      </trkpt>
      <trkpt lat="45.11935" lon="5.58674">
        <ele>1014.6</ele>
        <time>2011-05-08T03:12:19.001Z</time>
      </trkpt>
      <trkpt lat="45.11935" lon="5.58614">
        <ele>1014.6</ele>
        <time>2011-05-08T03:12:29.002Z</time>
      </trkpt>
      <trkpt lat="45.11923" lon="5.58566">
        <ele>1014.6</ele>
        <time>2011-05-08T03:12:39.001Z</time>
      </trkpt>
      <trkpt lat="45.11913" lon="5.58514">
        <ele>1013.4</ele>
        <time>2011-05-08T03:12:49Z</time>
      </trkpt>
      <trkpt lat="45.1191" lon="5.58476">
        <ele>1012.3</ele>
        <time>2011-05-08T03:12:54Z</time>
      </trkpt>
      <trkpt lat="45.11927" lon="5.58431">
        <ele>1011.6</ele>
        <time>2011-05-08T03:12:59Z</time>
      </trkpt>
      <trkpt lat="45.11951" lon="5.58379">
        <ele>1009.9</ele>
        <time>2011-05-08T03:13:04Z</time>
      </trkpt>
      <trkpt lat="45.11975" lon="5.58323">
        <ele>1008.3</ele>
        <time>2011-05-08T03:13:08.997Z</time>
      </trkpt>
      <trkpt lat="45.11997" lon="5.58271">
        <ele>1006.4</ele>
        <time>2011-05-08T03:13:14.001Z</time>
      </trkpt>
      <trkpt lat="45.12009" lon="5.58212">
        <ele>1002.3</ele>
        <time>2011-05-08T03:13:19Z</time>
      </trkpt>
      <trkpt lat="45.12007" lon="5.58154">
        <ele>998.2</ele>
        <time>2011-05-08T03:13:24Z</time>
      </trkpt>
      <trkpt lat="45.12013" lon="5.58098">
        <ele>992.6</ele>
        <time>2011-05-08T03:13:28.998Z</time>
      </trkpt>
      <trkpt lat="45.12024" lon="5.58048">
        <ele>985.6</ele>
        <time>2011-05-08T03:13:33.996Z</time>
      </trkpt>
      <trkpt lat="45.12028" lon="5.58007">
        <ele>979</ele>
        <time>2011-05-08T03:13:38.997Z</time>
      </trkpt>
      <trkpt lat="45.12013" lon="5.57988">
        <ele>972.4</ele>
        <time>2011-05-08T03:13:44Z</time>
      </trkpt>
      <trkpt lat="45.11983" lon="5.57976">
        <ele>969.9</ele>
        <time>2011-05-08T03:13:49.004Z</time>
      </trkpt>
      <trkpt lat="45.11953" lon="5.57963">
        <ele>969.2</ele>
        <time>2011-05-08T03:13:53.998Z</time>
      </trkpt>
      <trkpt lat="45.11924" lon="5.5795">
        <ele>969</ele>
        <time>2011-05-08T03:13:58.998Z</time>
      </trkpt>
      <trkpt lat="45.11896" lon="5.57935">
        <ele>970.8</ele>
        <time>2011-05-08T03:14:04Z</time>
      </trkpt>
      <trkpt lat="45.1187" lon="5.5792">
        <ele>972.7</ele>
        <time>2011-05-08T03:14:09Z</time>
      </trkpt>
      <trkpt lat="45.11848" lon="5.57905">
        <ele>974.9</ele>
        <time>2011-05-08T03:14:14.002Z</time>
      </trkpt>
      <trkpt lat="45.11826" lon="5.5789">
        <ele>976.7</ele>
        <time>2011-05-08T03:14:18.997Z</time>
      </trkpt>
      <trkpt lat="45.11803" lon="5.57874">
        <ele>978.1</ele>
        <time>2011-05-08T03:14:23.997Z</time>
      </trkpt>
      <trkpt lat="45.1178" lon="5.57859">
        <ele>979.9</ele>
        <time>2011-05-08T03:14:29.004Z</time>
      </trkpt>
      <trkpt lat="45.11757" lon="5.57843">
        <ele>980.3</ele>
        <time>2011-05-08T03:14:33.998Z</time>
      </trkpt>
      <trkpt lat="45.11734" lon="5.57827">
        <ele>980.1</ele>
        <time>2011-05-08T03:14:38.998Z</time>
      </trkpt>
      <trkpt lat="45.11711" lon="5.57811">
        <ele>980.8</ele>
        <time>2011-05-08T03:14:44Z</time>
      </trkpt>
      <trkpt lat="45.11685" lon="5.57793">
        <ele>980.9</ele>
        <time>2011-05-08T03:14:48.997Z</time>
      </trkpt>
      <trkpt lat="45.11659" lon="5.57776">
        <ele>980.7</ele>
        <time>2011-05-08T03:14:54Z</time>
      </trkpt>
      <trkpt lat="45.11634" lon="5.57759">
        <ele>981.4</ele>
        <time>2011-05-08T03:14:59Z</time>
      </trkpt>
      <trkpt lat="45.11609" lon="5.57742">
        <ele>982</ele>
        <time>2011-05-08T03:15:04Z</time>
      </trkpt>
      <trkpt lat="45.11585" lon="5.57724">
        <ele>982.7</ele>
        <time>2011-05-08T03:15:09.001Z</time>
      </trkpt>
      <trkpt lat="45.11562" lon="5.57708">
        <ele>982.9</ele>
        <time>2011-05-08T03:15:13.993Z</time>
      </trkpt>
      <trkpt lat="45.11538" lon="5.5769">
        <ele>983.3</ele>
        <time>2011-05-08T03:15:18.997Z</time>
      </trkpt>
      <trkpt lat="45.11514" lon="5.57674">
        <ele>981.9</ele>
        <time>2011-05-08T03:15:24Z</time>
      </trkpt>
      <trkpt lat="45.11491" lon="5.57658">
        <ele>980.2</ele>
        <time>2011-05-08T03:15:29.002Z</time>
      </trkpt>
      <trkpt lat="45.11467" lon="5.57643">
        <ele>976.9</ele>
        <time>2011-05-08T03:15:34.002Z</time>
      </trkpt>
      <trkpt lat="45.11444" lon="5.57627">
        <ele>976.1</ele>
        <time>2011-05-08T03:15:39.001Z</time>
      </trkpt>
      <trkpt lat="45.11422" lon="5.57612">
        <ele>975.7</ele>
        <time>2011-05-08T03:15:44Z</time>
      </trkpt>
      <trkpt lat="45.11399" lon="5.57596">
        <ele>975.9</ele>
        <time>2011-05-08T03:15:48.998Z</time>
      </trkpt>
      <trkpt lat="45.11377" lon="5.57582">
        <ele>976.7</ele>
        <time>2011-05-08T03:15:54Z</time>
      </trkpt>
      <trkpt lat="45.11354" lon="5.57567">
        <ele>977</ele>
        <time>2011-05-08T03:15:59Z</time>
      </trkpt>
      <trkpt lat="45.11332" lon="5.57552">
        <ele>977.4</ele>
        <time>2011-05-08T03:16:04Z</time>
      </trkpt>
      <trkpt lat="45.11311" lon="5.57537">
        <ele>978.8</ele>
        <time>2011-05-08T03:16:09Z</time>
      </trkpt>
      <trkpt lat="45.11289" lon="5.57522">
        <ele>980.3</ele>
        <time>2011-05-08T03:16:14Z</time>
      </trkpt>
      <trkpt lat="45.11266" lon="5.57505">
        <ele>980.9</ele>
        <time>2011-05-08T03:16:19.001Z</time>
      </trkpt>
      <trkpt lat="45.11245" lon="5.5749">
        <ele>981.6</ele>
        <time>2011-05-08T03:16:24.001Z</time>
      </trkpt>
      <trkpt lat="45.11224" lon="5.57475">
        <ele>982.4</ele>
        <time>2011-05-08T03:16:29.001Z</time>
      </trkpt>
      <trkpt lat="45.11202" lon="5.57461">
        <ele>982</ele>
        <time>2011-05-08T03:16:34.001Z</time>
      </trkpt>
      <trkpt lat="45.11179" lon="5.57445">
        <ele>981.7</ele>
        <time>2011-05-08T03:16:39.001Z</time>
      </trkpt>
      <trkpt lat="45.11157" lon="5.5743">
        <ele>981.1</ele>
        <time>2011-05-08T03:16:44.001Z</time>
      </trkpt>
      <trkpt lat="45.11135" lon="5.57414">
        <ele>981</ele>
        <time>2011-05-08T03:16:49.004Z</time>
      </trkpt>
      <trkpt lat="45.11115" lon="5.57395">
        <ele>981</ele>
        <time>2011-05-08T03:16:54.001Z</time>
      </trkpt>
      <trkpt lat="45.11095" lon="5.57376">
        <ele>981.1</ele>
        <time>2011-05-08T03:16:59.001Z</time>
      </trkpt>
      <trkpt lat="45.11076" lon="5.57354">
        <ele>982.9</ele>
        <time>2011-05-08T03:17:04.001Z</time>
      </trkpt>
      <trkpt lat="45.11056" lon="5.57331">
        <ele>984.8</ele>
        <time>2011-05-08T03:17:08.997Z</time>
      </trkpt>
      <trkpt lat="45.11034" lon="5.57309">
        <ele>984.5</ele>
        <time>2011-05-08T03:17:13.998Z</time>
      </trkpt>
      <trkpt lat="45.11013" lon="5.57285">
        <ele>983.7</ele>
        <time>2011-05-08T03:17:18.998Z</time>
      </trkpt>
      <trkpt lat="45.10992" lon="5.57259">
        <ele>983.7</ele>
        <time>2011-05-08T03:17:24.001Z</time>
      </trkpt>
      <trkpt lat="45.10972" lon="5.57234">
        <ele>981.4</ele>
        <time>2011-05-08T03:17:29Z</time>
      </trkpt>
      <trkpt lat="45.10952" lon="5.5721">
        <ele>979.8</ele>
        <time>2011-05-08T03:17:33.997Z</time>
      </trkpt>
      <trkpt lat="45.10932" lon="5.57186">
        <ele>978.6</ele>
        <time>2011-05-08T03:17:39.001Z</time>
      </trkpt>
      <trkpt lat="45.10912" lon="5.57162">
        <ele>979.1</ele>
        <time>2011-05-08T03:17:43.998Z</time>
      </trkpt>
      <trkpt lat="45.10895" lon="5.57143">
        <ele>980.3</ele>
        <time>2011-05-08T03:17:49Z</time>
      </trkpt>
      <trkpt lat="45.10876" lon="5.5712">
        <ele>980.3</ele>
        <time>2011-05-08T03:17:54.002Z</time>
      </trkpt>
      <trkpt lat="45.10856" lon="5.57096">
        <ele>980.3</ele>
        <time>2011-05-08T03:17:59Z</time>
      </trkpt>
      <trkpt lat="45.10836" lon="5.57073">
        <ele>978.9</ele>
        <time>2011-05-08T03:18:04.002Z</time>
      </trkpt>
      <trkpt lat="45.10818" lon="5.5705">
        <ele>977.9</ele>
        <time>2011-05-08T03:18:08.996Z</time>
      </trkpt>
      <trkpt lat="45.10798" lon="5.57027">
        <ele>978.3</ele>
        <time>2011-05-08T03:18:13.997Z</time>
      </trkpt>
      <trkpt lat="45.10778" lon="5.57003">
        <ele>977.9</ele>
        <time>2011-05-08T03:18:19Z</time>
      </trkpt>
      <trkpt lat="45.10758" lon="5.56978">
        <ele>976.6</ele>
        <time>2011-05-08T03:18:24.002Z</time>
      </trkpt>
      <trkpt lat="45.10736" lon="5.56954">
        <ele>977.1</ele>
        <time>2011-05-08T03:18:29Z</time>
      </trkpt>
      <trkpt lat="45.10714" lon="5.5693">
        <ele>976.4</ele>
        <time>2011-05-08T03:18:34.003Z</time>
      </trkpt>
      <trkpt lat="45.10693" lon="5.56906">
        <ele>975.8</ele>
        <time>2011-05-08T03:18:38.996Z</time>
      </trkpt>
      <trkpt lat="45.10673" lon="5.56882">
        <ele>976.5</ele>
        <time>2011-05-08T03:18:44Z</time>
      </trkpt>
      <trkpt lat="45.10653" lon="5.56859">
        <ele>978.9</ele>
        <time>2011-05-08T03:18:49Z</time>
      </trkpt>
      <trkpt lat="45.10634" lon="5.56836">
        <ele>981.3</ele>
        <time>2011-05-08T03:18:54Z</time>
      </trkpt>
      <trkpt lat="45.10615" lon="5.56813">
        <ele>983.3</ele>
        <time>2011-05-08T03:18:59Z</time>
      </trkpt>
      <trkpt lat="45.10595" lon="5.5679">
        <ele>984.8</ele>
        <time>2011-05-08T03:19:04Z</time>
      </trkpt>
      <trkpt lat="45.10574" lon="5.56766">
        <ele>985.7</ele>
        <time>2011-05-08T03:19:09Z</time>
      </trkpt>
      <trkpt lat="45.10555" lon="5.56743">
        <ele>985</ele>
        <time>2011-05-08T03:19:14Z</time>
      </trkpt>
      <trkpt lat="45.10534" lon="5.56719">
        <ele>984.1</ele>
        <time>2011-05-08T03:19:19Z</time>
      </trkpt>
      <trkpt lat="45.10514" lon="5.56695">
        <ele>983</ele>
        <time>2011-05-08T03:19:24Z</time>
      </trkpt>
      <trkpt lat="45.10493" lon="5.56671">
        <ele>982.1</ele>
        <time>2011-05-08T03:19:29Z</time>
      </trkpt>
      <trkpt lat="45.1047" lon="5.56647">
        <ele>981.3</ele>
        <time>2011-05-08T03:19:34.002Z</time>
      </trkpt>
      <trkpt lat="45.10447" lon="5.56624">
        <ele>980.2</ele>
        <time>2011-05-08T03:19:39.001Z</time>
      </trkpt>
      <trkpt lat="45.10423" lon="5.56606">
        <ele>979.4</ele>
        <time>2011-05-08T03:19:43.998Z</time>
      </trkpt>
      <trkpt lat="45.10398" lon="5.56581">
        <ele>979</ele>
        <time>2011-05-08T03:19:49Z</time>
      </trkpt>
      <trkpt lat="45.10373" lon="5.56558">
        <ele>977.3</ele>
        <time>2011-05-08T03:19:54.002Z</time>
      </trkpt>
      <trkpt lat="45.10351" lon="5.56538">
        <ele>978.4</ele>
        <time>2011-05-08T03:19:58.994Z</time>
      </trkpt>
      <trkpt lat="45.10331" lon="5.56521">
        <ele>979.3</ele>
        <time>2011-05-08T03:20:04.003Z</time>
      </trkpt>
      <trkpt lat="45.10312" lon="5.56505">
        <ele>980.7</ele>
        <time>2011-05-08T03:20:08.998Z</time>
      </trkpt>
      <trkpt lat="45.10293" lon="5.5649">
        <ele>981.2</ele>
        <time>2011-05-08T03:20:14.002Z</time>
      </trkpt>
      <trkpt lat="45.10274" lon="5.56474">
        <ele>980.8</ele>
        <time>2011-05-08T03:20:19Z</time>
      </trkpt>
      <trkpt lat="45.10254" lon="5.5646">
        <ele>980.1</ele>
        <time>2011-05-08T03:20:23.997Z</time>
      </trkpt>
      <trkpt lat="45.10233" lon="5.5644">
        <ele>979.8</ele>
        <time>2011-05-08T03:20:28.998Z</time>
      </trkpt>
      <trkpt lat="45.10215" lon="5.56421">
        <ele>980.1</ele>
        <time>2011-05-08T03:20:34.002Z</time>
      </trkpt>
      <trkpt lat="45.10195" lon="5.56405">
        <ele>979.4</ele>
        <time>2011-05-08T03:20:39Z</time>
      </trkpt>
      <trkpt lat="45.10172" lon="5.56384">
        <ele>976.7</ele>
        <time>2011-05-08T03:20:43.996Z</time>
      </trkpt>
      <trkpt lat="45.10144" lon="5.5636">
        <ele>976.2</ele>
        <time>2011-05-08T03:20:48.998Z</time>
      </trkpt>
      <trkpt lat="45.10118" lon="5.56337">
        <ele>977.5</ele>
        <time>2011-05-08T03:20:53.997Z</time>
      </trkpt>
      <trkpt lat="45.10092" lon="5.56313">
        <ele>978.3</ele>
        <time>2011-05-08T03:20:59.001Z</time>
      </trkpt>
      <trkpt lat="45.10064" lon="5.56288">
        <ele>978.9</ele>
        <time>2011-05-08T03:21:04Z</time>
      </trkpt>
      <trkpt lat="45.10039" lon="5.56265">
        <ele>979.1</ele>
        <time>2011-05-08T03:21:09.001Z</time>
      </trkpt>
      <trkpt lat="45.10016" lon="5.56246">
        <ele>979</ele>
        <time>2011-05-08T03:21:14.002Z</time>
      </trkpt>
      <trkpt lat="45.09994" lon="5.56224">
        <ele>978.6</ele>
        <time>2011-05-08T03:21:19Z</time>
      </trkpt>
      <trkpt lat="45.0997" lon="5.56201">
        <ele>979</ele>
        <time>2011-05-08T03:21:24.001Z</time>
      </trkpt>
      <trkpt lat="45.09946" lon="5.5618">
        <ele>979.5</ele>
        <time>2011-05-08T03:21:29.002Z</time>
      </trkpt>
      <trkpt lat="45.09922" lon="5.56159">
        <ele>979.4</ele>
        <time>2011-05-08T03:21:34.002Z</time>
      </trkpt>
      <trkpt lat="45.09898" lon="5.56137">
        <ele>980</ele>
        <time>2011-05-08T03:21:39Z</time>
      </trkpt>
      <trkpt lat="45.09875" lon="5.56116">
        <ele>980.6</ele>
        <time>2011-05-08T03:21:43.997Z</time>
      </trkpt>
      <trkpt lat="45.09853" lon="5.56097">
        <ele>980.8</ele>
        <time>2011-05-08T03:21:49Z</time>
      </trkpt>
      <trkpt lat="45.09829" lon="5.56075">
        <ele>980.9</ele>
        <time>2011-05-08T03:21:54.002Z</time>
      </trkpt>
      <trkpt lat="45.09807" lon="5.56054">
        <ele>981.4</ele>
        <time>2011-05-08T03:21:59.001Z</time>
      </trkpt>
      <trkpt lat="45.09785" lon="5.56035">
        <ele>981.3</ele>
        <time>2011-05-08T03:22:04Z</time>
      </trkpt>
      <trkpt lat="45.09763" lon="5.56016">
        <ele>980</ele>
        <time>2011-05-08T03:22:09.002Z</time>
      </trkpt>
      <trkpt lat="45.09744" lon="5.55997">
        <ele>978.6</ele>
        <time>2011-05-08T03:22:14.001Z</time>
      </trkpt>
      <trkpt lat="45.09723" lon="5.55978">
        <ele>979.4</ele>
        <time>2011-05-08T03:22:18.998Z</time>
      </trkpt>
      <trkpt lat="45.09702" lon="5.55961">
        <ele>978.8</ele>
        <time>2011-05-08T03:22:24.002Z</time>
      </trkpt>
      <trkpt lat="45.09682" lon="5.55944">
        <ele>978.4</ele>
        <time>2011-05-08T03:22:28.997Z</time>
      </trkpt>
      <trkpt lat="45.0966" lon="5.55927">
        <ele>977.5</ele>
        <time>2011-05-08T03:22:34Z</time>
      </trkpt>
      <trkpt lat="45.09638" lon="5.55908">
        <ele>976.9</ele>
        <time>2011-05-08T03:22:39.003Z</time>
      </trkpt>
      <trkpt lat="45.09616" lon="5.55891">
        <ele>976.2</ele>
        <time>2011-05-08T03:22:44.002Z</time>
      </trkpt>
      <trkpt lat="45.09595" lon="5.55874">
        <ele>976</ele>
        <time>2011-05-08T03:22:49.001Z</time>
      </trkpt>
      <trkpt lat="45.09573" lon="5.55857">
        <ele>973.6</ele>
        <time>2011-05-08T03:22:53.998Z</time>
      </trkpt>
      <trkpt lat="45.09552" lon="5.55837">
        <ele>972</ele>
        <time>2011-05-08T03:22:59Z</time>
      </trkpt>
      <trkpt lat="45.09533" lon="5.55821">
        <ele>971.9</ele>
        <time>2011-05-08T03:23:03.997Z</time>
      </trkpt>
      <trkpt lat="45.09506" lon="5.55795">
        <ele>972.9</ele>
        <time>2011-05-08T03:23:13.997Z</time>
      </trkpt>
      <trkpt lat="45.09489" lon="5.55776">
        <ele>982</ele>
        <time>2011-05-08T03:40:03.999Z</time>
      </trkpt>
      <trkpt lat="45.09472" lon="5.55753">
        <ele>982.1</ele>
        <time>2011-05-08T03:40:13.997Z</time>
      </trkpt>
      <trkpt lat="45.09449" lon="5.5572">
        <ele>980.3</ele>
        <time>2011-05-08T03:40:24Z</time>
      </trkpt>
      <trkpt lat="45.09423" lon="5.55681">
        <ele>978.2</ele>
        <time>2011-05-08T03:40:33.997Z</time>
      </trkpt>
      <trkpt lat="45.09408" lon="5.55662">
        <ele>977.7</ele>
        <time>2011-05-08T03:40:39Z</time>
      </trkpt>
      <trkpt lat="45.09387" lon="5.55651">
        <ele>977.3</ele>
        <time>2011-05-08T03:40:44.000Z</time>
      </trkpt>
      <trkpt lat="45.09341" lon="5.5564">
        <ele>980.6</ele>
        <time>2011-05-08T03:40:54Z</time>
      </trkpt>
      <trkpt lat="45.09314" lon="5.55635">
        <ele>983.5</ele>
        <time>2011-05-08T03:40:59.000Z</time>
      </trkpt>
      <trkpt lat="45.09285" lon="5.55628">
        <ele>984.8</ele>
        <time>2011-05-08T03:41:04.002Z</time>
      </trkpt>
      <trkpt lat="45.09254" lon="5.55621">
        <ele>985.2</ele>
        <time>2011-05-08T03:41:09Z</time>
      </trkpt>
      <trkpt lat="45.09222" lon="5.55615">
        <ele>985</ele>
        <time>2011-05-08T03:41:14Z</time>
      </trkpt>
      <trkpt lat="45.09191" lon="5.55607">
        <ele>983.9</ele>
        <time>2011-05-08T03:41:19Z</time>
      </trkpt>
      <trkpt lat="45.0916" lon="5.556">
        <ele>983.1</ele>
        <time>2011-05-08T03:41:24Z</time>
      </trkpt>
      <trkpt lat="45.09129" lon="5.55593">
        <ele>981.5</ele>
        <time>2011-05-08T03:41:29.002Z</time>
      </trkpt>
      <trkpt lat="45.09099" lon="5.55584">
        <ele>979.3</ele>
        <time>2011-05-08T03:41:34.002Z</time>
      </trkpt>
      <trkpt lat="45.0907" lon="5.55574">
        <ele>977.3</ele>
        <time>2011-05-08T03:41:39Z</time>
      </trkpt>
      <trkpt lat="45.09042" lon="5.55562">
        <ele>976.2</ele>
        <time>2011-05-08T03:41:43.997Z</time>
      </trkpt>
      <trkpt lat="45.09018" lon="5.55543">
        <ele>976.4</ele>
        <time>2011-05-08T03:41:49.000Z</time>
      </trkpt>
      <trkpt lat="45.08989" lon="5.55542">
        <ele>976.1</ele>
        <time>2011-05-08T03:41:54.000Z</time>
      </trkpt>
      <trkpt lat="45.08957" lon="5.5554">
        <ele>974.2</ele>
        <time>2011-05-08T03:41:58.999Z</time>
      </trkpt>
      <trkpt lat="45.08925" lon="5.55532">
        <ele>972.4</ele>
        <time>2011-05-08T03:42:03.999Z</time>
      </trkpt>
      <trkpt lat="45.08892" lon="5.55524">
        <ele>971.6</ele>
        <time>2011-05-08T03:42:08.997Z</time>
      </trkpt>
      <trkpt lat="45.0886" lon="5.55516">
        <ele>971.7</ele>
        <time>2011-05-08T03:42:14Z</time>
      </trkpt>
      <trkpt lat="45.08829" lon="5.55508">
        <ele>973.3</ele>
        <time>2011-05-08T03:42:19.000Z</time>
      </trkpt>
      <trkpt lat="45.08797" lon="5.55499">
        <ele>975.3</ele>
        <time>2011-05-08T03:42:24Z</time>
      </trkpt>
      <trkpt lat="45.08765" lon="5.55489">
        <ele>977</ele>
        <time>2011-05-08T03:42:29Z</time>
      </trkpt>
      <trkpt lat="45.08735" lon="5.55481">
        <ele>980.9</ele>
        <time>2011-05-08T03:42:34.002Z</time>
      </trkpt>
      <trkpt lat="45.08708" lon="5.55474">
        <ele>982.9</ele>
        <time>2011-05-08T03:42:39.000Z</time>
      </trkpt>
      <trkpt lat="45.0868" lon="5.55467">
        <ele>983.4</ele>
        <time>2011-05-08T03:42:44Z</time>
      </trkpt>
      <trkpt lat="45.08654" lon="5.55459">
        <ele>984.9</ele>
        <time>2011-05-08T03:42:49.002Z</time>
      </trkpt>
      <trkpt lat="45.0863" lon="5.55454">
        <ele>986.2</ele>
        <time>2011-05-08T03:42:54Z</time>
      </trkpt>
      <trkpt lat="45.08597" lon="5.55441">
        <ele>986.1</ele>
        <time>2011-05-08T03:43:04Z</time>
      </trkpt>
      <trkpt lat="45.08567" lon="5.55433">
        <ele>986.9</ele>
        <time>2011-05-08T03:43:14.002Z</time>
      </trkpt>
      <trkpt lat="45.08542" lon="5.55425">
        <ele>987</ele>
        <time>2011-05-08T03:43:24.002Z</time>
      </trkpt>
      <trkpt lat="45.0852" lon="5.55412">
        <ele>986</ele>
        <time>2011-05-08T03:43:34.000Z</time>
      </trkpt>
      <trkpt lat="45.08528" lon="5.55346">
        <ele>988.1</ele>
        <time>2011-05-08T03:43:43.997Z</time>
      </trkpt>
      <trkpt lat="45.08528" lon="5.55304">
        <ele>988.1</ele>
        <time>2011-05-08T03:43:49.002Z</time>
      </trkpt>
      <trkpt lat="45.08517" lon="5.55262">
        <ele>986.3</ele>
        <time>2011-05-08T03:43:54.002Z</time>
      </trkpt>
      <trkpt lat="45.08508" lon="5.5522">
        <ele>986.2</ele>
        <time>2011-05-08T03:43:59Z</time>
      </trkpt>
      <trkpt lat="45.08505" lon="5.55173">
        <ele>987.2</ele>
        <time>2011-05-08T03:44:03.997Z</time>
      </trkpt>
      <trkpt lat="45.08502" lon="5.55131">
        <ele>987.4</ele>
        <time>2011-05-08T03:44:09.002Z</time>
      </trkpt>
      <trkpt lat="45.08492" lon="5.55105">
        <ele>987</ele>
        <time>2011-05-08T03:44:14Z</time>
      </trkpt>
      <trkpt lat="45.08459" lon="5.55104">
        <ele>993.7</ele>
        <time>2011-05-08T03:44:24.002Z</time>
      </trkpt>
      <trkpt lat="45.08431" lon="5.55102">
        <ele>994.5</ele>
        <time>2011-05-08T03:44:34Z</time>
      </trkpt>
      <trkpt lat="45.08404" lon="5.5509">
        <ele>991.2</ele>
        <time>2011-05-08T03:44:49.002Z</time>
      </trkpt>
      <trkpt lat="45.08379" lon="5.5508">
        <ele>992</ele>
        <time>2011-05-08T03:44:59Z</time>
      </trkpt>
      <trkpt lat="45.08343" lon="5.55074">
        <ele>987.2</ele>
        <time>2011-05-08T03:45:08.995Z</time>
      </trkpt>
      <trkpt lat="45.08321" lon="5.55067">
        <ele>985.7</ele>
        <time>2011-05-08T03:45:14.004Z</time>
      </trkpt>
      <trkpt lat="45.08281" lon="5.55041">
        <ele>982.7</ele>
        <time>2011-05-08T03:45:24Z</time>
      </trkpt>
      <trkpt lat="45.08257" lon="5.55031">
        <ele>982.2</ele>
        <time>2011-05-08T03:45:29Z</time>
      </trkpt>
      <trkpt lat="45.08235" lon="5.55022">
        <ele>981</ele>
        <time>2011-05-08T03:45:34.004Z</time>
      </trkpt>
      <trkpt lat="45.08201" lon="5.55005">
        <ele>980.4</ele>
        <time>2011-05-08T03:45:44.002Z</time>
      </trkpt>
      <trkpt lat="45.08169" lon="5.54986">
        <ele>981.6</ele>
        <time>2011-05-08T03:45:54.004Z</time>
      </trkpt>
      <trkpt lat="45.08143" lon="5.54971">
        <ele>980.7</ele>
        <time>2011-05-08T03:46:03.997Z</time>
      </trkpt>
      <trkpt lat="45.08116" lon="5.54955">
        <ele>983.2</ele>
        <time>2011-05-08T03:46:14Z</time>
      </trkpt>
      <trkpt lat="45.08088" lon="5.54932">
        <ele>988.3</ele>
        <time>2011-05-08T03:46:24Z</time>
      </trkpt>
      <trkpt lat="45.08052" lon="5.54912">
        <ele>995.4</ele>
        <time>2011-05-08T03:46:34Z</time>
      </trkpt>
      <trkpt lat="45.08016" lon="5.54899">
        <ele>999.2</ele>
        <time>2011-05-08T03:46:44.000Z</time>
      </trkpt>
      <trkpt lat="45.07981" lon="5.54888">
        <ele>999.7</ele>
        <time>2011-05-08T03:46:54.000Z</time>
      </trkpt>
      <trkpt lat="45.07938" lon="5.5488">
        <ele>995.7</ele>
        <time>2011-05-08T03:47:04.002Z</time>
      </trkpt>
      <trkpt lat="45.07906" lon="5.54877">
        <ele>988.4</ele>
        <time>2011-05-08T03:47:13.997Z</time>
      </trkpt>
      <trkpt lat="45.0788" lon="5.5487">
        <ele>982.6</ele>
        <time>2011-05-08T03:47:29.002Z</time>
      </trkpt>
      <trkpt lat="45.07856" lon="5.54864">
        <ele>980.4</ele>
        <time>2011-05-08T03:47:43.997Z</time>
      </trkpt>
      <trkpt lat="45.07833" lon="5.54856">
        <ele>978.8</ele>
        <time>2011-05-08T03:47:59Z</time>
      </trkpt>
      <trkpt lat="45.0781" lon="5.54848">
        <ele>981.5</ele>
        <time>2011-05-08T03:48:13.995Z</time>
      </trkpt>
      <trkpt lat="45.07781" lon="5.54838">
        <ele>978</ele>
        <time>2011-05-08T03:48:24.000Z</time>
      </trkpt>
      <trkpt lat="45.07743" lon="5.5482">
        <ele>971.5</ele>
        <time>2011-05-08T03:48:34.002Z</time>
      </trkpt>
      <trkpt lat="45.07706" lon="5.54801">
        <ele>970.3</ele>
        <time>2011-05-08T03:48:44Z</time>
      </trkpt>
      <trkpt lat="45.07686" lon="5.54789">
        <ele>971.3</ele>
        <time>2011-05-08T03:48:49Z</time>
      </trkpt>
      <trkpt lat="45.07667" lon="5.54776">
        <ele>971.7</ele>
        <time>2011-05-08T03:48:53.997Z</time>
      </trkpt>
      <trkpt lat="45.07646" lon="5.54766">
        <ele>971.5</ele>
        <time>2011-05-08T03:48:58.999Z</time>
      </trkpt>
      <trkpt lat="45.07625" lon="5.54756">
        <ele>971.1</ele>
        <time>2011-05-08T03:49:03.995Z</time>
      </trkpt>
      <trkpt lat="45.07604" lon="5.54743">
        <ele>969.2</ele>
        <time>2011-05-08T03:49:09.002Z</time>
      </trkpt>
      <trkpt lat="45.07583" lon="5.54733">
        <ele>967.2</ele>
        <time>2011-05-08T03:49:14Z</time>
      </trkpt>
      <trkpt lat="45.07561" lon="5.54724">
        <ele>964.1</ele>
        <time>2011-05-08T03:49:19Z</time>
      </trkpt>
      <trkpt lat="45.07513" lon="5.54709">
        <ele>960.9</ele>
        <time>2011-05-08T03:49:28.999Z</time>
      </trkpt>
      <trkpt lat="45.07488" lon="5.54693">
        <ele>959.3</ele>
        <time>2011-05-08T03:49:33.997Z</time>
      </trkpt>
      <trkpt lat="45.07459" lon="5.54675">
        <ele>958.6</ele>
        <time>2011-05-08T03:49:38.997Z</time>
      </trkpt>
      <trkpt lat="45.07428" lon="5.54654">
        <ele>959.1</ele>
        <time>2011-05-08T03:49:44Z</time>
      </trkpt>
      <trkpt lat="45.07407" lon="5.54635">
        <ele>961.2</ele>
        <time>2011-05-08T03:49:49Z</time>
      </trkpt>
      <trkpt lat="45.07391" lon="5.54619">
        <ele>964.7</ele>
        <time>2011-05-08T03:49:54.004Z</time>
      </trkpt>
      <trkpt lat="45.0737" lon="5.54655">
        <ele>972.2</ele>
        <time>2011-05-08T03:50:03.999Z</time>
      </trkpt>
      <trkpt lat="45.07351" lon="5.54673">
        <ele>975.1</ele>
        <time>2011-05-08T03:50:09.000Z</time>
      </trkpt>
      <trkpt lat="45.073" lon="5.54666">
        <ele>977.7</ele>
        <time>2011-05-08T03:50:18.999Z</time>
      </trkpt>
      <trkpt lat="45.07273" lon="5.54656">
        <ele>976.4</ele>
        <time>2011-05-08T03:50:24Z</time>
      </trkpt>
      <trkpt lat="45.07241" lon="5.54645">
        <ele>974.7</ele>
        <time>2011-05-08T03:50:29.000Z</time>
      </trkpt>
      <trkpt lat="45.07209" lon="5.54633">
        <ele>975.8</ele>
        <time>2011-05-08T03:50:34.000Z</time>
      </trkpt>
      <trkpt lat="45.07177" lon="5.54623">
        <ele>977.5</ele>
        <time>2011-05-08T03:50:38.999Z</time>
      </trkpt>
      <trkpt lat="45.07147" lon="5.54613">
        <ele>977.1</ele>
        <time>2011-05-08T03:50:44.002Z</time>
      </trkpt>
      <trkpt lat="45.07121" lon="5.54604">
        <ele>978</ele>
        <time>2011-05-08T03:50:49Z</time>
      </trkpt>
      <trkpt lat="45.07093" lon="5.54594">
        <ele>980</ele>
        <time>2011-05-08T03:50:54.000Z</time>
      </trkpt>
      <trkpt lat="45.07066" lon="5.54587">
        <ele>983</ele>
        <time>2011-05-08T03:50:58.995Z</time>
      </trkpt>
      <trkpt lat="45.07041" lon="5.54579">
        <ele>985.8</ele>
        <time>2011-05-08T03:51:04Z</time>
      </trkpt>
      <trkpt lat="45.07017" lon="5.54569">
        <ele>985.4</ele>
        <time>2011-05-08T03:51:08.995Z</time>
      </trkpt>
      <trkpt lat="45.06992" lon="5.5456">
        <ele>984.8</ele>
        <time>2011-05-08T03:51:14.000Z</time>
      </trkpt>
      <trkpt lat="45.06967" lon="5.5455">
        <ele>983.8</ele>
        <time>2011-05-08T03:51:19Z</time>
      </trkpt>
      <trkpt lat="45.06942" lon="5.54543">
        <ele>983.6</ele>
        <time>2011-05-08T03:51:24.000Z</time>
      </trkpt>
      <trkpt lat="45.06916" lon="5.5454">
        <ele>982.9</ele>
        <time>2011-05-08T03:51:29Z</time>
      </trkpt>
      <trkpt lat="45.06889" lon="5.54538">
        <ele>981.5</ele>
        <time>2011-05-08T03:51:33.999Z</time>
      </trkpt>
      <trkpt lat="45.06863" lon="5.5454">
        <ele>980.3</ele>
        <time>2011-05-08T03:51:39Z</time>
      </trkpt>
      <trkpt lat="45.06837" lon="5.54545">
        <ele>980.5</ele>
        <time>2011-05-08T03:51:44.000Z</time>
      </trkpt>
      <trkpt lat="45.06811" lon="5.54554">
        <ele>980.8</ele>
        <time>2011-05-08T03:51:48.997Z</time>
      </trkpt>
      <trkpt lat="45.06786" lon="5.54565">
        <ele>980.9</ele>
        <time>2011-05-08T03:51:54.002Z</time>
      </trkpt>
      <trkpt lat="45.06763" lon="5.54578">
        <ele>980.6</ele>
        <time>2011-05-08T03:51:59Z</time>
      </trkpt>
      <trkpt lat="45.06744" lon="5.54593">
        <ele>982.4</ele>
        <time>2011-05-08T03:52:04Z</time>
      </trkpt>
      <trkpt lat="45.06723" lon="5.54606">
        <ele>985.7</ele>
        <time>2011-05-08T03:52:09Z</time>
      </trkpt>
      <trkpt lat="45.06698" lon="5.5462">
        <ele>988.1</ele>
        <time>2011-05-08T03:52:13.999Z</time>
      </trkpt>
      <trkpt lat="45.06669" lon="5.54633">
        <ele>989.4</ele>
        <time>2011-05-08T03:52:19.000Z</time>
      </trkpt>
      <trkpt lat="45.06641" lon="5.54645">
        <ele>990.5</ele>
        <time>2011-05-08T03:52:23.999Z</time>
      </trkpt>
      <trkpt lat="45.06608" lon="5.54651">
        <ele>989.4</ele>
        <time>2011-05-08T03:52:29Z</time>
      </trkpt>
      <trkpt lat="45.06576" lon="5.54655">
        <ele>989.2</ele>
        <time>2011-05-08T03:52:33.997Z</time>
      </trkpt>
      <trkpt lat="45.06547" lon="5.54653">
        <ele>986.7</ele>
        <time>2011-05-08T03:52:39.000Z</time>
      </trkpt>
      <trkpt lat="45.06523" lon="5.54645">
        <ele>982.9</ele>
        <time>2011-05-08T03:52:44.002Z</time>
      </trkpt>
      <trkpt lat="45.06489" lon="5.54633">
        <ele>982.6</ele>
        <time>2011-05-08T03:52:54.000Z</time>
      </trkpt>
      <trkpt lat="45.06458" lon="5.54626">
        <ele>984.8</ele>
        <time>2011-05-08T03:53:04Z</time>
      </trkpt>
      <trkpt lat="45.06421" lon="5.54617">
        <ele>983.4</ele>
        <time>2011-05-08T03:53:14.000Z</time>
      </trkpt>
      <trkpt lat="45.06384" lon="5.54615">
        <ele>987.2</ele>
        <time>2011-05-08T03:53:23.999Z</time>
      </trkpt>
      <trkpt lat="45.06346" lon="5.54621">
        <ele>990.2</ele>
        <time>2011-05-08T03:53:34.000Z</time>
      </trkpt>
      <trkpt lat="45.0631" lon="5.54639">
        <ele>996.8</ele>
        <time>2011-05-08T03:53:43.999Z</time>
      </trkpt>
      <trkpt lat="45.06292" lon="5.54652">
        <ele>996.3</ele>
        <time>2011-05-08T03:53:48.997Z</time>
      </trkpt>
      <trkpt lat="45.06274" lon="5.54667">
        <ele>995.7</ele>
        <time>2011-05-08T03:53:54.002Z</time>
      </trkpt>
      <trkpt lat="45.06257" lon="5.54682">
        <ele>993.9</ele>
        <time>2011-05-08T03:53:59.002Z</time>
      </trkpt>
      <trkpt lat="45.06239" lon="5.54695">
        <ele>992</ele>
        <time>2011-05-08T03:54:03.999Z</time>
      </trkpt>
      <trkpt lat="45.06219" lon="5.54704">
        <ele>991.3</ele>
        <time>2011-05-08T03:54:09.000Z</time>
      </trkpt>
      <trkpt lat="45.0617" lon="5.54707">
        <ele>992.1</ele>
        <time>2011-05-08T03:54:18.995Z</time>
      </trkpt>
      <trkpt lat="45.06144" lon="5.54699">
        <ele>992.1</ele>
        <time>2011-05-08T03:54:24.000Z</time>
      </trkpt>
      <trkpt lat="45.0612" lon="5.54688">
        <ele>992.6</ele>
        <time>2011-05-08T03:54:29.002Z</time>
      </trkpt>
      <trkpt lat="45.06097" lon="5.54676">
        <ele>993</ele>
        <time>2011-05-08T03:54:33.997Z</time>
      </trkpt>
      <trkpt lat="45.06075" lon="5.54664">
        <ele>992.8</ele>
        <time>2011-05-08T03:54:39.000Z</time>
      </trkpt>
      <trkpt lat="45.06053" lon="5.54651">
        <ele>992.6</ele>
        <time>2011-05-08T03:54:44.000Z</time>
      </trkpt>
      <trkpt lat="45.06031" lon="5.54637">
        <ele>993.6</ele>
        <time>2011-05-08T03:54:48.997Z</time>
      </trkpt>
      <trkpt lat="45.0601" lon="5.54621">
        <ele>994.5</ele>
        <time>2011-05-08T03:54:53.999Z</time>
      </trkpt>
      <trkpt lat="45.0599" lon="5.54605">
        <ele>995.2</ele>
        <time>2011-05-08T03:54:58.999Z</time>
      </trkpt>
      <trkpt lat="45.0597" lon="5.54589">
        <ele>996.1</ele>
        <time>2011-05-08T03:55:03.995Z</time>
      </trkpt>
      <trkpt lat="45.05949" lon="5.54572">
        <ele>997.2</ele>
        <time>2011-05-08T03:55:09.002Z</time>
      </trkpt>
      <trkpt lat="45.05929" lon="5.54559">
        <ele>998.5</ele>
        <time>2011-05-08T03:55:13.997Z</time>
      </trkpt>
      <trkpt lat="45.05888" lon="5.54548">
        <ele>1002.5</ele>
        <time>2011-05-08T03:55:23.999Z</time>
      </trkpt>
      <trkpt lat="45.05845" lon="5.54544">
        <ele>1004</ele>
        <time>2011-05-08T03:55:34Z</time>
      </trkpt>
      <trkpt lat="45.05799" lon="5.54543">
        <ele>1004.4</ele>
        <time>2011-05-08T03:55:43.999Z</time>
      </trkpt>
      <trkpt lat="45.0575" lon="5.54543">
        <ele>1003.9</ele>
        <time>2011-05-08T03:55:53.999Z</time>
      </trkpt>
      <trkpt lat="45.05708" lon="5.54545">
        <ele>1003.4</ele>
        <time>2011-05-08T03:56:03.995Z</time>
      </trkpt>
      <trkpt lat="45.05676" lon="5.54545">
        <ele>1003</ele>
        <time>2011-05-08T03:56:14Z</time>
      </trkpt>
      <trkpt lat="45.05649" lon="5.54557">
        <ele>997.4</ele>
        <time>2011-05-08T03:56:29Z</time>
      </trkpt>
      <trkpt lat="45.05618" lon="5.54566">
        <ele>996.7</ele>
        <time>2011-05-08T03:56:44Z</time>
      </trkpt>
      <trkpt lat="45.05598" lon="5.54578">
        <ele>1002.7</ele>
        <time>2011-05-08T03:56:59Z</time>
      </trkpt>
      <trkpt lat="45.0558" lon="5.54599">
        <ele>1004.4</ele>
        <time>2011-05-08T03:57:14Z</time>
      </trkpt>
      <trkpt lat="45.05556" lon="5.54621">
        <ele>997.9</ele>
        <time>2011-05-08T03:57:29Z</time>
      </trkpt>
      <trkpt lat="45.0554" lon="5.54643">
        <ele>998</ele>
        <time>2011-05-08T03:57:44Z</time>
      </trkpt>
      <trkpt lat="45.05517" lon="5.54636">
        <ele>994.8</ele>
        <time>2011-05-08T03:57:53.997Z</time>
      </trkpt>
      <trkpt lat="45.0549" lon="5.5463">
        <ele>1000.8</ele>
        <time>2011-05-08T03:58:09Z</time>
      </trkpt>
      <trkpt lat="45.0547" lon="5.54618">
        <ele>1021.8</ele>
        <time>2011-05-08T03:58:19Z</time>
      </trkpt>
      <trkpt lat="45.0544" lon="5.54621">
        <ele>1036.5</ele>
        <time>2011-05-08T03:58:34Z</time>
      </trkpt>
      <trkpt lat="45.05416" lon="5.54641">
        <ele>1037.1</ele>
        <time>2011-05-08T03:58:49Z</time>
      </trkpt>
      <trkpt lat="45.05385" lon="5.54649">
        <ele>1047.1</ele>
        <time>2011-05-08T03:59:04Z</time>
      </trkpt>
      <trkpt lat="45.0536" lon="5.5466">
        <ele>1055</ele>
        <time>2011-05-08T03:59:19Z</time>
      </trkpt>
      <trkpt lat="45.05343" lon="5.54676">
        <ele>1055.9</ele>
        <time>2011-05-08T03:59:29Z</time>
      </trkpt>
      <trkpt lat="45.05326" lon="5.54697">
        <ele>1054.7</ele>
        <time>2011-05-08T03:59:38.997Z</time>
      </trkpt>
      <trkpt lat="45.05307" lon="5.54715">
        <ele>1054.6</ele>
        <time>2011-05-08T03:59:48.997Z</time>
      </trkpt>
      <trkpt lat="45.05288" lon="5.54731">
        <ele>1049.3</ele>
        <time>2011-05-08T03:59:59.002Z</time>
      </trkpt>
      <trkpt lat="45.0526" lon="5.54731">
        <ele>1047.4</ele>
        <time>2011-05-08T04:00:08.997Z</time>
      </trkpt>
      <trkpt lat="45.05234" lon="5.54716">
        <ele>1047.8</ele>
        <time>2011-05-08T04:00:18.999Z</time>
      </trkpt>
      <trkpt lat="45.05215" lon="5.54698">
        <ele>1051.7</ele>
        <time>2011-05-08T04:00:28.997Z</time>
      </trkpt>
      <trkpt lat="45.05194" lon="5.54685">
        <ele>1055.9</ele>
        <time>2011-05-08T04:00:39Z</time>
      </trkpt>
      <trkpt lat="45.05162" lon="5.54685">
        <ele>1059.9</ele>
        <time>2011-05-08T04:00:54Z</time>
      </trkpt>
      <trkpt lat="45.05135" lon="5.54697">
        <ele>1063.5</ele>
        <time>2011-05-08T04:01:09.000Z</time>
      </trkpt>
      <trkpt lat="45.05113" lon="5.54709">
        <ele>1064.8</ele>
        <time>2011-05-08T04:01:19.002Z</time>
      </trkpt>
      <trkpt lat="45.05087" lon="5.54718">
        <ele>1065.1</ele>
        <time>2011-05-08T04:01:29Z</time>
      </trkpt>
      <trkpt lat="45.05062" lon="5.54728">
        <ele>1062.7</ele>
        <time>2011-05-08T04:01:39.002Z</time>
      </trkpt>
      <trkpt lat="45.05038" lon="5.54737">
        <ele>1064</ele>
        <time>2011-05-08T04:01:49.000Z</time>
      </trkpt>
      <trkpt lat="45.05013" lon="5.54747">
        <ele>1065.6</ele>
        <time>2011-05-08T04:01:59.002Z</time>
      </trkpt>
      <trkpt lat="45.04987" lon="5.54755">
        <ele>1067.6</ele>
        <time>2011-05-08T04:02:08.999Z</time>
      </trkpt>
      <trkpt lat="45.04967" lon="5.54765">
        <ele>1070.3</ele>
        <time>2011-05-08T04:02:18.997Z</time>
      </trkpt>
      <trkpt lat="45.04943" lon="5.54776">
        <ele>1071.5</ele>
        <time>2011-05-08T04:02:29.002Z</time>
      </trkpt>
      <trkpt lat="45.04914" lon="5.54791">
        <ele>1070.7</ele>
        <time>2011-05-08T04:02:39Z</time>
      </trkpt>
      <trkpt lat="45.04884" lon="5.54809">
        <ele>1072.8</ele>
        <time>2011-05-08T04:02:48.997Z</time>
      </trkpt>
      <trkpt lat="45.04859" lon="5.54828">
        <ele>1076.3</ele>
        <time>2011-05-08T04:02:58.999Z</time>
      </trkpt>
      <trkpt lat="45.04831" lon="5.54848">
        <ele>1075.5</ele>
        <time>2011-05-08T04:03:09.002Z</time>
      </trkpt>
      <trkpt lat="45.04807" lon="5.54876">
        <ele>1073.7</ele>
        <time>2011-05-08T04:03:19.000Z</time>
      </trkpt>
      <trkpt lat="45.04791" lon="5.54908">
        <ele>1076.1</ele>
        <time>2011-05-08T04:03:29Z</time>
      </trkpt>
      <trkpt lat="45.04777" lon="5.54943">
        <ele>1078.4</ele>
        <time>2011-05-08T04:03:39Z</time>
      </trkpt>
      <trkpt lat="45.04764" lon="5.54978">
        <ele>1077.1</ele>
        <time>2011-05-08T04:03:48.999Z</time>
      </trkpt>
      <trkpt lat="45.04751" lon="5.55012">
        <ele>1075.7</ele>
        <time>2011-05-08T04:03:59.002Z</time>
      </trkpt>
      <trkpt lat="45.04751" lon="5.55064">
        <ele>1077</ele>
        <time>2011-05-08T04:04:13.997Z</time>
      </trkpt>
      <trkpt lat="45.04755" lon="5.55098">
        <ele>1079</ele>
        <time>2011-05-08T04:04:23.999Z</time>
      </trkpt>
      <trkpt lat="45.04761" lon="5.55132">
        <ele>1082.5</ele>
        <time>2011-05-08T04:04:34.004Z</time>
      </trkpt>
      <trkpt lat="45.04768" lon="5.55166">
        <ele>1086.5</ele>
        <time>2011-05-08T04:04:44.004Z</time>
      </trkpt>
      <trkpt lat="45.04776" lon="5.55216">
        <ele>1087.9</ele>
        <time>2011-05-08T04:04:58.997Z</time>
      </trkpt>
      <trkpt lat="45.04782" lon="5.55251">
        <ele>1089.8</ele>
        <time>2011-05-08T04:05:09.002Z</time>
      </trkpt>
      <trkpt lat="45.04788" lon="5.55284">
        <ele>1091.8</ele>
        <time>2011-05-08T04:05:18.999Z</time>
      </trkpt>
      <trkpt lat="45.04794" lon="5.55317">
        <ele>1093.3</ele>
        <time>2011-05-08T04:05:29Z</time>
      </trkpt>
      <trkpt lat="45.04799" lon="5.5535">
        <ele>1091.8</ele>
        <time>2011-05-08T04:05:38.997Z</time>
      </trkpt>
      <trkpt lat="45.04803" lon="5.55385">
        <ele>1093.2</ele>
        <time>2011-05-08T04:05:49Z</time>
      </trkpt>
      <trkpt lat="45.04807" lon="5.55421">
        <ele>1097.3</ele>
        <time>2011-05-08T04:05:58.997Z</time>
      </trkpt>
      <trkpt lat="45.04812" lon="5.5547">
        <ele>1100.2</ele>
        <time>2011-05-08T04:06:14Z</time>
      </trkpt>
      <trkpt lat="45.04815" lon="5.55504">
        <ele>1101</ele>
        <time>2011-05-08T04:06:24Z</time>
      </trkpt>
      <trkpt lat="45.04821" lon="5.55537">
        <ele>1102.6</ele>
        <time>2011-05-08T04:06:34.002Z</time>
      </trkpt>
      <trkpt lat="45.04831" lon="5.55566">
        <ele>1104.5</ele>
        <time>2011-05-08T04:06:44.002Z</time>
      </trkpt>
      <trkpt lat="45.04841" lon="5.55592">
        <ele>1106</ele>
        <time>2011-05-08T04:06:54Z</time>
      </trkpt>
      <trkpt lat="45.04855" lon="5.55626">
        <ele>1111.6</ele>
        <time>2011-05-08T04:07:08.997Z</time>
      </trkpt>
      <trkpt lat="45.04857" lon="5.5567">
        <ele>1116.6</ele>
        <time>2011-05-08T04:07:24.000Z</time>
      </trkpt>
      <trkpt lat="45.04824" lon="5.55678">
        <ele>1124.3</ele>
        <time>2011-05-08T04:07:39.000Z</time>
      </trkpt>
      <trkpt lat="45.0479" lon="5.5567">
        <ele>1128.9</ele>
        <time>2011-05-08T04:07:49Z</time>
      </trkpt>
      <trkpt lat="45.04754" lon="5.55666">
        <ele>1131.5</ele>
        <time>2011-05-08T04:07:59Z</time>
      </trkpt>
      <trkpt lat="45.04717" lon="5.5567">
        <ele>1132.7</ele>
        <time>2011-05-08T04:08:08.999Z</time>
      </trkpt>
      <trkpt lat="45.0468" lon="5.5566">
        <ele>1130.6</ele>
        <time>2011-05-08T04:08:18.999Z</time>
      </trkpt>
      <trkpt lat="45.04643" lon="5.55644">
        <ele>1130.4</ele>
        <time>2011-05-08T04:08:28.999Z</time>
      </trkpt>
      <trkpt lat="45.04604" lon="5.55646">
        <ele>1130.2</ele>
        <time>2011-05-08T04:08:39Z</time>
      </trkpt>
      <trkpt lat="45.04591" lon="5.55666">
        <ele>1131.9</ele>
        <time>2011-05-08T04:08:44Z</time>
      </trkpt>
      <trkpt lat="45.04583" lon="5.55717">
        <ele>1136.8</ele>
        <time>2011-05-08T04:08:54Z</time>
      </trkpt>
      <trkpt lat="45.04574" lon="5.5577">
        <ele>1140.1</ele>
        <time>2011-05-08T04:09:04Z</time>
      </trkpt>
      <trkpt lat="45.04555" lon="5.55821">
        <ele>1142</ele>
        <time>2011-05-08T04:09:14Z</time>
      </trkpt>
      <trkpt lat="45.04545" lon="5.55847">
        <ele>1142.2</ele>
        <time>2011-05-08T04:09:19Z</time>
      </trkpt>
      <trkpt lat="45.04533" lon="5.55874">
        <ele>1141.7</ele>
        <time>2011-05-08T04:09:24Z</time>
      </trkpt>
      <trkpt lat="45.04518" lon="5.55896">
        <ele>1141.3</ele>
        <time>2011-05-08T04:09:29Z</time>
      </trkpt>
      <trkpt lat="45.04483" lon="5.55916">
        <ele>1142.8</ele>
        <time>2011-05-08T04:09:39Z</time>
      </trkpt>
      <trkpt lat="45.04455" lon="5.55928">
        <ele>1144.9</ele>
        <time>2011-05-08T04:09:49Z</time>
      </trkpt>
      <trkpt lat="45.04428" lon="5.55918">
        <ele>1149.5</ele>
        <time>2011-05-08T04:09:59.002Z</time>
      </trkpt>
      <trkpt lat="45.04413" lon="5.55897">
        <ele>1152.5</ele>
        <time>2011-05-08T04:10:09.002Z</time>
      </trkpt>
      <trkpt lat="45.04396" lon="5.55875">
        <ele>1149.2</ele>
        <time>2011-05-08T04:10:23.997Z</time>
      </trkpt>
      <trkpt lat="45.04409" lon="5.55896">
        <ele>1135.2</ele>
        <time>2011-05-08T04:20:58.997Z</time>
      </trkpt>
      <trkpt lat="45.04432" lon="5.55922">
        <ele>1129.4</ele>
        <time>2011-05-08T04:21:08.997Z</time>
      </trkpt>
      <trkpt lat="45.04478" lon="5.55928">
        <ele>1127.2</ele>
        <time>2011-05-08T04:21:19.006Z</time>
      </trkpt>
      <trkpt lat="45.04513" lon="5.55909">
        <ele>1124.6</ele>
        <time>2011-05-08T04:21:24Z</time>
      </trkpt>
      <trkpt lat="45.04541" lon="5.55875">
        <ele>1123.3</ele>
        <time>2011-05-08T04:21:28.999Z</time>
      </trkpt>
      <trkpt lat="45.04561" lon="5.5583">
        <ele>1124.3</ele>
        <time>2011-05-08T04:21:34.000Z</time>
      </trkpt>
      <trkpt lat="45.04575" lon="5.55789">
        <ele>1124.9</ele>
        <time>2011-05-08T04:21:39Z</time>
      </trkpt>
      <trkpt lat="45.04586" lon="5.55747">
        <ele>1124.5</ele>
        <time>2011-05-08T04:21:44Z</time>
      </trkpt>
      <trkpt lat="45.0459" lon="5.5571">
        <ele>1123.2</ele>
        <time>2011-05-08T04:21:49.000Z</time>
      </trkpt>
      <trkpt lat="45.04597" lon="5.55646">
        <ele>1123.3</ele>
        <time>2011-05-08T04:21:59.000Z</time>
      </trkpt>
      <trkpt lat="45.0461" lon="5.55625">
        <ele>1124.5</ele>
        <time>2011-05-08T04:22:04.000Z</time>
      </trkpt>
      <trkpt lat="45.04638" lon="5.55629">
        <ele>1126.9</ele>
        <time>2011-05-08T04:23:38.995Z</time>
      </trkpt>
      <trkpt lat="45.04668" lon="5.55646">
        <ele>1127.1</ele>
        <time>2011-05-08T04:23:49.002Z</time>
      </trkpt>
      <trkpt lat="45.047" lon="5.55663">
        <ele>1122.2</ele>
        <time>2011-05-08T04:23:59Z</time>
      </trkpt>
      <trkpt lat="45.04733" lon="5.55671">
        <ele>1120</ele>
        <time>2011-05-08T04:24:08.999Z</time>
      </trkpt>
      <trkpt lat="45.04763" lon="5.55665">
        <ele>1122.1</ele>
        <time>2011-05-08T04:24:19.000Z</time>
      </trkpt>
      <trkpt lat="45.04794" lon="5.5566">
        <ele>1127.5</ele>
        <time>2011-05-08T04:26:03.997Z</time>
      </trkpt>
      <trkpt lat="45.04833" lon="5.55671">
        <ele>1128.5</ele>
        <time>2011-05-08T04:26:14Z</time>
      </trkpt>
      <trkpt lat="45.04873" lon="5.55656">
        <ele>1126.1</ele>
        <time>2011-05-08T04:26:24.002Z</time>
      </trkpt>
      <trkpt lat="45.04867" lon="5.55619">
        <ele>1126.7</ele>
        <time>2011-05-08T04:26:29.000Z</time>
      </trkpt>
      <trkpt lat="45.04849" lon="5.55583">
        <ele>1125.4</ele>
        <time>2011-05-08T04:26:33.997Z</time>
      </trkpt>
      <trkpt lat="45.04831" lon="5.55554">
        <ele>1122.4</ele>
        <time>2011-05-08T04:26:39.000Z</time>
      </trkpt>
      <trkpt lat="45.04783" lon="5.55558">
        <ele>1115.6</ele>
        <time>2011-05-08T04:26:49.000Z</time>
      </trkpt>
      <trkpt lat="45.04751" lon="5.55539">
        <ele>1114.8</ele>
        <time>2011-05-08T04:26:58.997Z</time>
      </trkpt>
      <trkpt lat="45.04735" lon="5.5552">
        <ele>1122</ele>
        <time>2011-05-08T04:27:09.002Z</time>
      </trkpt>
      <trkpt lat="45.0472" lon="5.55497">
        <ele>1125.6</ele>
        <time>2011-05-08T04:27:18.995Z</time>
      </trkpt>
      <trkpt lat="45.04703" lon="5.55471">
        <ele>1125.8</ele>
        <time>2011-05-08T04:27:29.000Z</time>
      </trkpt>
      <trkpt lat="45.0468" lon="5.55455">
        <ele>1122.7</ele>
        <time>2011-05-08T04:27:38.999Z</time>
      </trkpt>
      <trkpt lat="45.04656" lon="5.55477">
        <ele>1118.8</ele>
        <time>2011-05-08T04:27:49.002Z</time>
      </trkpt>
      <trkpt lat="45.04643" lon="5.5551">
        <ele>1117</ele>
        <time>2011-05-08T04:27:53.995Z</time>
      </trkpt>
      <trkpt lat="45.04623" lon="5.55529">
        <ele>1115.5</ele>
        <time>2011-05-08T04:27:58.999Z</time>
      </trkpt>
      <trkpt lat="45.04594" lon="5.55537">
        <ele>1120.2</ele>
        <time>2011-05-08T04:28:14Z</time>
      </trkpt>
      <trkpt lat="45.04567" lon="5.55559">
        <ele>1117.7</ele>
        <time>2011-05-08T04:28:23.995Z</time>
      </trkpt>
      <trkpt lat="45.04555" lon="5.55585">
        <ele>1116.3</ele>
        <time>2011-05-08T04:28:29Z</time>
      </trkpt>
      <trkpt lat="45.04549" lon="5.55619">
        <ele>1114.2</ele>
        <time>2011-05-08T04:28:34.002Z</time>
      </trkpt>
      <trkpt lat="45.04538" lon="5.55672">
        <ele>1117.9</ele>
        <time>2011-05-08T04:28:44Z</time>
      </trkpt>
      <trkpt lat="45.04529" lon="5.5572">
        <ele>1138.3</ele>
        <time>2011-05-08T04:28:59.000Z</time>
      </trkpt>
      <trkpt lat="45.04509" lon="5.55758">
        <ele>1139.4</ele>
        <time>2011-05-08T04:29:09Z</time>
      </trkpt>
      <trkpt lat="45.04496" lon="5.55796">
        <ele>1134.9</ele>
        <time>2011-05-08T04:29:19Z</time>
      </trkpt>
      <trkpt lat="45.04484" lon="5.55822">
        <ele>1132.1</ele>
        <time>2011-05-08T04:29:29.002Z</time>
      </trkpt>
      <trkpt lat="45.04469" lon="5.55852">
        <ele>1116.9</ele>
        <time>2011-05-08T04:30:49Z</time>
      </trkpt>
      <trkpt lat="45.04454" lon="5.55827">
        <ele>1121.1</ele>
        <time>2011-05-08T04:30:59.004Z</time>
      </trkpt>
      <trkpt lat="45.04441" lon="5.55805">
        <ele>1131.1</ele>
        <time>2011-05-08T04:31:09Z</time>
      </trkpt>
      <trkpt lat="45.04428" lon="5.55785">
        <ele>1134.5</ele>
        <time>2011-05-08T04:31:19.002Z</time>
      </trkpt>
      <trkpt lat="45.04417" lon="5.55758">
        <ele>1134.8</ele>
        <time>2011-05-08T04:31:28.995Z</time>
      </trkpt>
      <trkpt lat="45.04409" lon="5.55732">
        <ele>1135</ele>
        <time>2011-05-08T04:31:38.995Z</time>
      </trkpt>
      <trkpt lat="45.04403" lon="5.55692">
        <ele>1136.9</ele>
        <time>2011-05-08T04:31:54.000Z</time>
      </trkpt>
      <trkpt lat="45.04388" lon="5.55662">
        <ele>1139.3</ele>
        <time>2011-05-08T04:32:08.995Z</time>
      </trkpt>
      <trkpt lat="45.04371" lon="5.55635">
        <ele>1156.6</ele>
        <time>2011-05-08T04:32:29Z</time>
      </trkpt>
      <trkpt lat="45.04348" lon="5.55614">
        <ele>1146.4</ele>
        <time>2011-05-08T04:32:54Z</time>
      </trkpt>
      <trkpt lat="45.0434" lon="5.55585">
        <ele>1159.1</ele>
        <time>2011-05-08T04:33:09Z</time>
      </trkpt>
      <trkpt lat="45.04326" lon="5.55559">
        <ele>1163.3</ele>
        <time>2011-05-08T04:33:24Z</time>
      </trkpt>
      <trkpt lat="45.04311" lon="5.5553">
        <ele>1162.3</ele>
        <time>2011-05-08T04:33:39Z</time>
      </trkpt>
      <trkpt lat="45.04295" lon="5.55509">
        <ele>1163.4</ele>
        <time>2011-05-08T04:33:54Z</time>
      </trkpt>
      <trkpt lat="45.0428" lon="5.55472">
        <ele>1170.4</ele>
        <time>2011-05-08T04:34:08.997Z</time>
      </trkpt>
      <trkpt lat="45.04269" lon="5.55438">
        <ele>1174.1</ele>
        <time>2011-05-08T04:34:19.002Z</time>
      </trkpt>
      <trkpt lat="45.0425" lon="5.55412">
        <ele>1171.2</ele>
        <time>2011-05-08T04:34:33.997Z</time>
      </trkpt>
      <trkpt lat="45.04226" lon="5.55365">
        <ele>1162.1</ele>
        <time>2011-05-08T04:34:54Z</time>
      </trkpt>
      <trkpt lat="45.04209" lon="5.55334">
        <ele>1160.6</ele>
        <time>2011-05-08T04:34:59Z</time>
      </trkpt>
      <trkpt lat="45.04191" lon="5.55304">
        <ele>1160.6</ele>
        <time>2011-05-08T04:35:03.999Z</time>
      </trkpt>
      <trkpt lat="45.04152" lon="5.55247">
        <ele>1161.3</ele>
        <time>2011-05-08T04:35:14Z</time>
      </trkpt>
      <trkpt lat="45.04135" lon="5.55219">
        <ele>1163.1</ele>
        <time>2011-05-08T04:35:19Z</time>
      </trkpt>
      <trkpt lat="45.04133" lon="5.55184">
        <ele>1164.3</ele>
        <time>2011-05-08T04:35:24.002Z</time>
      </trkpt>
      <trkpt lat="45.04139" lon="5.55154">
        <ele>1164.9</ele>
        <time>2011-05-08T04:35:29Z</time>
      </trkpt>
      <trkpt lat="45.04124" lon="5.55094">
        <ele>1159.5</ele>
        <time>2011-05-08T04:35:39Z</time>
      </trkpt>
      <trkpt lat="45.04134" lon="5.55056">
        <ele>1157.5</ele>
        <time>2011-05-08T04:35:44.002Z</time>
      </trkpt>
      <trkpt lat="45.0416" lon="5.55026">
        <ele>1155.9</ele>
        <time>2011-05-08T04:35:49Z</time>
      </trkpt>
      <trkpt lat="45.042" lon="5.54978">
        <ele>1149.8</ele>
        <time>2011-05-08T04:35:59Z</time>
      </trkpt>
      <trkpt lat="45.04221" lon="5.54955">
        <ele>1147.6</ele>
        <time>2011-05-08T04:36:04Z</time>
      </trkpt>
      <trkpt lat="45.04237" lon="5.54931">
        <ele>1147</ele>
        <time>2011-05-08T04:36:09Z</time>
      </trkpt>
      <trkpt lat="45.04252" lon="5.54894">
        <ele>1146.7</ele>
        <time>2011-05-08T04:36:19.004Z</time>
      </trkpt>
      <trkpt lat="45.04269" lon="5.54857">
        <ele>1144.7</ele>
        <time>2011-05-08T04:36:28.999Z</time>
      </trkpt>
      <trkpt lat="45.04248" lon="5.54828">
        <ele>1141.8</ele>
        <time>2011-05-08T04:36:39Z</time>
      </trkpt>
      <trkpt lat="45.04221" lon="5.5482">
        <ele>1140.2</ele>
        <time>2011-05-08T04:36:44Z</time>
      </trkpt>
      <trkpt lat="45.04186" lon="5.54821">
        <ele>1136.2</ele>
        <time>2011-05-08T04:36:49Z</time>
      </trkpt>
      <trkpt lat="45.04157" lon="5.54792">
        <ele>1131.7</ele>
        <time>2011-05-08T04:36:54.000Z</time>
      </trkpt>
      <trkpt lat="45.04145" lon="5.54739">
        <ele>1128.3</ele>
        <time>2011-05-08T04:36:59Z</time>
      </trkpt>
      <trkpt lat="45.0416" lon="5.54673">
        <ele>1126.2</ele>
        <time>2011-05-08T04:37:03.999Z</time>
      </trkpt>
      <trkpt lat="45.04202" lon="5.54629">
        <ele>1119.6</ele>
        <time>2011-05-08T04:37:09Z</time>
      </trkpt>
      <trkpt lat="45.04233" lon="5.54555">
        <ele>1119.2</ele>
        <time>2011-05-08T04:37:14Z</time>
      </trkpt>
      <trkpt lat="45.04245" lon="5.54482">
        <ele>1122</ele>
        <time>2011-05-08T04:37:19Z</time>
      </trkpt>
      <trkpt lat="45.04235" lon="5.54406">
        <ele>1120.9</ele>
        <time>2011-05-08T04:37:24Z</time>
      </trkpt>
      <trkpt lat="45.04223" lon="5.54328">
        <ele>1115.8</ele>
        <time>2011-05-08T04:37:29Z</time>
      </trkpt>
      <trkpt lat="45.04208" lon="5.54256">
        <ele>1106.6</ele>
        <time>2011-05-08T04:37:34Z</time>
      </trkpt>
      <trkpt lat="45.04203" lon="5.54224">
        <ele>1099.1</ele>
        <time>2011-05-08T04:37:39.000Z</time>
      </trkpt>
      <trkpt lat="45.04193" lon="5.54186">
        <ele>1097.8</ele>
        <time>2011-05-08T04:37:54Z</time>
      </trkpt>
      <trkpt lat="45.04172" lon="5.54171">
        <ele>1099.1</ele>
        <time>2011-05-08T04:37:59Z</time>
      </trkpt>
      <trkpt lat="45.04154" lon="5.5415">
        <ele>1098.6</ele>
        <time>2011-05-08T04:38:04Z</time>
      </trkpt>
      <trkpt lat="45.04142" lon="5.54117">
        <ele>1099.4</ele>
        <time>2011-05-08T04:38:14.004Z</time>
      </trkpt>
      <trkpt lat="45.04139" lon="5.54084">
        <ele>1101.3</ele>
        <time>2011-05-08T04:38:24.008Z</time>
      </trkpt>
      <trkpt lat="45.04134" lon="5.54048">
        <ele>1109.9</ele>
        <time>2011-05-08T04:38:33.995Z</time>
      </trkpt>
      <trkpt lat="45.04122" lon="5.54004">
        <ele>1117.1</ele>
        <time>2011-05-08T04:38:44Z</time>
      </trkpt>
      <trkpt lat="45.04114" lon="5.5395">
        <ele>1113.6</ele>
        <time>2011-05-08T04:38:54.002Z</time>
      </trkpt>
      <trkpt lat="45.04111" lon="5.53912">
        <ele>1107.9</ele>
        <time>2011-05-08T04:39:04Z</time>
      </trkpt>
      <trkpt lat="45.04102" lon="5.53882">
        <ele>1104.9</ele>
        <time>2011-05-08T04:39:14Z</time>
      </trkpt>
      <trkpt lat="45.04066" lon="5.53882">
        <ele>1112.8</ele>
        <time>2011-05-08T04:40:28.999Z</time>
      </trkpt>
      <trkpt lat="45.04047" lon="5.53857">
        <ele>1120.4</ele>
        <time>2011-05-08T04:40:39Z</time>
      </trkpt>
      <trkpt lat="45.04021" lon="5.53832">
        <ele>1120.8</ele>
        <time>2011-05-08T04:40:49Z</time>
      </trkpt>
      <trkpt lat="45.04003" lon="5.53816">
        <ele>1116.8</ele>
        <time>2011-05-08T04:40:54Z</time>
      </trkpt>
      <trkpt lat="45.03971" lon="5.53779">
        <ele>1114</ele>
        <time>2011-05-08T04:41:04Z</time>
      </trkpt>
      <trkpt lat="45.03956" lon="5.53756">
        <ele>1111.9</ele>
        <time>2011-05-08T04:41:09Z</time>
      </trkpt>
      <trkpt lat="45.03933" lon="5.5373">
        <ele>1109.3</ele>
        <time>2011-05-08T04:41:14Z</time>
      </trkpt>
      <trkpt lat="45.03913" lon="5.53714">
        <ele>1107.3</ele>
        <time>2011-05-08T04:41:19Z</time>
      </trkpt>
      <trkpt lat="45.03884" lon="5.53689">
        <ele>1104.7</ele>
        <time>2011-05-08T04:41:24Z</time>
      </trkpt>
      <trkpt lat="45.03853" lon="5.53654">
        <ele>1103.1</ele>
        <time>2011-05-08T04:41:29.002Z</time>
      </trkpt>
      <trkpt lat="45.03826" lon="5.53626">
        <ele>1102.7</ele>
        <time>2011-05-08T04:41:34Z</time>
      </trkpt>
      <trkpt lat="45.03804" lon="5.53603">
        <ele>1104.8</ele>
        <time>2011-05-08T04:41:39Z</time>
      </trkpt>
      <trkpt lat="45.03778" lon="5.53581">
        <ele>1104.7</ele>
        <time>2011-05-08T04:41:44Z</time>
      </trkpt>
      <trkpt lat="45.03753" lon="5.53558">
        <ele>1103.8</ele>
        <time>2011-05-08T04:41:49Z</time>
      </trkpt>
      <trkpt lat="45.03727" lon="5.53536">
        <ele>1102.1</ele>
        <time>2011-05-08T04:41:54Z</time>
      </trkpt>
      <trkpt lat="45.03707" lon="5.53515">
        <ele>1101.3</ele>
        <time>2011-05-08T04:41:59Z</time>
      </trkpt>
      <trkpt lat="45.03687" lon="5.5349">
        <ele>1099.5</ele>
        <time>2011-05-08T04:42:04Z</time>
      </trkpt>
      <trkpt lat="45.03672" lon="5.53461">
        <ele>1098.5</ele>
        <time>2011-05-08T04:42:09Z</time>
      </trkpt>
      <trkpt lat="45.03659" lon="5.53431">
        <ele>1097.8</ele>
        <time>2011-05-08T04:42:14.002Z</time>
      </trkpt>
      <trkpt lat="45.03647" lon="5.53405">
        <ele>1097.6</ele>
        <time>2011-05-08T04:42:18.995Z</time>
      </trkpt>
      <trkpt lat="45.03626" lon="5.5339">
        <ele>1096.6</ele>
        <time>2011-05-08T04:42:24.004Z</time>
      </trkpt>
      <trkpt lat="45.03604" lon="5.5338">
        <ele>1094.8</ele>
        <time>2011-05-08T04:42:28.997Z</time>
      </trkpt>
      <trkpt lat="45.03561" lon="5.5337">
        <ele>1092.6</ele>
        <time>2011-05-08T04:42:38.999Z</time>
      </trkpt>
      <trkpt lat="45.03538" lon="5.53364">
        <ele>1090.4</ele>
        <time>2011-05-08T04:42:44.004Z</time>
      </trkpt>
      <trkpt lat="45.03495" lon="5.53352">
        <ele>1086.6</ele>
        <time>2011-05-08T04:42:53.997Z</time>
      </trkpt>
      <trkpt lat="45.03473" lon="5.5334">
        <ele>1084.9</ele>
        <time>2011-05-08T04:42:59Z</time>
      </trkpt>
      <trkpt lat="45.0345" lon="5.53326">
        <ele>1083.4</ele>
        <time>2011-05-08T04:43:04Z</time>
      </trkpt>
      <trkpt lat="45.0343" lon="5.53311">
        <ele>1083.5</ele>
        <time>2011-05-08T04:43:09Z</time>
      </trkpt>
      <trkpt lat="45.0341" lon="5.53294">
        <ele>1085.5</ele>
        <time>2011-05-08T04:43:14.004Z</time>
      </trkpt>
      <trkpt lat="45.03393" lon="5.53277">
        <ele>1087.6</ele>
        <time>2011-05-08T04:43:18.997Z</time>
      </trkpt>
      <trkpt lat="45.03365" lon="5.53238">
        <ele>1087.1</ele>
        <time>2011-05-08T04:43:28.999Z</time>
      </trkpt>
      <trkpt lat="45.03349" lon="5.53188">
        <ele>1086.8</ele>
        <time>2011-05-08T04:43:39.000Z</time>
      </trkpt>
      <trkpt lat="45.03331" lon="5.53138">
        <ele>1087.2</ele>
        <time>2011-05-08T04:43:49.000Z</time>
      </trkpt>
      <trkpt lat="45.03299" lon="5.53142">
        <ele>1071.4</ele>
        <time>2011-05-08T04:44:54Z</time>
      </trkpt>
      <trkpt lat="45.03278" lon="5.53152">
        <ele>1071.5</ele>
        <time>2011-05-08T04:45:04.002Z</time>
      </trkpt>
      <trkpt lat="45.03256" lon="5.53133">
        <ele>1072</ele>
        <time>2011-05-08T04:45:14.000Z</time>
      </trkpt>
      <trkpt lat="45.03241" lon="5.53102">
        <ele>1073.6</ele>
        <time>2011-05-08T04:45:24Z</time>
      </trkpt>
      <trkpt lat="45.03224" lon="5.53081">
        <ele>1068.9</ele>
        <time>2011-05-08T04:45:29Z</time>
      </trkpt>
      <trkpt lat="45.03197" lon="5.53066">
        <ele>1068</ele>
        <time>2011-05-08T04:45:39Z</time>
      </trkpt>
      <trkpt lat="45.03172" lon="5.53058">
        <ele>1070.2</ele>
        <time>2011-05-08T04:45:49.000Z</time>
      </trkpt>
      <trkpt lat="45.0317" lon="5.53011">
        <ele>1097.7</ele>
        <time>2011-05-08T04:46:24Z</time>
      </trkpt>
      <trkpt lat="45.03159" lon="5.52986">
        <ele>1099.4</ele>
        <time>2011-05-08T04:46:29Z</time>
      </trkpt>
      <trkpt lat="45.03147" lon="5.52963">
        <ele>1102.1</ele>
        <time>2011-05-08T04:46:34Z</time>
      </trkpt>
      <trkpt lat="45.03132" lon="5.52944">
        <ele>1101.8</ele>
        <time>2011-05-08T04:46:38.995Z</time>
      </trkpt>
      <trkpt lat="45.03116" lon="5.52925">
        <ele>1098.6</ele>
        <time>2011-05-08T04:46:44Z</time>
      </trkpt>
      <trkpt lat="45.03103" lon="5.52902">
        <ele>1095.3</ele>
        <time>2011-05-08T04:46:49.002Z</time>
      </trkpt>
      <trkpt lat="45.03097" lon="5.52843">
        <ele>1094</ele>
        <time>2011-05-08T04:46:59.004Z</time>
      </trkpt>
      <trkpt lat="45.03087" lon="5.5279">
        <ele>1096.8</ele>
        <time>2011-05-08T04:47:09Z</time>
      </trkpt>
      <trkpt lat="45.03074" lon="5.52764">
        <ele>1102.6</ele>
        <time>2011-05-08T04:47:19Z</time>
      </trkpt>
      <trkpt lat="45.03045" lon="5.52766">
        <ele>1110.3</ele>
        <time>2011-05-08T04:47:54.002Z</time>
      </trkpt>
      <trkpt lat="45.03009" lon="5.52773">
        <ele>1107.9</ele>
        <time>2011-05-08T04:48:08.999Z</time>
      </trkpt>
      <trkpt lat="45.02973" lon="5.52777">
        <ele>1109.1</ele>
        <time>2011-05-08T04:48:24.002Z</time>
      </trkpt>
      <trkpt lat="45.02945" lon="5.52776">
        <ele>1110.3</ele>
        <time>2011-05-08T04:48:39Z</time>
      </trkpt>
      <trkpt lat="45.02924" lon="5.52763">
        <ele>1116.4</ele>
        <time>2011-05-08T04:48:54Z</time>
      </trkpt>
      <trkpt lat="45.02908" lon="5.52737">
        <ele>1118.4</ele>
        <time>2011-05-08T04:49:09.000Z</time>
      </trkpt>
      <trkpt lat="45.02885" lon="5.52714">
        <ele>1117</ele>
        <time>2011-05-08T04:49:24Z</time>
      </trkpt>
      <trkpt lat="45.02868" lon="5.52698">
        <ele>1116.2</ele>
        <time>2011-05-08T04:49:33.995Z</time>
      </trkpt>
      <trkpt lat="45.02847" lon="5.52685">
        <ele>1116.8</ele>
        <time>2011-05-08T04:49:44Z</time>
      </trkpt>
      <trkpt lat="45.02827" lon="5.52671">
        <ele>1114.5</ele>
        <time>2011-05-08T04:49:54Z</time>
      </trkpt>
      <trkpt lat="45.02805" lon="5.52646">
        <ele>1112.3</ele>
        <time>2011-05-08T04:50:08.995Z</time>
      </trkpt>
      <trkpt lat="45.02795" lon="5.52605">
        <ele>1113.2</ele>
        <time>2011-05-08T04:50:24.002Z</time>
      </trkpt>
      <trkpt lat="45.02795" lon="5.52564">
        <ele>1114.4</ele>
        <time>2011-05-08T04:50:38.999Z</time>
      </trkpt>
      <trkpt lat="45.02792" lon="5.52526">
        <ele>1118.4</ele>
        <time>2011-05-08T04:50:53.997Z</time>
      </trkpt>
      <trkpt lat="45.02788" lon="5.52466">
        <ele>1114.2</ele>
        <time>2011-05-08T04:51:14Z</time>
      </trkpt>
      <trkpt lat="45.02773" lon="5.52428">
        <ele>1112.4</ele>
        <time>2011-05-08T04:51:24Z</time>
      </trkpt>
      <trkpt lat="45.02761" lon="5.52386">
        <ele>1121.2</ele>
        <time>2011-05-08T04:51:34.004Z</time>
      </trkpt>
      <trkpt lat="45.02747" lon="5.52342">
        <ele>1127.9</ele>
        <time>2011-05-08T04:51:44Z</time>
      </trkpt>
      <trkpt lat="45.02728" lon="5.523">
        <ele>1126.7</ele>
        <time>2011-05-08T04:51:54.002Z</time>
      </trkpt>
      <trkpt lat="45.02712" lon="5.52254">
        <ele>1123.7</ele>
        <time>2011-05-08T04:52:04Z</time>
      </trkpt>
      <trkpt lat="45.02698" lon="5.52224">
        <ele>1122</ele>
        <time>2011-05-08T04:52:14.004Z</time>
      </trkpt>
      <trkpt lat="45.02665" lon="5.52215">
        <ele>1119</ele>
        <time>2011-05-08T04:52:28.997Z</time>
      </trkpt>
      <trkpt lat="45.0265" lon="5.52195">
        <ele>1119.2</ele>
        <time>2011-05-08T04:52:38.995Z</time>
      </trkpt>
      <trkpt lat="45.02625" lon="5.52172">
        <ele>1118</ele>
        <time>2011-05-08T04:52:53.997Z</time>
      </trkpt>
      <trkpt lat="45.02607" lon="5.52149">
        <ele>1118.7</ele>
        <time>2011-05-08T04:53:04.002Z</time>
      </trkpt>
      <trkpt lat="45.02588" lon="5.52129">
        <ele>1118.7</ele>
        <time>2011-05-08T04:53:13.999Z</time>
      </trkpt>
      <trkpt lat="45.02582" lon="5.52099">
        <ele>1121.1</ele>
        <time>2011-05-08T04:53:29.002Z</time>
      </trkpt>
      <trkpt lat="45.02597" lon="5.52076">
        <ele>1120.7</ele>
        <time>2011-05-08T04:53:39.000Z</time>
      </trkpt>
      <trkpt lat="45.02594" lon="5.52033">
        <ele>1128.9</ele>
        <time>2011-05-08T04:54:09.002Z</time>
      </trkpt>
      <trkpt lat="45.02578" lon="5.52006">
        <ele>1130.6</ele>
        <time>2011-05-08T04:54:24Z</time>
      </trkpt>
      <trkpt lat="45.02563" lon="5.5199">
        <ele>1134.7</ele>
        <time>2011-05-08T04:54:39Z</time>
      </trkpt>
      <trkpt lat="45.02544" lon="5.51975">
        <ele>1135.8</ele>
        <time>2011-05-08T04:55:04.000Z</time>
      </trkpt>
      <trkpt lat="45.02526" lon="5.51962">
        <ele>1136.5</ele>
        <time>2011-05-08T04:55:14.002Z</time>
      </trkpt>
      <trkpt lat="45.02513" lon="5.51936">
        <ele>1137.2</ele>
        <time>2011-05-08T04:55:29.002Z</time>
      </trkpt>
      <trkpt lat="45.02498" lon="5.51902">
        <ele>1146.9</ele>
        <time>2011-05-08T04:55:44Z</time>
      </trkpt>
      <trkpt lat="45.02484" lon="5.5188">
        <ele>1151.5</ele>
        <time>2011-05-08T04:55:59Z</time>
      </trkpt>
      <trkpt lat="45.02465" lon="5.51849">
        <ele>1151.2</ele>
        <time>2011-05-08T04:56:13.997Z</time>
      </trkpt>
      <trkpt lat="45.02459" lon="5.51803">
        <ele>1149</ele>
        <time>2011-05-08T04:56:23.997Z</time>
      </trkpt>
      <trkpt lat="45.02447" lon="5.51774">
        <ele>1145.8</ele>
        <time>2011-05-08T04:56:34.002Z</time>
      </trkpt>
      <trkpt lat="45.02432" lon="5.51754">
        <ele>1151.1</ele>
        <time>2011-05-08T05:02:04Z</time>
      </trkpt>
      <trkpt lat="45.02456" lon="5.5176">
        <ele>1146.8</ele>
        <time>2011-05-08T05:02:18.997Z</time>
      </trkpt>
      <trkpt lat="45.02479" lon="5.51785">
        <ele>1147.4</ele>
        <time>2011-05-08T05:02:29.004Z</time>
      </trkpt>
      <trkpt lat="45.02509" lon="5.51796">
        <ele>1142.8</ele>
        <time>2011-05-08T05:02:38.999Z</time>
      </trkpt>
      <trkpt lat="45.02489" lon="5.5178">
        <ele>1140.1</ele>
        <time>2011-05-08T05:02:54Z</time>
      </trkpt>
      <trkpt lat="45.02467" lon="5.51768">
        <ele>1153.8</ele>
        <time>2011-05-08T05:03:09.000Z</time>
      </trkpt>
      <trkpt lat="45.02447" lon="5.51749">
        <ele>1160.3</ele>
        <time>2011-05-08T05:03:24.004Z</time>
      </trkpt>
      <trkpt lat="45.02429" lon="5.51732">
        <ele>1161</ele>
        <time>2011-05-08T05:03:39.002Z</time>
      </trkpt>
      <trkpt lat="45.02414" lon="5.51705">
        <ele>1162.1</ele>
        <time>2011-05-08T05:03:54Z</time>
      </trkpt>
      <trkpt lat="45.02402" lon="5.51676">
        <ele>1167.2</ele>
        <time>2011-05-08T05:04:09Z</time>
      </trkpt>
      <trkpt lat="45.02392" lon="5.51648">
        <ele>1170.4</ele>
        <time>2011-05-08T05:04:24Z</time>
      </trkpt>
      <trkpt lat="45.02398" lon="5.51609">
        <ele>1170.5</ele>
        <time>2011-05-08T05:04:53.997Z</time>
      </trkpt>
      <trkpt lat="45.02427" lon="5.51595">
        <ele>1172.7</ele>
        <time>2011-05-08T05:05:14.002Z</time>
      </trkpt>
      <trkpt lat="45.0245" lon="5.51581">
        <ele>1177</ele>
        <time>2011-05-08T05:05:28.997Z</time>
      </trkpt>
      <trkpt lat="45.02469" lon="5.51566">
        <ele>1180.9</ele>
        <time>2011-05-08T05:05:44Z</time>
      </trkpt>
      <trkpt lat="45.02488" lon="5.51534">
        <ele>1183.1</ele>
        <time>2011-05-08T05:07:29Z</time>
      </trkpt>
      <trkpt lat="45.0251" lon="5.51548">
        <ele>1173.3</ele>
        <time>2011-05-08T05:16:04Z</time>
      </trkpt>
      <trkpt lat="45.02544" lon="5.51537">
        <ele>1178</ele>
        <time>2011-05-08T05:16:24Z</time>
      </trkpt>
      <trkpt lat="45.02572" lon="5.51525">
        <ele>1182</ele>
        <time>2011-05-08T05:16:39Z</time>
      </trkpt>
      <trkpt lat="45.02594" lon="5.5151">
        <ele>1193.7</ele>
        <time>2011-05-08T05:16:54Z</time>
      </trkpt>
      <trkpt lat="45.02619" lon="5.51504">
        <ele>1204.5</ele>
        <time>2011-05-08T05:17:09Z</time>
      </trkpt>
      <trkpt lat="45.02648" lon="5.51493">
        <ele>1208.8</ele>
        <time>2011-05-08T05:17:24Z</time>
      </trkpt>
      <trkpt lat="45.02669" lon="5.51473">
        <ele>1207.5</ele>
        <time>2011-05-08T05:17:39Z</time>
      </trkpt>
      <trkpt lat="45.02691" lon="5.5145">
        <ele>1200.8</ele>
        <time>2011-05-08T05:17:54Z</time>
      </trkpt>
      <trkpt lat="45.02707" lon="5.51417">
        <ele>1206.9</ele>
        <time>2011-05-08T05:18:09.000Z</time>
      </trkpt>
      <trkpt lat="45.02733" lon="5.51381">
        <ele>1205.7</ele>
        <time>2011-05-08T05:18:34Z</time>
      </trkpt>
      <trkpt lat="45.0275" lon="5.5136">
        <ele>1206.1</ele>
        <time>2011-05-08T05:18:44Z</time>
      </trkpt>
      <trkpt lat="45.02769" lon="5.51323">
        <ele>1202</ele>
        <time>2011-05-08T05:18:54Z</time>
      </trkpt>
      <trkpt lat="45.02779" lon="5.51299">
        <ele>1200.3</ele>
        <time>2011-05-08T05:18:59Z</time>
      </trkpt>
      <trkpt lat="45.02791" lon="5.51273">
        <ele>1201.9</ele>
        <time>2011-05-08T05:19:09Z</time>
      </trkpt>
      <trkpt lat="45.028" lon="5.51237">
        <ele>1203.3</ele>
        <time>2011-05-08T05:19:19Z</time>
      </trkpt>
      <trkpt lat="45.02814" lon="5.51209">
        <ele>1201</ele>
        <time>2011-05-08T05:19:29Z</time>
      </trkpt>
      <trkpt lat="45.02842" lon="5.51192">
        <ele>1210.2</ele>
        <time>2011-05-08T05:19:44Z</time>
      </trkpt>
      <trkpt lat="45.02872" lon="5.51178">
        <ele>1216.7</ele>
        <time>2011-05-08T05:19:59Z</time>
      </trkpt>
      <trkpt lat="45.0289" lon="5.51161">
        <ele>1225.1</ele>
        <time>2011-05-08T05:20:09Z</time>
      </trkpt>
      <trkpt lat="45.0291" lon="5.51144">
        <ele>1230.8</ele>
        <time>2011-05-08T05:20:19Z</time>
      </trkpt>
      <trkpt lat="45.02929" lon="5.51122">
        <ele>1236.6</ele>
        <time>2011-05-08T05:20:29Z</time>
      </trkpt>
      <trkpt lat="45.02945" lon="5.51099">
        <ele>1233.9</ele>
        <time>2011-05-08T05:20:39Z</time>
      </trkpt>
      <trkpt lat="45.02959" lon="5.51066">
        <ele>1225.6</ele>
        <time>2011-05-08T05:20:49Z</time>
      </trkpt>
      <trkpt lat="45.02972" lon="5.51037">
        <ele>1217.4</ele>
        <time>2011-05-08T05:20:59Z</time>
      </trkpt>
      <trkpt lat="45.02985" lon="5.51005">
        <ele>1206.3</ele>
        <time>2011-05-08T05:21:59Z</time>
      </trkpt>
      <trkpt lat="45.0297" lon="5.50986">
        <ele>1244.9</ele>
        <time>2011-05-08T05:31:39Z</time>
      </trkpt>
      <trkpt lat="45.02978" lon="5.50939">
        <ele>1281.3</ele>
        <time>2011-05-08T05:35:54Z</time>
      </trkpt>
      <trkpt lat="45.03011" lon="5.5092">
        <ele>1253.1</ele>
        <time>2011-05-08T05:36:04Z</time>
      </trkpt>
      <trkpt lat="45.0304" lon="5.50929">
        <ele>1225.4</ele>
        <time>2011-05-08T05:36:18.997Z</time>
      </trkpt>
      <trkpt lat="45.03064" lon="5.50913">
        <ele>1210.1</ele>
        <time>2011-05-08T05:36:34Z</time>
      </trkpt>
      <trkpt lat="45.03081" lon="5.50898">
        <ele>1206.4</ele>
        <time>2011-05-08T05:36:44Z</time>
      </trkpt>
      <trkpt lat="45.03104" lon="5.50878">
        <ele>1208.8</ele>
        <time>2011-05-08T05:36:59Z</time>
      </trkpt>
      <trkpt lat="45.03133" lon="5.50868">
        <ele>1207.2</ele>
        <time>2011-05-08T05:37:14.002Z</time>
      </trkpt>
      <trkpt lat="45.03165" lon="5.50863">
        <ele>1215.6</ele>
        <time>2011-05-08T05:37:39Z</time>
      </trkpt>
      <trkpt lat="45.03173" lon="5.50819">
        <ele>1232.6</ele>
        <time>2011-05-08T05:37:54Z</time>
      </trkpt>
      <trkpt lat="45.0319" lon="5.50785">
        <ele>1242.1</ele>
        <time>2011-05-08T05:38:09Z</time>
      </trkpt>
      <trkpt lat="45.03216" lon="5.50773">
        <ele>1223.2</ele>
        <time>2011-05-08T05:38:24Z</time>
      </trkpt>
      <trkpt lat="45.03245" lon="5.50775">
        <ele>1212.2</ele>
        <time>2011-05-08T05:38:39Z</time>
      </trkpt>
      <trkpt lat="45.0328" lon="5.50776">
        <ele>1211.7</ele>
        <time>2011-05-08T05:38:58.997Z</time>
      </trkpt>
      <trkpt lat="45.03307" lon="5.50784">
        <ele>1216.1</ele>
        <time>2011-05-08T05:39:14Z</time>
      </trkpt>
      <trkpt lat="45.0334" lon="5.50785">
        <ele>1214.5</ele>
        <time>2011-05-08T05:39:34Z</time>
      </trkpt>
      <trkpt lat="45.03365" lon="5.5077">
        <ele>1226.9</ele>
        <time>2011-05-08T05:39:54Z</time>
      </trkpt>
      <trkpt lat="45.03398" lon="5.50768">
        <ele>1230.6</ele>
        <time>2011-05-08T05:40:14Z</time>
      </trkpt>
      <trkpt lat="45.03426" lon="5.50776">
        <ele>1239.5</ele>
        <time>2011-05-08T05:40:34Z</time>
      </trkpt>
      <trkpt lat="45.03453" lon="5.508">
        <ele>1228.1</ele>
        <time>2011-05-08T05:41:19Z</time>
      </trkpt>
      <trkpt lat="45.03478" lon="5.50812">
        <ele>1234</ele>
        <time>2011-05-08T05:41:29Z</time>
      </trkpt>
      <trkpt lat="45.03514" lon="5.50817">
        <ele>1227.2</ele>
        <time>2011-05-08T05:41:39.004Z</time>
      </trkpt>
      <trkpt lat="45.03538" lon="5.50829">
        <ele>1220</ele>
        <time>2011-05-08T05:41:49Z</time>
      </trkpt>
      <trkpt lat="45.03571" lon="5.50828">
        <ele>1214.7</ele>
        <time>2011-05-08T05:42:09Z</time>
      </trkpt>
      <trkpt lat="45.036" lon="5.50822">
        <ele>1212.9</ele>
        <time>2011-05-08T05:42:24Z</time>
      </trkpt>
      <trkpt lat="45.03627" lon="5.50816">
        <ele>1210.8</ele>
        <time>2011-05-08T05:42:39Z</time>
      </trkpt>
      <trkpt lat="45.03655" lon="5.50821">
        <ele>1214.2</ele>
        <time>2011-05-08T05:42:54.002Z</time>
      </trkpt>
      <trkpt lat="45.03675" lon="5.50795">
        <ele>1243.1</ele>
        <time>2011-05-08T05:44:24.002Z</time>
      </trkpt>
      <trkpt lat="45.03683" lon="5.50828">
        <ele>1215.3</ele>
        <time>2011-05-08T05:52:49Z</time>
      </trkpt>
      <trkpt lat="45.03707" lon="5.50838">
        <ele>1227.6</ele>
        <time>2011-05-08T05:58:04Z</time>
      </trkpt>
      <trkpt lat="45.03736" lon="5.50851">
        <ele>1237.5</ele>
        <time>2011-05-08T05:58:19Z</time>
      </trkpt>
      <trkpt lat="45.03764" lon="5.50887">
        <ele>1238.4</ele>
        <time>2011-05-08T05:58:29Z</time>
      </trkpt>
      <trkpt lat="45.0379" lon="5.50902">
        <ele>1238.1</ele>
        <time>2011-05-08T05:58:39Z</time>
      </trkpt>
      <trkpt lat="45.03823" lon="5.50902">
        <ele>1231.5</ele>
        <time>2011-05-08T05:58:54Z</time>
      </trkpt>
      <trkpt lat="45.03847" lon="5.50896">
        <ele>1233.7</ele>
        <time>2011-05-08T05:59:04Z</time>
      </trkpt>
      <trkpt lat="45.0387" lon="5.50903">
        <ele>1239</ele>
        <time>2011-05-08T05:59:14Z</time>
      </trkpt>
      <trkpt lat="45.03899" lon="5.50904">
        <ele>1249.6</ele>
        <time>2011-05-08T05:59:24Z</time>
      </trkpt>
      <trkpt lat="45.03926" lon="5.50921">
        <ele>1257</ele>
        <time>2011-05-08T05:59:34Z</time>
      </trkpt>
      <trkpt lat="45.03953" lon="5.50912">
        <ele>1256.7</ele>
        <time>2011-05-08T05:59:44Z</time>
      </trkpt>
      <trkpt lat="45.03968" lon="5.50896">
        <ele>1257</ele>
        <time>2011-05-08T05:59:49Z</time>
      </trkpt>
      <trkpt lat="45.0399" lon="5.50881">
        <ele>1254.4</ele>
        <time>2011-05-08T05:59:54Z</time>
      </trkpt>
      <trkpt lat="45.0402" lon="5.50892">
        <ele>1241.3</ele>
        <time>2011-05-08T06:00:04Z</time>
      </trkpt>
      <trkpt lat="45.04056" lon="5.50919">
        <ele>1234.1</ele>
        <time>2011-05-08T06:00:14Z</time>
      </trkpt>
      <trkpt lat="45.04083" lon="5.5095">
        <ele>1224</ele>
        <time>2011-05-08T06:00:24Z</time>
      </trkpt>
      <trkpt lat="45.04115" lon="5.50958">
        <ele>1223</ele>
        <time>2011-05-08T06:00:34Z</time>
      </trkpt>
      <trkpt lat="45.0415" lon="5.50971">
        <ele>1230.6</ele>
        <time>2011-05-08T06:00:44Z</time>
      </trkpt>
      <trkpt lat="45.04184" lon="5.50998">
        <ele>1236.7</ele>
        <time>2011-05-08T06:00:54Z</time>
      </trkpt>
      <trkpt lat="45.04221" lon="5.51013">
        <ele>1244.9</ele>
        <time>2011-05-08T06:01:04Z</time>
      </trkpt>
      <trkpt lat="45.04265" lon="5.51043">
        <ele>1237.8</ele>
        <time>2011-05-08T06:01:14Z</time>
      </trkpt>
      <trkpt lat="45.0431" lon="5.51055">
        <ele>1253.9</ele>
        <time>2011-05-08T06:01:24Z</time>
      </trkpt>
      <trkpt lat="45.04351" lon="5.51065">
        <ele>1261.3</ele>
        <time>2011-05-08T06:01:34Z</time>
      </trkpt>
      <trkpt lat="45.04375" lon="5.51079">
        <ele>1257.8</ele>
        <time>2011-05-08T06:01:39Z</time>
      </trkpt>
      <trkpt lat="45.04407" lon="5.51086">
        <ele>1254.6</ele>
        <time>2011-05-08T06:01:44Z</time>
      </trkpt>
      <trkpt lat="45.0444" lon="5.51092">
        <ele>1247.9</ele>
        <time>2011-05-08T06:01:49Z</time>
      </trkpt>
      <trkpt lat="45.04475" lon="5.51107">
        <ele>1243.7</ele>
        <time>2011-05-08T06:01:54Z</time>
      </trkpt>
      <trkpt lat="45.04508" lon="5.51103">
        <ele>1252.7</ele>
        <time>2011-05-08T06:01:59Z</time>
      </trkpt>
      <trkpt lat="45.04544" lon="5.5109">
        <ele>1266.4</ele>
        <time>2011-05-08T06:02:04Z</time>
      </trkpt>
      <trkpt lat="45.04584" lon="5.51084">
        <ele>1268.6</ele>
        <time>2011-05-08T06:02:09Z</time>
      </trkpt>
      <trkpt lat="45.0461" lon="5.51117">
        <ele>1258.6</ele>
        <time>2011-05-08T06:02:14Z</time>
      </trkpt>
      <trkpt lat="45.04634" lon="5.5115">
        <ele>1229</ele>
        <time>2011-05-08T06:02:24Z</time>
      </trkpt>
      <trkpt lat="45.04671" lon="5.51166">
        <ele>1208.7</ele>
        <time>2011-05-08T06:02:34Z</time>
      </trkpt>
      <trkpt lat="45.04704" lon="5.51173">
        <ele>1175.1</ele>
        <time>2011-05-08T06:03:29Z</time>
      </trkpt>
      <trkpt lat="45.04736" lon="5.51197">
        <ele>1211.9</ele>
        <time>2011-05-08T06:06:39Z</time>
      </trkpt>
      <trkpt lat="45.04762" lon="5.51203">
        <ele>1214.1</ele>
        <time>2011-05-08T06:06:44Z</time>
      </trkpt>
      <trkpt lat="45.04793" lon="5.51193">
        <ele>1218.6</ele>
        <time>2011-05-08T06:06:49Z</time>
      </trkpt>
      <trkpt lat="45.04832" lon="5.51175">
        <ele>1220.5</ele>
        <time>2011-05-08T06:06:54Z</time>
      </trkpt>
      <trkpt lat="45.04869" lon="5.51166">
        <ele>1219.3</ele>
        <time>2011-05-08T06:06:59Z</time>
      </trkpt>
      <trkpt lat="45.04901" lon="5.51167">
        <ele>1219.9</ele>
        <time>2011-05-08T06:07:04Z</time>
      </trkpt>
      <trkpt lat="45.04929" lon="5.51202">
        <ele>1213.5</ele>
        <time>2011-05-08T06:07:09Z</time>
      </trkpt>
      <trkpt lat="45.04958" lon="5.51229">
        <ele>1205.1</ele>
        <time>2011-05-08T06:07:14Z</time>
      </trkpt>
      <trkpt lat="45.0499" lon="5.51223">
        <ele>1197.7</ele>
        <time>2011-05-08T06:07:19Z</time>
      </trkpt>
      <trkpt lat="45.05016" lon="5.51223">
        <ele>1192.1</ele>
        <time>2011-05-08T06:07:24Z</time>
      </trkpt>
      <trkpt lat="45.05034" lon="5.51276">
        <ele>1182.6</ele>
        <time>2011-05-08T06:07:34Z</time>
      </trkpt>
      <trkpt lat="45.05028" lon="5.51308">
        <ele>1182.1</ele>
        <time>2011-05-08T06:07:39Z</time>
      </trkpt>
      <trkpt lat="45.05031" lon="5.51342">
        <ele>1181.9</ele>
        <time>2011-05-08T06:07:44Z</time>
      </trkpt>
      <trkpt lat="45.05048" lon="5.51374">
        <ele>1180.9</ele>
        <time>2011-05-08T06:07:49Z</time>
      </trkpt>
      <trkpt lat="45.05073" lon="5.51395">
        <ele>1181</ele>
        <time>2011-05-08T06:07:54Z</time>
      </trkpt>
      <trkpt lat="45.051" lon="5.5139">
        <ele>1189.6</ele>
        <time>2011-05-08T06:07:59Z</time>
      </trkpt>
      <trkpt lat="45.05129" lon="5.51376">
        <ele>1199.4</ele>
        <time>2011-05-08T06:08:04Z</time>
      </trkpt>
      <trkpt lat="45.05159" lon="5.51353">
        <ele>1202.7</ele>
        <time>2011-05-08T06:08:09Z</time>
      </trkpt>
      <trkpt lat="45.05162" lon="5.51401">
        <ele>1200.6</ele>
        <time>2011-05-08T06:08:24Z</time>
      </trkpt>
      <trkpt lat="45.05172" lon="5.51428">
        <ele>1195.9</ele>
        <time>2011-05-08T06:08:29Z</time>
      </trkpt>
      <trkpt lat="45.05199" lon="5.51446">
        <ele>1198.2</ele>
        <time>2011-05-08T06:08:34Z</time>
      </trkpt>
      <trkpt lat="45.05241" lon="5.5145">
        <ele>1200.6</ele>
        <time>2011-05-08T06:08:39Z</time>
      </trkpt>
      <trkpt lat="45.05279" lon="5.51445">
        <ele>1195.7</ele>
        <time>2011-05-08T06:08:44Z</time>
      </trkpt>
      <trkpt lat="45.05302" lon="5.51467">
        <ele>1188.5</ele>
        <time>2011-05-08T06:08:49Z</time>
      </trkpt>
      <trkpt lat="45.05319" lon="5.51513">
        <ele>1180.6</ele>
        <time>2011-05-08T06:08:54Z</time>
      </trkpt>
      <trkpt lat="45.05353" lon="5.51528">
        <ele>1171.7</ele>
        <time>2011-05-08T06:08:59Z</time>
      </trkpt>
      <trkpt lat="45.0539" lon="5.51514">
        <ele>1162</ele>
        <time>2011-05-08T06:09:04Z</time>
      </trkpt>
      <trkpt lat="45.05429" lon="5.51533">
        <ele>1157.5</ele>
        <time>2011-05-08T06:09:09Z</time>
      </trkpt>
      <trkpt lat="45.0547" lon="5.51557">
        <ele>1152.7</ele>
        <time>2011-05-08T06:09:14Z</time>
      </trkpt>
      <trkpt lat="45.05526" lon="5.51602">
        <ele>1145</ele>
        <time>2011-05-08T06:09:24Z</time>
      </trkpt>
      <trkpt lat="45.0554" lon="5.51634">
        <ele>1139.5</ele>
        <time>2011-05-08T06:09:29Z</time>
      </trkpt>
      <trkpt lat="45.05557" lon="5.51668">
        <ele>1134.6</ele>
        <time>2011-05-08T06:09:34Z</time>
      </trkpt>
      <trkpt lat="45.05577" lon="5.51701">
        <ele>1131.6</ele>
        <time>2011-05-08T06:09:39Z</time>
      </trkpt>
      <trkpt lat="45.05591" lon="5.51732">
        <ele>1128</ele>
        <time>2011-05-08T06:09:44Z</time>
      </trkpt>
      <trkpt lat="45.0559" lon="5.51785">
        <ele>1126.1</ele>
        <time>2011-05-08T06:09:54Z</time>
      </trkpt>
      <trkpt lat="45.05585" lon="5.51819">
        <ele>1129</ele>
        <time>2011-05-08T06:09:59Z</time>
      </trkpt>
      <trkpt lat="45.0559" lon="5.51953">
        <ele>1142.8</ele>
        <time>2011-05-08T06:10:24Z</time>
      </trkpt>
      <trkpt lat="45.05605" lon="5.52021">
        <ele>1150.4</ele>
        <time>2011-05-08T06:10:39Z</time>
      </trkpt>
      <trkpt lat="45.05614" lon="5.52048">
        <ele>1145.7</ele>
        <time>2011-05-08T06:10:44Z</time>
      </trkpt>
      <trkpt lat="45.05626" lon="5.52076">
        <ele>1140</ele>
        <time>2011-05-08T06:10:49Z</time>
      </trkpt>
      <trkpt lat="45.05637" lon="5.52109">
        <ele>1131</ele>
        <time>2011-05-08T06:10:54Z</time>
      </trkpt>
      <trkpt lat="45.0565" lon="5.5214">
        <ele>1123.1</ele>
        <time>2011-05-08T06:10:59Z</time>
      </trkpt>
      <trkpt lat="45.05663" lon="5.52161">
        <ele>1117.3</ele>
        <time>2011-05-08T06:11:04Z</time>
      </trkpt>
      <trkpt lat="45.05684" lon="5.52177">
        <ele>1116.8</ele>
        <time>2011-05-08T06:11:09Z</time>
      </trkpt>
      <trkpt lat="45.05707" lon="5.5219">
        <ele>1120.9</ele>
        <time>2011-05-08T06:11:14Z</time>
      </trkpt>
      <trkpt lat="45.05729" lon="5.52201">
        <ele>1127.2</ele>
        <time>2011-05-08T06:11:19Z</time>
      </trkpt>
      <trkpt lat="45.05752" lon="5.52212">
        <ele>1130.4</ele>
        <time>2011-05-08T06:11:24Z</time>
      </trkpt>
      <trkpt lat="45.05774" lon="5.52219">
        <ele>1135</ele>
        <time>2011-05-08T06:11:29Z</time>
      </trkpt>
      <trkpt lat="45.05819" lon="5.5223">
        <ele>1141</ele>
        <time>2011-05-08T06:11:39Z</time>
      </trkpt>
      <trkpt lat="45.05844" lon="5.52242">
        <ele>1142</ele>
        <time>2011-05-08T06:11:44Z</time>
      </trkpt>
      <trkpt lat="45.05868" lon="5.52256">
        <ele>1142</ele>
        <time>2011-05-08T06:11:49Z</time>
      </trkpt>
      <trkpt lat="45.05893" lon="5.52272">
        <ele>1136.6</ele>
        <time>2011-05-08T06:11:54Z</time>
      </trkpt>
      <trkpt lat="45.05916" lon="5.52283">
        <ele>1133.8</ele>
        <time>2011-05-08T06:11:59Z</time>
      </trkpt>
      <trkpt lat="45.05937" lon="5.52291">
        <ele>1132.6</ele>
        <time>2011-05-08T06:12:04Z</time>
      </trkpt>
      <trkpt lat="45.05974" lon="5.52296">
        <ele>1133.6</ele>
        <time>2011-05-08T06:12:14.002Z</time>
      </trkpt>
      <trkpt lat="45.06007" lon="5.52271">
        <ele>1134.6</ele>
        <time>2011-05-08T06:12:34Z</time>
      </trkpt>
      <trkpt lat="45.06032" lon="5.52292">
        <ele>1137.9</ele>
        <time>2011-05-08T06:12:48.997Z</time>
      </trkpt>
      <trkpt lat="45.06051" lon="5.52311">
        <ele>1134.2</ele>
        <time>2011-05-08T06:12:58.999Z</time>
      </trkpt>
      <trkpt lat="45.06065" lon="5.5234">
        <ele>1103.3</ele>
        <time>2011-05-08T06:14:23.999Z</time>
      </trkpt>
      <trkpt lat="45.06095" lon="5.52365">
        <ele>1115.7</ele>
        <time>2011-05-08T06:14:53.997Z</time>
      </trkpt>
      <trkpt lat="45.06115" lon="5.52383">
        <ele>1112.7</ele>
        <time>2011-05-08T06:14:59Z</time>
      </trkpt>
      <trkpt lat="45.06142" lon="5.52384">
        <ele>1113.2</ele>
        <time>2011-05-08T06:15:04Z</time>
      </trkpt>
      <trkpt lat="45.0617" lon="5.5238">
        <ele>1116.4</ele>
        <time>2011-05-08T06:15:09Z</time>
      </trkpt>
      <trkpt lat="45.06196" lon="5.52383">
        <ele>1120.7</ele>
        <time>2011-05-08T06:15:14Z</time>
      </trkpt>
      <trkpt lat="45.06222" lon="5.52359">
        <ele>1119</ele>
        <time>2011-05-08T06:15:24Z</time>
      </trkpt>
      <trkpt lat="45.06232" lon="5.52335">
        <ele>1117.9</ele>
        <time>2011-05-08T06:15:29Z</time>
      </trkpt>
      <trkpt lat="45.06234" lon="5.52284">
        <ele>1115.9</ele>
        <time>2011-05-08T06:15:39.002Z</time>
      </trkpt>
      <trkpt lat="45.06216" lon="5.52266">
        <ele>1112.4</ele>
        <time>2011-05-08T06:20:24.004Z</time>
      </trkpt>
      <trkpt lat="45.06196" lon="5.52231">
        <ele>1112.4</ele>
        <time>2011-05-08T06:23:39Z</time>
      </trkpt>
      <trkpt lat="45.06188" lon="5.52196">
        <ele>1110.6</ele>
        <time>2011-05-08T06:23:49.000Z</time>
      </trkpt>
      <trkpt lat="45.06221" lon="5.52203">
        <ele>1108</ele>
        <time>2011-05-08T06:24:04.000Z</time>
      </trkpt>
      <trkpt lat="45.06249" lon="5.52205">
        <ele>1106.8</ele>
        <time>2011-05-08T06:24:14Z</time>
      </trkpt>
      <trkpt lat="45.06277" lon="5.52215">
        <ele>1106.5</ele>
        <time>2011-05-08T06:24:23.997Z</time>
      </trkpt>
      <trkpt lat="45.06308" lon="5.52222">
        <ele>1106.7</ele>
        <time>2011-05-08T06:24:39Z</time>
      </trkpt>
      <trkpt lat="45.06336" lon="5.52225">
        <ele>1099.5</ele>
        <time>2011-05-08T06:25:04Z</time>
      </trkpt>
      <trkpt lat="45.06357" lon="5.52211">
        <ele>1100.1</ele>
        <time>2011-05-08T06:25:13.999Z</time>
      </trkpt>
      <trkpt lat="45.0639" lon="5.52209">
        <ele>1102.4</ele>
        <time>2011-05-08T06:25:29Z</time>
      </trkpt>
      <trkpt lat="45.0642" lon="5.52216">
        <ele>1108.7</ele>
        <time>2011-05-08T06:25:44Z</time>
      </trkpt>
      <trkpt lat="45.06457" lon="5.52204">
        <ele>1109.1</ele>
        <time>2011-05-08T06:25:59Z</time>
      </trkpt>
      <trkpt lat="45.06485" lon="5.52186">
        <ele>1106.7</ele>
        <time>2011-05-08T06:26:14Z</time>
      </trkpt>
      <trkpt lat="45.06508" lon="5.52178">
        <ele>1105.7</ele>
        <time>2011-05-08T06:26:24Z</time>
      </trkpt>
      <trkpt lat="45.06539" lon="5.52176">
        <ele>1109.5</ele>
        <time>2011-05-08T06:26:39Z</time>
      </trkpt>
      <trkpt lat="45.0657" lon="5.52176">
        <ele>1112.2</ele>
        <time>2011-05-08T06:27:14Z</time>
      </trkpt>
      <trkpt lat="45.06593" lon="5.52167">
        <ele>1107.7</ele>
        <time>2011-05-08T06:27:24Z</time>
      </trkpt>
      <trkpt lat="45.06649" lon="5.52168">
        <ele>1093.7</ele>
        <time>2011-05-08T06:29:44Z</time>
      </trkpt>
      <trkpt lat="45.06661" lon="5.522">
        <ele>1095.5</ele>
        <time>2011-05-08T06:30:09Z</time>
      </trkpt>
      <trkpt lat="45.06661" lon="5.52247">
        <ele>1101.4</ele>
        <time>2011-05-08T06:30:34Z</time>
      </trkpt>
      <trkpt lat="45.0668" lon="5.5227">
        <ele>1113.2</ele>
        <time>2011-05-08T06:30:54Z</time>
      </trkpt>
      <trkpt lat="45.06698" lon="5.52288">
        <ele>1109.9</ele>
        <time>2011-05-08T06:31:04Z</time>
      </trkpt>
      <trkpt lat="45.06718" lon="5.523">
        <ele>1108.6</ele>
        <time>2011-05-08T06:31:14Z</time>
      </trkpt>
      <trkpt lat="45.06759" lon="5.5232">
        <ele>1106.3</ele>
        <time>2011-05-08T06:31:34Z</time>
      </trkpt>
      <trkpt lat="45.06787" lon="5.52323">
        <ele>1104.1</ele>
        <time>2011-05-08T06:34:59Z</time>
      </trkpt>
      <trkpt lat="45.06823" lon="5.52315">
        <ele>1091.1</ele>
        <time>2011-05-08T06:35:14Z</time>
      </trkpt>
      <trkpt lat="45.06861" lon="5.52298">
        <ele>1080.6</ele>
        <time>2011-05-08T06:35:29Z</time>
      </trkpt>
      <trkpt lat="45.06892" lon="5.52298">
        <ele>1075.8</ele>
        <time>2011-05-08T06:35:44Z</time>
      </trkpt>
      <trkpt lat="45.06907" lon="5.52317">
        <ele>1076.5</ele>
        <time>2011-05-08T06:35:59Z</time>
      </trkpt>
      <trkpt lat="45.06942" lon="5.52357">
        <ele>1089</ele>
        <time>2011-05-08T06:36:44Z</time>
      </trkpt>
      <trkpt lat="45.06969" lon="5.52371">
        <ele>1086.3</ele>
        <time>2011-05-08T06:36:54Z</time>
      </trkpt>
      <trkpt lat="45.06992" lon="5.52377">
        <ele>1083.1</ele>
        <time>2011-05-08T06:37:03.997Z</time>
      </trkpt>
      <trkpt lat="45.07019" lon="5.52383">
        <ele>1079.5</ele>
        <time>2011-05-08T06:37:19.002Z</time>
      </trkpt>
      <trkpt lat="45.07051" lon="5.52396">
        <ele>1069.1</ele>
        <time>2011-05-08T06:37:33.999Z</time>
      </trkpt>
      <trkpt lat="45.07081" lon="5.52399">
        <ele>1059.3</ele>
        <time>2011-05-08T06:37:44Z</time>
      </trkpt>
      <trkpt lat="45.07107" lon="5.52404">
        <ele>1053.5</ele>
        <time>2011-05-08T06:37:53.999Z</time>
      </trkpt>
      <trkpt lat="45.07133" lon="5.5241">
        <ele>1047.1</ele>
        <time>2011-05-08T06:38:09Z</time>
      </trkpt>
      <trkpt lat="45.07151" lon="5.52423">
        <ele>1047.4</ele>
        <time>2011-05-08T06:38:24.000Z</time>
      </trkpt>
      <trkpt lat="45.07172" lon="5.52438">
        <ele>1051.3</ele>
        <time>2011-05-08T06:38:39Z</time>
      </trkpt>
      <trkpt lat="45.07191" lon="5.52455">
        <ele>1045.2</ele>
        <time>2011-05-08T06:38:53.999Z</time>
      </trkpt>
      <trkpt lat="45.07211" lon="5.5247">
        <ele>1039.8</ele>
        <time>2011-05-08T06:39:09Z</time>
      </trkpt>
      <trkpt lat="45.07239" lon="5.52462">
        <ele>1051.6</ele>
        <time>2011-05-08T06:39:29Z</time>
      </trkpt>
      <trkpt lat="45.0726" lon="5.5245">
        <ele>1053.9</ele>
        <time>2011-05-08T06:39:49Z</time>
      </trkpt>
      <trkpt lat="45.0728" lon="5.52435">
        <ele>1057.5</ele>
        <time>2011-05-08T06:40:09.000Z</time>
      </trkpt>
      <trkpt lat="45.07313" lon="5.52439">
        <ele>1054.6</ele>
        <time>2011-05-08T06:40:24.000Z</time>
      </trkpt>
      <trkpt lat="45.07343" lon="5.52446">
        <ele>1052.9</ele>
        <time>2011-05-08T06:40:34Z</time>
      </trkpt>
      <trkpt lat="45.07381" lon="5.52444">
        <ele>1037.4</ele>
        <time>2011-05-08T06:41:54.002Z</time>
      </trkpt>
      <trkpt lat="45.07409" lon="5.52431">
        <ele>1034</ele>
        <time>2011-05-08T06:41:59.002Z</time>
      </trkpt>
      <trkpt lat="45.07448" lon="5.52433">
        <ele>1037.8</ele>
        <time>2011-05-08T06:42:09Z</time>
      </trkpt>
      <trkpt lat="45.07474" lon="5.52438">
        <ele>1039.9</ele>
        <time>2011-05-08T06:42:14Z</time>
      </trkpt>
      <trkpt lat="45.07511" lon="5.52441">
        <ele>1042.2</ele>
        <time>2011-05-08T06:42:19Z</time>
      </trkpt>
      <trkpt lat="45.07552" lon="5.52441">
        <ele>1042.2</ele>
        <time>2011-05-08T06:42:24Z</time>
      </trkpt>
      <trkpt lat="45.07594" lon="5.5243">
        <ele>1041.2</ele>
        <time>2011-05-08T06:42:29Z</time>
      </trkpt>
      <trkpt lat="45.07638" lon="5.52418">
        <ele>1039</ele>
        <time>2011-05-08T06:42:34Z</time>
      </trkpt>
      <trkpt lat="45.07684" lon="5.52406">
        <ele>1034.3</ele>
        <time>2011-05-08T06:42:39.000Z</time>
      </trkpt>
      <trkpt lat="45.07735" lon="5.52391">
        <ele>1028.5</ele>
        <time>2011-05-08T06:42:44.000Z</time>
      </trkpt>
      <trkpt lat="45.07791" lon="5.52375">
        <ele>1024.1</ele>
        <time>2011-05-08T06:42:48.997Z</time>
      </trkpt>
      <trkpt lat="45.07855" lon="5.52354">
        <ele>1020.8</ele>
        <time>2011-05-08T06:42:54.000Z</time>
      </trkpt>
      <trkpt lat="45.07919" lon="5.52339">
        <ele>1015.6</ele>
        <time>2011-05-08T06:42:58.997Z</time>
      </trkpt>
      <trkpt lat="45.07979" lon="5.52332">
        <ele>1011.7</ele>
        <time>2011-05-08T06:43:04Z</time>
      </trkpt>
      <trkpt lat="45.08051" lon="5.52312">
        <ele>1002.5</ele>
        <time>2011-05-08T06:43:09Z</time>
      </trkpt>
      <trkpt lat="45.08126" lon="5.52296">
        <ele>990.4</ele>
        <time>2011-05-08T06:43:14Z</time>
      </trkpt>
      <trkpt lat="45.0819" lon="5.52253">
        <ele>980.1</ele>
        <time>2011-05-08T06:43:18.997Z</time>
      </trkpt>
      <trkpt lat="45.08241" lon="5.52188">
        <ele>971.2</ele>
        <time>2011-05-08T06:43:24.002Z</time>
      </trkpt>
      <trkpt lat="45.08282" lon="5.52124">
        <ele>963</ele>
        <time>2011-05-08T06:43:29.002Z</time>
      </trkpt>
      <trkpt lat="45.083" lon="5.52078">
        <ele>959.1</ele>
        <time>2011-05-08T06:43:34Z</time>
      </trkpt>
      <trkpt lat="45.08332" lon="5.52046">
        <ele>954.8</ele>
        <time>2011-05-08T06:43:39Z</time>
      </trkpt>
      <trkpt lat="45.08379" lon="5.52038">
        <ele>949.2</ele>
        <time>2011-05-08T06:43:44Z</time>
      </trkpt>
      <trkpt lat="45.08421" lon="5.5206">
        <ele>943.5</ele>
        <time>2011-05-08T06:43:49Z</time>
      </trkpt>
      <trkpt lat="45.08449" lon="5.52079">
        <ele>938</ele>
        <time>2011-05-08T06:43:54Z</time>
      </trkpt>
      <trkpt lat="45.08482" lon="5.52053">
        <ele>952.4</ele>
        <time>2011-05-08T06:46:03.997Z</time>
      </trkpt>
      <trkpt lat="45.08476" lon="5.52018">
        <ele>940.6</ele>
        <time>2011-05-08T06:46:29Z</time>
      </trkpt>
      <trkpt lat="45.08451" lon="5.5201">
        <ele>939</ele>
        <time>2011-05-08T06:50:49Z</time>
      </trkpt>
      <trkpt lat="45.08422" lon="5.52002">
        <ele>942.9</ele>
        <time>2011-05-08T06:51:09Z</time>
      </trkpt>
      <trkpt lat="45.08395" lon="5.51999">
        <ele>949.6</ele>
        <time>2011-05-08T06:51:24Z</time>
      </trkpt>
      <trkpt lat="45.08368" lon="5.51998">
        <ele>958.5</ele>
        <time>2011-05-08T06:51:39Z</time>
      </trkpt>
      <trkpt lat="45.08343" lon="5.51995">
        <ele>968.2</ele>
        <time>2011-05-08T06:51:54Z</time>
      </trkpt>
      <trkpt lat="45.08321" lon="5.51987">
        <ele>985.3</ele>
        <time>2011-05-08T06:52:14Z</time>
      </trkpt>
      <trkpt lat="45.08301" lon="5.51973">
        <ele>981.4</ele>
        <time>2011-05-08T06:52:29Z</time>
      </trkpt>
      <trkpt lat="45.08269" lon="5.51974">
        <ele>977</ele>
        <time>2011-05-08T06:52:49Z</time>
      </trkpt>
      <trkpt lat="45.08244" lon="5.51987">
        <ele>971.4</ele>
        <time>2011-05-08T06:53:04Z</time>
      </trkpt>
      <trkpt lat="45.08213" lon="5.51997">
        <ele>964.8</ele>
        <time>2011-05-08T06:53:19Z</time>
      </trkpt>
      <trkpt lat="45.08191" lon="5.5201">
        <ele>966.7</ele>
        <time>2011-05-08T06:53:29Z</time>
      </trkpt>
      <trkpt lat="45.08168" lon="5.52017">
        <ele>970.2</ele>
        <time>2011-05-08T06:53:39Z</time>
      </trkpt>
      <trkpt lat="45.08144" lon="5.52023">
        <ele>974.9</ele>
        <time>2011-05-08T06:53:49Z</time>
      </trkpt>
      <trkpt lat="45.08117" lon="5.52026">
        <ele>983.7</ele>
        <time>2011-05-08T06:54:04.000Z</time>
      </trkpt>
      <trkpt lat="45.0809" lon="5.52021">
        <ele>986.5</ele>
        <time>2011-05-08T06:54:18.997Z</time>
      </trkpt>
      <trkpt lat="45.08092" lon="5.51984">
        <ele>986.9</ele>
        <time>2011-05-08T06:54:38.997Z</time>
      </trkpt>
      <trkpt lat="45.08111" lon="5.51968">
        <ele>988.9</ele>
        <time>2011-05-08T06:54:49.000Z</time>
      </trkpt>
      <trkpt lat="45.08129" lon="5.51948">
        <ele>990.1</ele>
        <time>2011-05-08T06:54:58.995Z</time>
      </trkpt>
      <trkpt lat="45.08146" lon="5.51931">
        <ele>989.8</ele>
        <time>2011-05-08T06:55:09Z</time>
      </trkpt>
      <trkpt lat="45.08165" lon="5.51913">
        <ele>991.6</ele>
        <time>2011-05-08T06:55:19Z</time>
      </trkpt>
      <trkpt lat="45.0819" lon="5.51892">
        <ele>996.1</ele>
        <time>2011-05-08T06:55:34Z</time>
      </trkpt>
      <trkpt lat="45.08216" lon="5.51898">
        <ele>995.8</ele>
        <time>2011-05-08T06:55:54Z</time>
      </trkpt>
      <trkpt lat="45.08256" lon="5.51899">
        <ele>996.1</ele>
        <time>2011-05-08T06:56:09Z</time>
      </trkpt>
      <trkpt lat="45.08292" lon="5.51892">
        <ele>993.4</ele>
        <time>2011-05-08T06:56:19Z</time>
      </trkpt>
      <trkpt lat="45.08329" lon="5.51887">
        <ele>991.3</ele>
        <time>2011-05-08T06:56:29Z</time>
      </trkpt>
      <trkpt lat="45.08363" lon="5.5188">
        <ele>991.7</ele>
        <time>2011-05-08T06:56:39Z</time>
      </trkpt>
      <trkpt lat="45.08393" lon="5.51876">
        <ele>990.2</ele>
        <time>2011-05-08T06:56:49Z</time>
      </trkpt>
      <trkpt lat="45.08418" lon="5.51857">
        <ele>994.1</ele>
        <time>2011-05-08T06:56:59Z</time>
      </trkpt>
      <trkpt lat="45.08446" lon="5.51841">
        <ele>997.3</ele>
        <time>2011-05-08T06:57:08.997Z</time>
      </trkpt>
      <trkpt lat="45.08482" lon="5.51846">
        <ele>998.4</ele>
        <time>2011-05-08T06:57:24Z</time>
      </trkpt>
      <trkpt lat="45.08509" lon="5.51829">
        <ele>999.3</ele>
        <time>2011-05-08T06:57:34Z</time>
      </trkpt>
      <trkpt lat="45.08528" lon="5.51806">
        <ele>1002.9</ele>
        <time>2011-05-08T06:57:44Z</time>
      </trkpt>
      <trkpt lat="45.08556" lon="5.51795">
        <ele>1005.6</ele>
        <time>2011-05-08T06:57:53.994Z</time>
      </trkpt>
      <trkpt lat="45.08557" lon="5.51836">
        <ele>1005.7</ele>
        <time>2011-05-08T06:58:04Z</time>
      </trkpt>
      <trkpt lat="45.08564" lon="5.51876">
        <ele>1008.1</ele>
        <time>2011-05-08T06:58:14Z</time>
      </trkpt>
      <trkpt lat="45.08598" lon="5.51889">
        <ele>1008.3</ele>
        <time>2011-05-08T06:58:24Z</time>
      </trkpt>
      <trkpt lat="45.0863" lon="5.51875">
        <ele>1009.1</ele>
        <time>2011-05-08T06:58:33.997Z</time>
      </trkpt>
      <trkpt lat="45.08658" lon="5.51849">
        <ele>1004.3</ele>
        <time>2011-05-08T06:58:44Z</time>
      </trkpt>
      <trkpt lat="45.08673" lon="5.51805">
        <ele>1000</ele>
        <time>2011-05-08T06:58:54Z</time>
      </trkpt>
      <trkpt lat="45.08703" lon="5.51767">
        <ele>1002.7</ele>
        <time>2011-05-08T06:59:04Z</time>
      </trkpt>
      <trkpt lat="45.08731" lon="5.51738">
        <ele>1004.1</ele>
        <time>2011-05-08T06:59:14Z</time>
      </trkpt>
      <trkpt lat="45.08739" lon="5.51766">
        <ele>1009</ele>
        <time>2011-05-08T06:59:24Z</time>
      </trkpt>
      <trkpt lat="45.08758" lon="5.51786">
        <ele>1015.1</ele>
        <time>2011-05-08T06:59:34Z</time>
      </trkpt>
      <trkpt lat="45.08782" lon="5.51798">
        <ele>1013.9</ele>
        <time>2011-05-08T06:59:44Z</time>
      </trkpt>
      <trkpt lat="45.08808" lon="5.51802">
        <ele>1016.8</ele>
        <time>2011-05-08T06:59:54Z</time>
      </trkpt>
      <trkpt lat="45.08835" lon="5.51799">
        <ele>1022.8</ele>
        <time>2011-05-08T07:00:04Z</time>
      </trkpt>
      <trkpt lat="45.08857" lon="5.5177">
        <ele>1022.8</ele>
        <time>2011-05-08T07:00:13.995Z</time>
      </trkpt>
      <trkpt lat="45.08878" lon="5.5174">
        <ele>1020.4</ele>
        <time>2011-05-08T07:00:23.994Z</time>
      </trkpt>
      <trkpt lat="45.08893" lon="5.51719">
        <ele>1016.7</ele>
        <time>2011-05-08T07:00:34.002Z</time>
      </trkpt>
      <trkpt lat="45.08912" lon="5.51696">
        <ele>1021.5</ele>
        <time>2011-05-08T07:00:49Z</time>
      </trkpt>
      <trkpt lat="45.08921" lon="5.51727">
        <ele>1026</ele>
        <time>2011-05-08T07:01:04Z</time>
      </trkpt>
      <trkpt lat="45.08934" lon="5.51755">
        <ele>1028.3</ele>
        <time>2011-05-08T07:01:14Z</time>
      </trkpt>
      <trkpt lat="45.08956" lon="5.51764">
        <ele>1029.7</ele>
        <time>2011-05-08T07:01:24Z</time>
      </trkpt>
      <trkpt lat="45.08985" lon="5.51778">
        <ele>1037.8</ele>
        <time>2011-05-08T07:01:39Z</time>
      </trkpt>
      <trkpt lat="45.09017" lon="5.51788">
        <ele>1053.7</ele>
        <time>2011-05-08T07:01:54Z</time>
      </trkpt>
      <trkpt lat="45.0904" lon="5.51796">
        <ele>1055.9</ele>
        <time>2011-05-08T07:02:04Z</time>
      </trkpt>
      <trkpt lat="45.09067" lon="5.51812">
        <ele>1053.4</ele>
        <time>2011-05-08T07:02:14Z</time>
      </trkpt>
      <trkpt lat="45.09094" lon="5.5183">
        <ele>1053.2</ele>
        <time>2011-05-08T07:02:24Z</time>
      </trkpt>
      <trkpt lat="45.09113" lon="5.51856">
        <ele>1049</ele>
        <time>2011-05-08T07:02:34Z</time>
      </trkpt>
      <trkpt lat="45.09124" lon="5.51884">
        <ele>1048.6</ele>
        <time>2011-05-08T07:02:44Z</time>
      </trkpt>
      <trkpt lat="45.0914" lon="5.51912">
        <ele>1048.2</ele>
        <time>2011-05-08T07:03:04Z</time>
      </trkpt>
      <trkpt lat="45.0915" lon="5.51948">
        <ele>1052.8</ele>
        <time>2011-05-08T07:03:24Z</time>
      </trkpt>
      <trkpt lat="45.09158" lon="5.51984">
        <ele>1061.3</ele>
        <time>2011-05-08T07:03:44Z</time>
      </trkpt>
      <trkpt lat="45.09168" lon="5.52017">
        <ele>1065.2</ele>
        <time>2011-05-08T07:05:24Z</time>
      </trkpt>
      <trkpt lat="45.09185" lon="5.52034">
        <ele>1068.9</ele>
        <time>2011-05-08T07:05:49Z</time>
      </trkpt>
      <trkpt lat="45.09206" lon="5.52043">
        <ele>1071.2</ele>
        <time>2011-05-08T07:06:24Z</time>
      </trkpt>
      <trkpt lat="45.09226" lon="5.52057">
        <ele>1074.5</ele>
        <time>2011-05-08T07:06:44Z</time>
      </trkpt>
      <trkpt lat="45.09244" lon="5.52071">
        <ele>1082.4</ele>
        <time>2011-05-08T07:07:04Z</time>
      </trkpt>
      <trkpt lat="45.09263" lon="5.52085">
        <ele>1091</ele>
        <time>2011-05-08T07:07:24Z</time>
      </trkpt>
      <trkpt lat="45.0928" lon="5.521">
        <ele>1095.1</ele>
        <time>2011-05-08T07:07:44Z</time>
      </trkpt>
      <trkpt lat="45.09301" lon="5.52116">
        <ele>1104.6</ele>
        <time>2011-05-08T07:08:14Z</time>
      </trkpt>
      <trkpt lat="45.09303" lon="5.52075">
        <ele>1105.3</ele>
        <time>2011-05-08T07:08:49Z</time>
      </trkpt>
      <trkpt lat="45.09308" lon="5.52043">
        <ele>1107</ele>
        <time>2011-05-08T07:09:14Z</time>
      </trkpt>
      <trkpt lat="45.0931" lon="5.52003">
        <ele>1116.4</ele>
        <time>2011-05-08T07:09:54Z</time>
      </trkpt>
      <trkpt lat="45.09309" lon="5.51955">
        <ele>1134.3</ele>
        <time>2011-05-08T07:11:34Z</time>
      </trkpt>
      <trkpt lat="45.09315" lon="5.51925">
        <ele>1139.6</ele>
        <time>2011-05-08T07:12:04Z</time>
      </trkpt>
      <trkpt lat="45.0932" lon="5.51886">
        <ele>1153.2</ele>
        <time>2011-05-08T07:13:14Z</time>
      </trkpt>
      <trkpt lat="45.09323" lon="5.5185">
        <ele>1157.2</ele>
        <time>2011-05-08T07:13:49.001Z</time>
      </trkpt>
      <trkpt lat="45.09353" lon="5.51783">
        <ele>1145.3</ele>
        <time>2011-05-08T07:15:44Z</time>
      </trkpt>
      <trkpt lat="45.09418" lon="5.51793">
        <ele>1198.1</ele>
        <time>2011-05-08T07:18:49Z</time>
      </trkpt>
      <trkpt lat="45.09427" lon="5.51767">
        <ele>1201.6</ele>
        <time>2011-05-08T07:19:29Z</time>
      </trkpt>
      <trkpt lat="45.09449" lon="5.51756">
        <ele>1178.1</ele>
        <time>2011-05-08T07:22:04Z</time>
      </trkpt>
      <trkpt lat="45.09452" lon="5.51713">
        <ele>1203.5</ele>
        <time>2011-05-08T07:22:59Z</time>
      </trkpt>
      <trkpt lat="45.09489" lon="5.51728">
        <ele>1208.9</ele>
        <time>2011-05-08T07:28:54Z</time>
      </trkpt>
      <trkpt lat="45.09511" lon="5.51749">
        <ele>1221.8</ele>
        <time>2011-05-08T07:29:44Z</time>
      </trkpt>
      <trkpt lat="45.09529" lon="5.51772">
        <ele>1223</ele>
        <time>2011-05-08T07:30:04.001Z</time>
      </trkpt>
      <trkpt lat="45.09553" lon="5.5179">
        <ele>1218.7</ele>
        <time>2011-05-08T07:30:19Z</time>
      </trkpt>
      <trkpt lat="45.0958" lon="5.51797">
        <ele>1225</ele>
        <time>2011-05-08T07:30:34Z</time>
      </trkpt>
      <trkpt lat="45.09609" lon="5.51797">
        <ele>1230.6</ele>
        <time>2011-05-08T07:30:54Z</time>
      </trkpt>
      <trkpt lat="45.09633" lon="5.51789">
        <ele>1233.1</ele>
        <time>2011-05-08T07:31:09Z</time>
      </trkpt>
      <trkpt lat="45.09655" lon="5.51767">
        <ele>1228.5</ele>
        <time>2011-05-08T07:31:24Z</time>
      </trkpt>
      <trkpt lat="45.09675" lon="5.51741">
        <ele>1223.4</ele>
        <time>2011-05-08T07:31:39Z</time>
      </trkpt>
      <trkpt lat="45.09699" lon="5.51737">
        <ele>1247</ele>
        <time>2011-05-08T07:32:04Z</time>
      </trkpt>
      <trkpt lat="45.0973" lon="5.51743">
        <ele>1248.4</ele>
        <time>2011-05-08T07:32:24Z</time>
      </trkpt>
      <trkpt lat="45.09752" lon="5.51751">
        <ele>1248.8</ele>
        <time>2011-05-08T07:32:39Z</time>
      </trkpt>
      <trkpt lat="45.09784" lon="5.51752">
        <ele>1255.8</ele>
        <time>2011-05-08T07:32:59Z</time>
      </trkpt>
      <trkpt lat="45.09814" lon="5.51748">
        <ele>1262</ele>
        <time>2011-05-08T07:33:19Z</time>
      </trkpt>
      <trkpt lat="45.09844" lon="5.51741">
        <ele>1259.3</ele>
        <time>2011-05-08T07:33:34Z</time>
      </trkpt>
      <trkpt lat="45.09871" lon="5.5173">
        <ele>1257</ele>
        <time>2011-05-08T07:33:49Z</time>
      </trkpt>
      <trkpt lat="45.09888" lon="5.51713">
        <ele>1248.6</ele>
        <time>2011-05-08T07:33:59Z</time>
      </trkpt>
      <trkpt lat="45.09904" lon="5.51689">
        <ele>1247.3</ele>
        <time>2011-05-08T07:34:14Z</time>
      </trkpt>
      <trkpt lat="45.09913" lon="5.51658">
        <ele>1256.9</ele>
        <time>2011-05-08T07:34:34Z</time>
      </trkpt>
      <trkpt lat="45.09933" lon="5.51622">
        <ele>1266.6</ele>
        <time>2011-05-08T07:34:54Z</time>
      </trkpt>
      <trkpt lat="45.09963" lon="5.51617">
        <ele>1282.6</ele>
        <time>2011-05-08T07:35:19Z</time>
      </trkpt>
      <trkpt lat="45.09982" lon="5.51635">
        <ele>1280.6</ele>
        <time>2011-05-08T07:35:33.995Z</time>
      </trkpt>
      <trkpt lat="45.09998" lon="5.51656">
        <ele>1282.3</ele>
        <time>2011-05-08T07:35:49Z</time>
      </trkpt>
      <trkpt lat="45.10024" lon="5.51664">
        <ele>1280.5</ele>
        <time>2011-05-08T07:36:04Z</time>
      </trkpt>
      <trkpt lat="45.10051" lon="5.51666">
        <ele>1278.7</ele>
        <time>2011-05-08T07:36:19Z</time>
      </trkpt>
      <trkpt lat="45.10078" lon="5.51664">
        <ele>1284.3</ele>
        <time>2011-05-08T07:36:34Z</time>
      </trkpt>
      <trkpt lat="45.10115" lon="5.51654">
        <ele>1290.6</ele>
        <time>2011-05-08T07:36:59Z</time>
      </trkpt>
      <trkpt lat="45.10142" lon="5.51635">
        <ele>1285.5</ele>
        <time>2011-05-08T07:37:14Z</time>
      </trkpt>
      <trkpt lat="45.10163" lon="5.51599">
        <ele>1278.9</ele>
        <time>2011-05-08T07:37:54Z</time>
      </trkpt>
      <trkpt lat="45.10168" lon="5.51566">
        <ele>1281</ele>
        <time>2011-05-08T07:38:09Z</time>
      </trkpt>
      <trkpt lat="45.10175" lon="5.51531">
        <ele>1296.4</ele>
        <time>2011-05-08T07:38:24Z</time>
      </trkpt>
      <trkpt lat="45.10174" lon="5.51492">
        <ele>1306.7</ele>
        <time>2011-05-08T07:38:39Z</time>
      </trkpt>
      <trkpt lat="45.10171" lon="5.5145">
        <ele>1309</ele>
        <time>2011-05-08T07:38:54Z</time>
      </trkpt>
      <trkpt lat="45.10168" lon="5.51414">
        <ele>1306.9</ele>
        <time>2011-05-08T07:39:03.997Z</time>
      </trkpt>
      <trkpt lat="45.10179" lon="5.51389">
        <ele>1309.6</ele>
        <time>2011-05-08T07:39:23.998Z</time>
      </trkpt>
      <trkpt lat="45.10216" lon="5.51405">
        <ele>1310.6</ele>
        <time>2011-05-08T07:39:39Z</time>
      </trkpt>
      <trkpt lat="45.10252" lon="5.51406">
        <ele>1304.7</ele>
        <time>2011-05-08T07:39:49Z</time>
      </trkpt>
      <trkpt lat="45.10284" lon="5.51397">
        <ele>1307.6</ele>
        <time>2011-05-08T07:39:59Z</time>
      </trkpt>
      <trkpt lat="45.10319" lon="5.5141">
        <ele>1308.8</ele>
        <time>2011-05-08T07:40:09Z</time>
      </trkpt>
      <trkpt lat="45.10344" lon="5.5142">
        <ele>1318.1</ele>
        <time>2011-05-08T07:40:19Z</time>
      </trkpt>
      <trkpt lat="45.10369" lon="5.51432">
        <ele>1322.8</ele>
        <time>2011-05-08T07:40:29.001Z</time>
      </trkpt>
      <trkpt lat="45.10395" lon="5.51443">
        <ele>1316.2</ele>
        <time>2011-05-08T07:40:39Z</time>
      </trkpt>
      <trkpt lat="45.10418" lon="5.51449">
        <ele>1308.8</ele>
        <time>2011-05-08T07:40:48.995Z</time>
      </trkpt>
      <trkpt lat="45.10445" lon="5.5145">
        <ele>1305</ele>
        <time>2011-05-08T07:40:59.002Z</time>
      </trkpt>
      <trkpt lat="45.10472" lon="5.51449">
        <ele>1299.3</ele>
        <time>2011-05-08T07:41:14.002Z</time>
      </trkpt>
      <trkpt lat="45.10499" lon="5.51466">
        <ele>1290.7</ele>
        <time>2011-05-08T07:41:28.993Z</time>
      </trkpt>
      <trkpt lat="45.10519" lon="5.5148">
        <ele>1287.7</ele>
        <time>2011-05-08T07:41:39.004Z</time>
      </trkpt>
      <trkpt lat="45.10507" lon="5.51514">
        <ele>1307.6</ele>
        <time>2011-05-08T07:47:54.001Z</time>
      </trkpt>
      <trkpt lat="45.10512" lon="5.51547">
        <ele>1314.2</ele>
        <time>2011-05-08T07:48:04.001Z</time>
      </trkpt>
      <trkpt lat="45.10534" lon="5.51567">
        <ele>1323.7</ele>
        <time>2011-05-08T07:48:18.997Z</time>
      </trkpt>
      <trkpt lat="45.10565" lon="5.51572">
        <ele>1329.5</ele>
        <time>2011-05-08T07:48:34.001Z</time>
      </trkpt>
      <trkpt lat="45.10597" lon="5.51572">
        <ele>1334.6</ele>
        <time>2011-05-08T07:48:48.998Z</time>
      </trkpt>
      <trkpt lat="45.10625" lon="5.51565">
        <ele>1340.3</ele>
        <time>2011-05-08T07:49:03.998Z</time>
      </trkpt>
      <trkpt lat="45.10653" lon="5.51544">
        <ele>1341.2</ele>
        <time>2011-05-08T07:49:19.001Z</time>
      </trkpt>
      <trkpt lat="45.10672" lon="5.51527">
        <ele>1345.8</ele>
        <time>2011-05-08T07:49:28.998Z</time>
      </trkpt>
      <trkpt lat="45.10692" lon="5.51513">
        <ele>1348.8</ele>
        <time>2011-05-08T07:49:38.998Z</time>
      </trkpt>
      <trkpt lat="45.10721" lon="5.51503">
        <ele>1346.5</ele>
        <time>2011-05-08T07:49:49Z</time>
      </trkpt>
      <trkpt lat="45.10748" lon="5.51496">
        <ele>1344.3</ele>
        <time>2011-05-08T07:49:59.001Z</time>
      </trkpt>
      <trkpt lat="45.10775" lon="5.51491">
        <ele>1340.9</ele>
        <time>2011-05-08T07:50:09Z</time>
      </trkpt>
      <trkpt lat="45.10803" lon="5.51477">
        <ele>1339.8</ele>
        <time>2011-05-08T07:50:24Z</time>
      </trkpt>
      <trkpt lat="45.10824" lon="5.51461">
        <ele>1340.2</ele>
        <time>2011-05-08T07:50:34.001Z</time>
      </trkpt>
      <trkpt lat="45.10849" lon="5.51441">
        <ele>1339</ele>
        <time>2011-05-08T07:50:43.998Z</time>
      </trkpt>
      <trkpt lat="45.10876" lon="5.51426">
        <ele>1345.9</ele>
        <time>2011-05-08T07:50:59.002Z</time>
      </trkpt>
      <trkpt lat="45.10905" lon="5.51426">
        <ele>1353.5</ele>
        <time>2011-05-08T07:51:14.002Z</time>
      </trkpt>
      <trkpt lat="45.10934" lon="5.51433">
        <ele>1366.3</ele>
        <time>2011-05-08T07:51:44.001Z</time>
      </trkpt>
      <trkpt lat="45.10965" lon="5.51432">
        <ele>1369</ele>
        <time>2011-05-08T07:51:59Z</time>
      </trkpt>
      <trkpt lat="45.10999" lon="5.51429">
        <ele>1373.5</ele>
        <time>2011-05-08T07:52:14Z</time>
      </trkpt>
      <trkpt lat="45.11034" lon="5.51423">
        <ele>1371.4</ele>
        <time>2011-05-08T07:52:29Z</time>
      </trkpt>
      <trkpt lat="45.1106" lon="5.51414">
        <ele>1367.6</ele>
        <time>2011-05-08T07:52:39.001Z</time>
      </trkpt>
      <trkpt lat="45.11082" lon="5.51403">
        <ele>1360.3</ele>
        <time>2011-05-08T07:52:48.998Z</time>
      </trkpt>
      <trkpt lat="45.111" lon="5.5139">
        <ele>1356.3</ele>
        <time>2011-05-08T07:52:59.001Z</time>
      </trkpt>
      <trkpt lat="45.11133" lon="5.51377">
        <ele>1360.6</ele>
        <time>2011-05-08T07:53:13.998Z</time>
      </trkpt>
      <trkpt lat="45.11155" lon="5.51365">
        <ele>1359.8</ele>
        <time>2011-05-08T07:53:24Z</time>
      </trkpt>
      <trkpt lat="45.11179" lon="5.51341">
        <ele>1353.7</ele>
        <time>2011-05-08T07:53:33.998Z</time>
      </trkpt>
      <trkpt lat="45.11195" lon="5.51314">
        <ele>1351.4</ele>
        <time>2011-05-08T07:53:43.997Z</time>
      </trkpt>
      <trkpt lat="45.1121" lon="5.51292">
        <ele>1359.6</ele>
        <time>2011-05-08T07:54:19Z</time>
      </trkpt>
      <trkpt lat="45.11247" lon="5.51287">
        <ele>1360.6</ele>
        <time>2011-05-08T07:54:29.001Z</time>
      </trkpt>
      <trkpt lat="45.11277" lon="5.51308">
        <ele>1357.5</ele>
        <time>2011-05-08T07:54:39.001Z</time>
      </trkpt>
      <trkpt lat="45.11293" lon="5.51326">
        <ele>1356.4</ele>
        <time>2011-05-08T07:54:49.002Z</time>
      </trkpt>
      <trkpt lat="45.11312" lon="5.51352">
        <ele>1359.6</ele>
        <time>2011-05-08T07:54:59Z</time>
      </trkpt>
      <trkpt lat="45.1134" lon="5.51391">
        <ele>1354.6</ele>
        <time>2011-05-08T07:55:09Z</time>
      </trkpt>
      <trkpt lat="45.11366" lon="5.51428">
        <ele>1350</ele>
        <time>2011-05-08T07:55:19.001Z</time>
      </trkpt>
      <trkpt lat="45.11391" lon="5.5146">
        <ele>1351.2</ele>
        <time>2011-05-08T07:55:29.001Z</time>
      </trkpt>
      <trkpt lat="45.11415" lon="5.5148">
        <ele>1352.1</ele>
        <time>2011-05-08T07:55:39Z</time>
      </trkpt>
      <trkpt lat="45.11441" lon="5.51497">
        <ele>1353.9</ele>
        <time>2011-05-08T07:55:49.001Z</time>
      </trkpt>
      <trkpt lat="45.11472" lon="5.51527">
        <ele>1349.2</ele>
        <time>2011-05-08T07:55:59.001Z</time>
      </trkpt>
      <trkpt lat="45.11503" lon="5.51548">
        <ele>1342.6</ele>
        <time>2011-05-08T07:56:09Z</time>
      </trkpt>
      <trkpt lat="45.11535" lon="5.51567">
        <ele>1336.6</ele>
        <time>2011-05-08T07:56:18.998Z</time>
      </trkpt>
      <trkpt lat="45.1157" lon="5.51577">
        <ele>1334.6</ele>
        <time>2011-05-08T07:56:29.001Z</time>
      </trkpt>
      <trkpt lat="45.11595" lon="5.51579">
        <ele>1331.9</ele>
        <time>2011-05-08T07:56:38.997Z</time>
      </trkpt>
      <trkpt lat="45.11626" lon="5.51587">
        <ele>1326.7</ele>
        <time>2011-05-08T07:56:49.001Z</time>
      </trkpt>
      <trkpt lat="45.11652" lon="5.51604">
        <ele>1324.1</ele>
        <time>2011-05-08T07:56:59.001Z</time>
      </trkpt>
      <trkpt lat="45.11671" lon="5.51623">
        <ele>1322.3</ele>
        <time>2011-05-08T07:57:08.998Z</time>
      </trkpt>
      <trkpt lat="45.11697" lon="5.51633">
        <ele>1321.7</ele>
        <time>2011-05-08T07:57:59Z</time>
      </trkpt>
      <trkpt lat="45.11702" lon="5.51668">
        <ele>1324.6</ele>
        <time>2011-05-08T07:59:59Z</time>
      </trkpt>
      <trkpt lat="45.11709" lon="5.51702">
        <ele>1315.6</ele>
        <time>2011-05-08T08:00:14Z</time>
      </trkpt>
      <trkpt lat="45.11729" lon="5.5173">
        <ele>1303.6</ele>
        <time>2011-05-08T08:00:29.001Z</time>
      </trkpt>
      <trkpt lat="45.11749" lon="5.51751">
        <ele>1294.2</ele>
        <time>2011-05-08T08:00:43.998Z</time>
      </trkpt>
      <trkpt lat="45.11764" lon="5.51771">
        <ele>1284.2</ele>
        <time>2011-05-08T08:00:59Z</time>
      </trkpt>
      <trkpt lat="45.1178" lon="5.51792">
        <ele>1273.9</ele>
        <time>2011-05-08T08:01:18.998Z</time>
      </trkpt>
      <trkpt lat="45.11796" lon="5.51811">
        <ele>1258.5</ele>
        <time>2011-05-08T08:02:19Z</time>
      </trkpt>
      <trkpt lat="45.1181" lon="5.51836">
        <ele>1244.6</ele>
        <time>2011-05-08T08:02:34.004Z</time>
      </trkpt>
      <trkpt lat="45.11837" lon="5.51848">
        <ele>1231.1</ele>
        <time>2011-05-08T08:02:49.001Z</time>
      </trkpt>
      <trkpt lat="45.11868" lon="5.51856">
        <ele>1222.4</ele>
        <time>2011-05-08T08:03:03.998Z</time>
      </trkpt>
      <trkpt lat="45.11899" lon="5.51851">
        <ele>1216.2</ele>
        <time>2011-05-08T08:03:19.001Z</time>
      </trkpt>
      <trkpt lat="45.11934" lon="5.51839">
        <ele>1212.4</ele>
        <time>2011-05-08T08:04:43.997Z</time>
      </trkpt>
      <trkpt lat="45.11944" lon="5.51816">
        <ele>1207.7</ele>
        <time>2011-05-08T08:04:59.001Z</time>
      </trkpt>
      <trkpt lat="45.11957" lon="5.51789">
        <ele>1201.8</ele>
        <time>2011-05-08T08:05:14Z</time>
      </trkpt>
      <trkpt lat="45.11971" lon="5.51757">
        <ele>1211.8</ele>
        <time>2011-05-08T08:05:34Z</time>
      </trkpt>
      <trkpt lat="45.11996" lon="5.51728">
        <ele>1206.2</ele>
        <time>2011-05-08T08:05:49Z</time>
      </trkpt>
      <trkpt lat="45.12029" lon="5.51719">
        <ele>1200.2</ele>
        <time>2011-05-08T08:05:59.001Z</time>
      </trkpt>
      <trkpt lat="45.12057" lon="5.5173">
        <ele>1212.6</ele>
        <time>2011-05-08T08:06:09Z</time>
      </trkpt>
      <trkpt lat="45.12083" lon="5.5174">
        <ele>1233.7</ele>
        <time>2011-05-08T08:06:18.998Z</time>
      </trkpt>
      <trkpt lat="45.12115" lon="5.51749">
        <ele>1245.4</ele>
        <time>2011-05-08T08:06:29Z</time>
      </trkpt>
      <trkpt lat="45.12147" lon="5.51761">
        <ele>1247.9</ele>
        <time>2011-05-08T08:06:39.001Z</time>
      </trkpt>
      <trkpt lat="45.12186" lon="5.51777">
        <ele>1240.4</ele>
        <time>2011-05-08T08:06:48.998Z</time>
      </trkpt>
      <trkpt lat="45.12218" lon="5.51799">
        <ele>1209.9</ele>
        <time>2011-05-08T08:06:59.001Z</time>
      </trkpt>
      <trkpt lat="45.12239" lon="5.51819">
        <ele>1141.9</ele>
        <time>2011-05-08T08:09:19.001Z</time>
      </trkpt>
      <trkpt lat="45.12257" lon="5.5184">
        <ele>1137.9</ele>
        <time>2011-05-08T08:09:34Z</time>
      </trkpt>
      <trkpt lat="45.12274" lon="5.51861">
        <ele>1129.5</ele>
        <time>2011-05-08T08:09:53.998Z</time>
      </trkpt>
      <trkpt lat="45.12296" lon="5.51877">
        <ele>1120.9</ele>
        <time>2011-05-08T08:10:09.001Z</time>
      </trkpt>
      <trkpt lat="45.12316" lon="5.51897">
        <ele>1113.9</ele>
        <time>2011-05-08T08:10:29.001Z</time>
      </trkpt>
      <trkpt lat="45.12333" lon="5.51912">
        <ele>1110.5</ele>
        <time>2011-05-08T08:10:39.001Z</time>
      </trkpt>
      <trkpt lat="45.12349" lon="5.51935">
        <ele>1107.5</ele>
        <time>2011-05-08T08:10:48.998Z</time>
      </trkpt>
      <trkpt lat="45.12365" lon="5.51954">
        <ele>1098.5</ele>
        <time>2011-05-08T08:10:59Z</time>
      </trkpt>
      <trkpt lat="45.1239" lon="5.51967">
        <ele>1090</ele>
        <time>2011-05-08T08:11:09.001Z</time>
      </trkpt>
      <trkpt lat="45.12409" lon="5.51986">
        <ele>1086.5</ele>
        <time>2011-05-08T08:11:13.998Z</time>
      </trkpt>
      <trkpt lat="45.12433" lon="5.51998">
        <ele>1078.6</ele>
        <time>2011-05-08T08:11:23.998Z</time>
      </trkpt>
      <trkpt lat="45.1246" lon="5.52008">
        <ele>1067.7</ele>
        <time>2011-05-08T08:11:44Z</time>
      </trkpt>
      <trkpt lat="45.12487" lon="5.52015">
        <ele>1054.5</ele>
        <time>2011-05-08T08:12:03.997Z</time>
      </trkpt>
      <trkpt lat="45.12516" lon="5.52026">
        <ele>1044.2</ele>
        <time>2011-05-08T08:12:19.001Z</time>
      </trkpt>
      <trkpt lat="45.12552" lon="5.52027">
        <ele>1035.9</ele>
        <time>2011-05-08T08:12:34.001Z</time>
      </trkpt>
      <trkpt lat="45.12575" lon="5.52011">
        <ele>1024.5</ele>
        <time>2011-05-08T08:12:43.997Z</time>
      </trkpt>
      <trkpt lat="45.126" lon="5.51986">
        <ele>1015.2</ele>
        <time>2011-05-08T08:12:54Z</time>
      </trkpt>
      <trkpt lat="45.12636" lon="5.51983">
        <ele>1012.5</ele>
        <time>2011-05-08T08:14:54.004Z</time>
      </trkpt>
      <trkpt lat="45.12661" lon="5.51996">
        <ele>1005.8</ele>
        <time>2011-05-08T08:16:54.001Z</time>
      </trkpt>
      <trkpt lat="45.12702" lon="5.52018">
        <ele>1006.7</ele>
        <time>2011-05-08T08:17:04Z</time>
      </trkpt>
      <trkpt lat="45.1273" lon="5.52035">
        <ele>1006.9</ele>
        <time>2011-05-08T08:17:08.998Z</time>
      </trkpt>
      <trkpt lat="45.12761" lon="5.52056">
        <ele>1006.3</ele>
        <time>2011-05-08T08:17:14.001Z</time>
      </trkpt>
      <trkpt lat="45.12784" lon="5.52075">
        <ele>1005.1</ele>
        <time>2011-05-08T08:17:19Z</time>
      </trkpt>
      <trkpt lat="45.12805" lon="5.52101">
        <ele>1003.3</ele>
        <time>2011-05-08T08:17:24.001Z</time>
      </trkpt>
      <trkpt lat="45.12825" lon="5.52136">
        <ele>1001.8</ele>
        <time>2011-05-08T08:17:29Z</time>
      </trkpt>
      <trkpt lat="45.12828" lon="5.52183">
        <ele>1000.3</ele>
        <time>2011-05-08T08:17:33.998Z</time>
      </trkpt>
      <trkpt lat="45.12821" lon="5.52229">
        <ele>999.6</ele>
        <time>2011-05-08T08:17:39Z</time>
      </trkpt>
      <trkpt lat="45.12812" lon="5.52274">
        <ele>998</ele>
        <time>2011-05-08T08:17:43.998Z</time>
      </trkpt>
      <trkpt lat="45.12803" lon="5.52322">
        <ele>996.5</ele>
        <time>2011-05-08T08:17:49.001Z</time>
      </trkpt>
      <trkpt lat="45.12796" lon="5.52375">
        <ele>994.9</ele>
        <time>2011-05-08T08:17:54.001Z</time>
      </trkpt>
      <trkpt lat="45.12787" lon="5.5243">
        <ele>992.5</ele>
        <time>2011-05-08T08:17:58.998Z</time>
      </trkpt>
      <trkpt lat="45.12779" lon="5.52486">
        <ele>990</ele>
        <time>2011-05-08T08:18:03.998Z</time>
      </trkpt>
      <trkpt lat="45.1277" lon="5.52545">
        <ele>988.2</ele>
        <time>2011-05-08T08:18:08.998Z</time>
      </trkpt>
      <trkpt lat="45.1276" lon="5.52596">
        <ele>987.5</ele>
        <time>2011-05-08T08:18:13.998Z</time>
      </trkpt>
      <trkpt lat="45.12753" lon="5.5264">
        <ele>985.9</ele>
        <time>2011-05-08T08:18:19.002Z</time>
      </trkpt>
      <trkpt lat="45.12746" lon="5.52679">
        <ele>984.4</ele>
        <time>2011-05-08T08:18:23.995Z</time>
      </trkpt>
      <trkpt lat="45.12748" lon="5.52729">
        <ele>994.3</ele>
        <time>2011-05-08T08:19:09Z</time>
      </trkpt>
      <trkpt lat="45.12783" lon="5.5276">
        <ele>993.3</ele>
        <time>2011-05-08T08:19:18.997Z</time>
      </trkpt>
      <trkpt lat="45.12821" lon="5.52775">
        <ele>996.8</ele>
        <time>2011-05-08T08:19:29Z</time>
      </trkpt>
      <trkpt lat="45.12868" lon="5.52784">
        <ele>999.2</ele>
        <time>2011-05-08T08:19:39Z</time>
      </trkpt>
      <trkpt lat="45.12895" lon="5.52786">
        <ele>998.3</ele>
        <time>2011-05-08T08:19:44Z</time>
      </trkpt>
      <trkpt lat="45.12927" lon="5.52783">
        <ele>997.2</ele>
        <time>2011-05-08T08:19:49Z</time>
      </trkpt>
      <trkpt lat="45.12963" lon="5.52787">
        <ele>995.5</ele>
        <time>2011-05-08T08:19:54Z</time>
      </trkpt>
      <trkpt lat="45.13004" lon="5.52793">
        <ele>992.6</ele>
        <time>2011-05-08T08:19:59Z</time>
      </trkpt>
      <trkpt lat="45.13042" lon="5.52799">
        <ele>988.7</ele>
        <time>2011-05-08T08:20:04Z</time>
      </trkpt>
      <trkpt lat="45.13066" lon="5.52804">
        <ele>985.6</ele>
        <time>2011-05-08T08:20:09Z</time>
      </trkpt>
      <trkpt lat="45.13092" lon="5.52818">
        <ele>976.2</ele>
        <time>2011-05-08T08:22:08.998Z</time>
      </trkpt>
      <trkpt lat="45.13125" lon="5.52799">
        <ele>977.6</ele>
        <time>2011-05-08T08:22:19.002Z</time>
      </trkpt>
      <trkpt lat="45.13145" lon="5.52778">
        <ele>978.1</ele>
        <time>2011-05-08T08:22:24Z</time>
      </trkpt>
      <trkpt lat="45.13159" lon="5.52747">
        <ele>978.3</ele>
        <time>2011-05-08T08:22:28.998Z</time>
      </trkpt>
      <trkpt lat="45.1317" lon="5.52718">
        <ele>978.5</ele>
        <time>2011-05-08T08:22:33.997Z</time>
      </trkpt>
      <trkpt lat="45.13185" lon="5.52665">
        <ele>979.1</ele>
        <time>2011-05-08T08:22:44.002Z</time>
      </trkpt>
      <trkpt lat="45.13194" lon="5.52639">
        <ele>979.7</ele>
        <time>2011-05-08T08:22:49Z</time>
      </trkpt>
      <trkpt lat="45.1321" lon="5.5262">
        <ele>979.4</ele>
        <time>2011-05-08T08:22:54Z</time>
      </trkpt>
      <trkpt lat="45.13241" lon="5.52598">
        <ele>979.1</ele>
        <time>2011-05-08T08:23:03.998Z</time>
      </trkpt>
      <trkpt lat="45.13274" lon="5.52574">
        <ele>978.4</ele>
        <time>2011-05-08T08:23:14Z</time>
      </trkpt>
      <trkpt lat="45.13304" lon="5.52545">
        <ele>979</ele>
        <time>2011-05-08T08:23:24.001Z</time>
      </trkpt>
      <trkpt lat="45.13332" lon="5.52512">
        <ele>977.5</ele>
        <time>2011-05-08T08:23:34Z</time>
      </trkpt>
      <trkpt lat="45.13359" lon="5.5248">
        <ele>977.7</ele>
        <time>2011-05-08T08:23:44.001Z</time>
      </trkpt>
      <trkpt lat="45.1339" lon="5.5245">
        <ele>978.6</ele>
        <time>2011-05-08T08:23:54Z</time>
      </trkpt>
      <trkpt lat="45.1342" lon="5.52423">
        <ele>979.5</ele>
        <time>2011-05-08T08:24:04Z</time>
      </trkpt>
      <trkpt lat="45.13453" lon="5.52396">
        <ele>979.9</ele>
        <time>2011-05-08T08:24:14Z</time>
      </trkpt>
      <trkpt lat="45.13487" lon="5.52384">
        <ele>982.3</ele>
        <time>2011-05-08T08:24:23.998Z</time>
      </trkpt>
      <trkpt lat="45.13516" lon="5.52373">
        <ele>982.6</ele>
        <time>2011-05-08T08:24:34Z</time>
      </trkpt>
      <trkpt lat="45.13549" lon="5.52356">
        <ele>981.8</ele>
        <time>2011-05-08T08:24:44.001Z</time>
      </trkpt>
      <trkpt lat="45.13585" lon="5.52341">
        <ele>980.7</ele>
        <time>2011-05-08T08:24:54Z</time>
      </trkpt>
      <trkpt lat="45.13621" lon="5.52332">
        <ele>983.6</ele>
        <time>2011-05-08T08:25:03.998Z</time>
      </trkpt>
      <trkpt lat="45.13656" lon="5.52324">
        <ele>985.5</ele>
        <time>2011-05-08T08:25:13.998Z</time>
      </trkpt>
      <trkpt lat="45.13689" lon="5.52324">
        <ele>984.3</ele>
        <time>2011-05-08T08:25:24Z</time>
      </trkpt>
      <trkpt lat="45.13718" lon="5.5232">
        <ele>982.9</ele>
        <time>2011-05-08T08:25:34.001Z</time>
      </trkpt>
      <trkpt lat="45.1374" lon="5.52299">
        <ele>981.8</ele>
        <time>2011-05-08T08:25:44Z</time>
      </trkpt>
      <trkpt lat="45.1377" lon="5.52285">
        <ele>981.9</ele>
        <time>2011-05-08T08:25:54Z</time>
      </trkpt>
      <trkpt lat="45.13804" lon="5.52277">
        <ele>981.7</ele>
        <time>2011-05-08T08:26:04.001Z</time>
      </trkpt>
      <trkpt lat="45.13841" lon="5.52273">
        <ele>980.7</ele>
        <time>2011-05-08T08:26:14.001Z</time>
      </trkpt>
      <trkpt lat="45.13878" lon="5.52268">
        <ele>982.4</ele>
        <time>2011-05-08T08:26:24.001Z</time>
      </trkpt>
      <trkpt lat="45.13911" lon="5.52263">
        <ele>983.3</ele>
        <time>2011-05-08T08:26:34Z</time>
      </trkpt>
      <trkpt lat="45.13945" lon="5.52259">
        <ele>984.4</ele>
        <time>2011-05-08T08:26:44Z</time>
      </trkpt>
      <trkpt lat="45.13978" lon="5.52248">
        <ele>986.9</ele>
        <time>2011-05-08T08:26:53.994Z</time>
      </trkpt>
      <trkpt lat="45.14009" lon="5.52236">
        <ele>989.4</ele>
        <time>2011-05-08T08:27:04Z</time>
      </trkpt>
      <trkpt lat="45.14037" lon="5.52219">
        <ele>990.8</ele>
        <time>2011-05-08T08:27:14Z</time>
      </trkpt>
      <trkpt lat="45.14066" lon="5.522">
        <ele>992.1</ele>
        <time>2011-05-08T08:27:24.001Z</time>
      </trkpt>
      <trkpt lat="45.14094" lon="5.52178">
        <ele>994.3</ele>
        <time>2011-05-08T08:27:34Z</time>
      </trkpt>
      <trkpt lat="45.14116" lon="5.52157">
        <ele>994.9</ele>
        <time>2011-05-08T08:27:44Z</time>
      </trkpt>
      <trkpt lat="45.14137" lon="5.52136">
        <ele>995.1</ele>
        <time>2011-05-08T08:27:54Z</time>
      </trkpt>
      <trkpt lat="45.14158" lon="5.52121">
        <ele>993.4</ele>
        <time>2011-05-08T08:28:04.001Z</time>
      </trkpt>
      <trkpt lat="45.14183" lon="5.52112">
        <ele>992.6</ele>
        <time>2011-05-08T08:28:14.002Z</time>
      </trkpt>
      <trkpt lat="45.14213" lon="5.52106">
        <ele>991.4</ele>
        <time>2011-05-08T08:28:24Z</time>
      </trkpt>
      <trkpt lat="45.14246" lon="5.52113">
        <ele>989</ele>
        <time>2011-05-08T08:28:34.001Z</time>
      </trkpt>
      <trkpt lat="45.14283" lon="5.52121">
        <ele>988.8</ele>
        <time>2011-05-08T08:28:44.001Z</time>
      </trkpt>
      <trkpt lat="45.14321" lon="5.52118">
        <ele>988.6</ele>
        <time>2011-05-08T08:28:54Z</time>
      </trkpt>
      <trkpt lat="45.14355" lon="5.52094">
        <ele>986.8</ele>
        <time>2011-05-08T08:29:04Z</time>
      </trkpt>
      <trkpt lat="45.14387" lon="5.52087">
        <ele>987.9</ele>
        <time>2011-05-08T08:29:14Z</time>
      </trkpt>
      <trkpt lat="45.14421" lon="5.52087">
        <ele>992</ele>
        <time>2011-05-08T08:29:24.001Z</time>
      </trkpt>
      <trkpt lat="45.14456" lon="5.5207">
        <ele>993.4</ele>
        <time>2011-05-08T08:29:34Z</time>
      </trkpt>
      <trkpt lat="45.1449" lon="5.52045">
        <ele>992.5</ele>
        <time>2011-05-08T08:29:44Z</time>
      </trkpt>
      <trkpt lat="45.14512" lon="5.52006">
        <ele>994.5</ele>
        <time>2011-05-08T08:29:54Z</time>
      </trkpt>
      <trkpt lat="45.14522" lon="5.51966">
        <ele>996.5</ele>
        <time>2011-05-08T08:30:04Z</time>
      </trkpt>
      <trkpt lat="45.14529" lon="5.51935">
        <ele>998.5</ele>
        <time>2011-05-08T08:30:14Z</time>
      </trkpt>
      <trkpt lat="45.14542" lon="5.51895">
        <ele>1001.3</ele>
        <time>2011-05-08T08:30:29Z</time>
      </trkpt>
      <trkpt lat="45.14553" lon="5.51869">
        <ele>1003.2</ele>
        <time>2011-05-08T08:30:39Z</time>
      </trkpt>
      <trkpt lat="45.14565" lon="5.51843">
        <ele>1006</ele>
        <time>2011-05-08T08:30:48.998Z</time>
      </trkpt>
      <trkpt lat="45.14581" lon="5.51826">
        <ele>1012.4</ele>
        <time>2011-05-08T08:31:04Z</time>
      </trkpt>
      <trkpt lat="45.14597" lon="5.51857">
        <ele>1006.5</ele>
        <time>2011-05-08T08:31:24Z</time>
      </trkpt>
      <trkpt lat="45.14618" lon="5.51885">
        <ele>1004.9</ele>
        <time>2011-05-08T08:31:29.001Z</time>
      </trkpt>
      <trkpt lat="45.14642" lon="5.51917">
        <ele>1002.6</ele>
        <time>2011-05-08T08:31:34.001Z</time>
      </trkpt>
      <trkpt lat="45.14669" lon="5.51953">
        <ele>1000.4</ele>
        <time>2011-05-08T08:31:39.001Z</time>
      </trkpt>
      <trkpt lat="45.147" lon="5.51987">
        <ele>1000.2</ele>
        <time>2011-05-08T08:31:44Z</time>
      </trkpt>
      <trkpt lat="45.14728" lon="5.5202">
        <ele>1000.5</ele>
        <time>2011-05-08T08:31:49.001Z</time>
      </trkpt>
      <trkpt lat="45.1476" lon="5.52054">
        <ele>1000.4</ele>
        <time>2011-05-08T08:31:54Z</time>
      </trkpt>
      <trkpt lat="45.14793" lon="5.52087">
        <ele>999.1</ele>
        <time>2011-05-08T08:31:59Z</time>
      </trkpt>
      <trkpt lat="45.14826" lon="5.52121">
        <ele>999.2</ele>
        <time>2011-05-08T08:32:04Z</time>
      </trkpt>
      <trkpt lat="45.14854" lon="5.5215">
        <ele>999.8</ele>
        <time>2011-05-08T08:32:09Z</time>
      </trkpt>
      <trkpt lat="45.14882" lon="5.52174">
        <ele>1001.3</ele>
        <time>2011-05-08T08:32:14.001Z</time>
      </trkpt>
      <trkpt lat="45.14911" lon="5.52192">
        <ele>1002.6</ele>
        <time>2011-05-08T08:32:19Z</time>
      </trkpt>
      <trkpt lat="45.14938" lon="5.52209">
        <ele>1003.6</ele>
        <time>2011-05-08T08:32:24.001Z</time>
      </trkpt>
      <trkpt lat="45.14965" lon="5.52226">
        <ele>1003.3</ele>
        <time>2011-05-08T08:32:28.995Z</time>
      </trkpt>
      <trkpt lat="45.14992" lon="5.52242">
        <ele>1003.4</ele>
        <time>2011-05-08T08:32:34Z</time>
      </trkpt>
      <trkpt lat="45.15018" lon="5.52258">
        <ele>1004.3</ele>
        <time>2011-05-08T08:32:39Z</time>
      </trkpt>
      <trkpt lat="45.15043" lon="5.52274">
        <ele>1005.7</ele>
        <time>2011-05-08T08:32:44.002Z</time>
      </trkpt>
      <trkpt lat="45.15066" lon="5.52289">
        <ele>1006.5</ele>
        <time>2011-05-08T08:32:48.998Z</time>
      </trkpt>
      <trkpt lat="45.15084" lon="5.52302">
        <ele>1007</ele>
        <time>2011-05-08T08:32:54.001Z</time>
      </trkpt>
      <trkpt lat="45.15098" lon="5.52327">
        <ele>1007.6</ele>
        <time>2011-05-08T08:32:59Z</time>
      </trkpt>
      <trkpt lat="45.15088" lon="5.52389">
        <ele>1007.7</ele>
        <time>2011-05-08T08:33:09Z</time>
      </trkpt>
      <trkpt lat="45.15077" lon="5.5242">
        <ele>1005.9</ele>
        <time>2011-05-08T08:33:14Z</time>
      </trkpt>
      <trkpt lat="45.15068" lon="5.52453">
        <ele>1005.5</ele>
        <time>2011-05-08T08:33:19.001Z</time>
      </trkpt>
      <trkpt lat="45.15058" lon="5.52487">
        <ele>1006</ele>
        <time>2011-05-08T08:33:24Z</time>
      </trkpt>
      <trkpt lat="45.15046" lon="5.52517">
        <ele>1005.4</ele>
        <time>2011-05-08T08:33:28.998Z</time>
      </trkpt>
      <trkpt lat="45.15035" lon="5.52544">
        <ele>1006</ele>
        <time>2011-05-08T08:33:34.001Z</time>
      </trkpt>
      <trkpt lat="45.15025" lon="5.52567">
        <ele>1005.8</ele>
        <time>2011-05-08T08:33:39.002Z</time>
      </trkpt>
      <trkpt lat="45.15013" lon="5.52609">
        <ele>1007.8</ele>
        <time>2011-05-08T08:33:49.001Z</time>
      </trkpt>
      <trkpt lat="45.15005" lon="5.52637">
        <ele>1006.2</ele>
        <time>2011-05-08T08:33:59Z</time>
      </trkpt>
      <trkpt lat="45.15038" lon="5.52643">
        <ele>1003.8</ele>
        <time>2011-05-08T08:34:34Z</time>
      </trkpt>
      <trkpt lat="45.1507" lon="5.52648">
        <ele>1001</ele>
        <time>2011-05-08T08:34:49Z</time>
      </trkpt>
      <trkpt lat="45.15093" lon="5.52655">
        <ele>1001.1</ele>
        <time>2011-05-08T08:34:59Z</time>
      </trkpt>
      <trkpt lat="45.15121" lon="5.52665">
        <ele>1001.7</ele>
        <time>2011-05-08T08:35:09.001Z</time>
      </trkpt>
      <trkpt lat="45.15152" lon="5.52675">
        <ele>1003.9</ele>
        <time>2011-05-08T08:35:19.001Z</time>
      </trkpt>
      <trkpt lat="45.1519" lon="5.52686">
        <ele>1006.4</ele>
        <time>2011-05-08T08:35:29Z</time>
      </trkpt>
      <trkpt lat="45.15226" lon="5.52693">
        <ele>1005</ele>
        <time>2011-05-08T08:35:39.001Z</time>
      </trkpt>
      <trkpt lat="45.15259" lon="5.52707">
        <ele>1006.5</ele>
        <time>2011-05-08T08:35:48.998Z</time>
      </trkpt>
      <trkpt lat="45.15294" lon="5.52725">
        <ele>1008.6</ele>
        <time>2011-05-08T08:35:59Z</time>
      </trkpt>
      <trkpt lat="45.15332" lon="5.52741">
        <ele>1011.8</ele>
        <time>2011-05-08T08:36:08.998Z</time>
      </trkpt>
      <trkpt lat="45.15366" lon="5.5276">
        <ele>1013</ele>
        <time>2011-05-08T08:36:18.998Z</time>
      </trkpt>
      <trkpt lat="45.15397" lon="5.52779">
        <ele>1014.6</ele>
        <time>2011-05-08T08:36:28.995Z</time>
      </trkpt>
      <trkpt lat="45.15429" lon="5.52795">
        <ele>1016.5</ele>
        <time>2011-05-08T08:36:39.001Z</time>
      </trkpt>
      <trkpt lat="45.15457" lon="5.52811">
        <ele>1015.4</ele>
        <time>2011-05-08T08:36:49Z</time>
      </trkpt>
      <trkpt lat="45.15477" lon="5.52824">
        <ele>1013.7</ele>
        <time>2011-05-08T08:36:59Z</time>
      </trkpt>
      <trkpt lat="45.15502" lon="5.5284">
        <ele>1008.7</ele>
        <time>2011-05-08T08:37:14Z</time>
      </trkpt>
      <trkpt lat="45.15531" lon="5.52854">
        <ele>1011.1</ele>
        <time>2011-05-08T08:37:23.998Z</time>
      </trkpt>
      <trkpt lat="45.15562" lon="5.52871">
        <ele>1017.7</ele>
        <time>2011-05-08T08:37:34Z</time>
      </trkpt>
      <trkpt lat="45.15588" lon="5.52885">
        <ele>1021.4</ele>
        <time>2011-05-08T08:37:44.001Z</time>
      </trkpt>
      <trkpt lat="45.15616" lon="5.52892">
        <ele>1018.7</ele>
        <time>2011-05-08T08:37:54Z</time>
      </trkpt>
      <trkpt lat="45.15644" lon="5.52902">
        <ele>1018.1</ele>
        <time>2011-05-08T08:38:04Z</time>
      </trkpt>
      <trkpt lat="45.15676" lon="5.52918">
        <ele>1022.4</ele>
        <time>2011-05-08T08:38:13.998Z</time>
      </trkpt>
      <trkpt lat="45.15703" lon="5.52934">
        <ele>1027.4</ele>
        <time>2011-05-08T08:38:24Z</time>
      </trkpt>
      <trkpt lat="45.15732" lon="5.52954">
        <ele>1030.2</ele>
        <time>2011-05-08T08:38:34Z</time>
      </trkpt>
      <trkpt lat="45.15755" lon="5.52984">
        <ele>1027.1</ele>
        <time>2011-05-08T08:38:44Z</time>
      </trkpt>
      <trkpt lat="45.15765" lon="5.53022">
        <ele>1030.6</ele>
        <time>2011-05-08T08:38:54Z</time>
      </trkpt>
      <trkpt lat="45.15777" lon="5.53061">
        <ele>1031.8</ele>
        <time>2011-05-08T08:39:04.001Z</time>
      </trkpt>
      <trkpt lat="45.15797" lon="5.53099">
        <ele>1031.8</ele>
        <time>2011-05-08T08:39:14Z</time>
      </trkpt>
      <trkpt lat="45.15815" lon="5.5313">
        <ele>1029.7</ele>
        <time>2011-05-08T08:39:24Z</time>
      </trkpt>
      <trkpt lat="45.15834" lon="5.53153">
        <ele>1027.8</ele>
        <time>2011-05-08T08:39:34Z</time>
      </trkpt>
      <trkpt lat="45.15854" lon="5.53178">
        <ele>1032.7</ele>
        <time>2011-05-08T08:39:44Z</time>
      </trkpt>
      <trkpt lat="45.15875" lon="5.53205">
        <ele>1034.3</ele>
        <time>2011-05-08T08:39:54Z</time>
      </trkpt>
      <trkpt lat="45.15895" lon="5.5323">
        <ele>1034.6</ele>
        <time>2011-05-08T08:40:04Z</time>
      </trkpt>
      <trkpt lat="45.15915" lon="5.53259">
        <ele>1034.8</ele>
        <time>2011-05-08T08:40:14Z</time>
      </trkpt>
      <trkpt lat="45.15931" lon="5.53289">
        <ele>1037.3</ele>
        <time>2011-05-08T08:40:24Z</time>
      </trkpt>
      <trkpt lat="45.15943" lon="5.53322">
        <ele>1038.9</ele>
        <time>2011-05-08T08:40:34Z</time>
      </trkpt>
      <trkpt lat="45.15953" lon="5.53354">
        <ele>1040.4</ele>
        <time>2011-05-08T08:40:44.001Z</time>
      </trkpt>
      <trkpt lat="45.15964" lon="5.53388">
        <ele>1041.9</ele>
        <time>2011-05-08T08:40:54.001Z</time>
      </trkpt>
      <trkpt lat="45.15983" lon="5.53427">
        <ele>1042.6</ele>
        <time>2011-05-08T08:41:03.998Z</time>
      </trkpt>
      <trkpt lat="45.16007" lon="5.53464">
        <ele>1045.2</ele>
        <time>2011-05-08T08:41:14.001Z</time>
      </trkpt>
      <trkpt lat="45.16031" lon="5.53495">
        <ele>1048.1</ele>
        <time>2011-05-08T08:41:23.998Z</time>
      </trkpt>
      <trkpt lat="45.1606" lon="5.53525">
        <ele>1053.7</ele>
        <time>2011-05-08T08:41:34Z</time>
      </trkpt>
      <trkpt lat="45.16098" lon="5.53549">
        <ele>1053.1</ele>
        <time>2011-05-08T08:41:44.001Z</time>
      </trkpt>
      <trkpt lat="45.16118" lon="5.53561">
        <ele>1051.6</ele>
        <time>2011-05-08T08:41:49.001Z</time>
      </trkpt>
      <trkpt lat="45.16139" lon="5.53572">
        <ele>1051.6</ele>
        <time>2011-05-08T08:41:54Z</time>
      </trkpt>
      <trkpt lat="45.16177" lon="5.53592">
        <ele>1052.1</ele>
        <time>2011-05-08T08:42:04Z</time>
      </trkpt>
      <trkpt lat="45.16212" lon="5.53594">
        <ele>1047.3</ele>
        <time>2011-05-08T08:42:13.998Z</time>
      </trkpt>
      <trkpt lat="45.16247" lon="5.53593">
        <ele>1045.1</ele>
        <time>2011-05-08T08:42:24.001Z</time>
      </trkpt>
      <trkpt lat="45.1628" lon="5.53596">
        <ele>1044.8</ele>
        <time>2011-05-08T08:42:34.001Z</time>
      </trkpt>
      <trkpt lat="45.1631" lon="5.53603">
        <ele>1043.3</ele>
        <time>2011-05-08T08:42:44Z</time>
      </trkpt>
      <trkpt lat="45.16338" lon="5.53619">
        <ele>1039.1</ele>
        <time>2011-05-08T08:42:53.998Z</time>
      </trkpt>
      <trkpt lat="45.16365" lon="5.53651">
        <ele>1035.3</ele>
        <time>2011-05-08T08:43:04.001Z</time>
      </trkpt>
      <trkpt lat="45.16384" lon="5.53671">
        <ele>1033.9</ele>
        <time>2011-05-08T08:43:09.001Z</time>
      </trkpt>
      <trkpt lat="45.16426" lon="5.53677">
        <ele>1034.6</ele>
        <time>2011-05-08T08:43:18.998Z</time>
      </trkpt>
      <trkpt lat="45.16467" lon="5.53702">
        <ele>1036.8</ele>
        <time>2011-05-08T08:43:29Z</time>
      </trkpt>
      <trkpt lat="45.16488" lon="5.53725">
        <ele>1038.4</ele>
        <time>2011-05-08T08:43:34.001Z</time>
      </trkpt>
      <trkpt lat="45.16507" lon="5.53742">
        <ele>1039</ele>
        <time>2011-05-08T08:43:39.001Z</time>
      </trkpt>
      <trkpt lat="45.16539" lon="5.53769">
        <ele>1043.1</ele>
        <time>2011-05-08T08:43:49.002Z</time>
      </trkpt>
      <trkpt lat="45.16578" lon="5.53787">
        <ele>1046.8</ele>
        <time>2011-05-08T08:43:59Z</time>
      </trkpt>
      <trkpt lat="45.16614" lon="5.538">
        <ele>1053.9</ele>
        <time>2011-05-08T08:44:09.001Z</time>
      </trkpt>
      <trkpt lat="45.16649" lon="5.53816">
        <ele>1054.7</ele>
        <time>2011-05-08T08:44:19Z</time>
      </trkpt>
      <trkpt lat="45.16668" lon="5.53832">
        <ele>1053.4</ele>
        <time>2011-05-08T08:44:23.998Z</time>
      </trkpt>
      <trkpt lat="45.16687" lon="5.53854">
        <ele>1054.2</ele>
        <time>2011-05-08T08:44:28.998Z</time>
      </trkpt>
      <trkpt lat="45.16707" lon="5.53875">
        <ele>1055.3</ele>
        <time>2011-05-08T08:44:33.998Z</time>
      </trkpt>
      <trkpt lat="45.16729" lon="5.53894">
        <ele>1055.4</ele>
        <time>2011-05-08T08:44:39Z</time>
      </trkpt>
      <trkpt lat="45.16753" lon="5.53905">
        <ele>1056.1</ele>
        <time>2011-05-08T08:44:44Z</time>
      </trkpt>
      <trkpt lat="45.16801" lon="5.53902">
        <ele>1054.3</ele>
        <time>2011-05-08T08:44:54.002Z</time>
      </trkpt>
      <trkpt lat="45.16824" lon="5.53895">
        <ele>1051.6</ele>
        <time>2011-05-08T08:44:58.998Z</time>
      </trkpt>
      <trkpt lat="45.16868" lon="5.53894">
        <ele>1046.6</ele>
        <time>2011-05-08T08:45:08.997Z</time>
      </trkpt>
      <trkpt lat="45.16914" lon="5.53912">
        <ele>1045.5</ele>
        <time>2011-05-08T08:45:19Z</time>
      </trkpt>
      <trkpt lat="45.16939" lon="5.53927">
        <ele>1043.7</ele>
        <time>2011-05-08T08:45:24Z</time>
      </trkpt>
      <trkpt lat="45.16964" lon="5.53938">
        <ele>1042.2</ele>
        <time>2011-05-08T08:45:29Z</time>
      </trkpt>
      <trkpt lat="45.16988" lon="5.53945">
        <ele>1041.5</ele>
        <time>2011-05-08T08:45:34.001Z</time>
      </trkpt>
      <trkpt lat="45.17012" lon="5.53954">
        <ele>1041.1</ele>
        <time>2011-05-08T08:45:39.001Z</time>
      </trkpt>
      <trkpt lat="45.17037" lon="5.53976">
        <ele>1040</ele>
        <time>2011-05-08T08:45:44.001Z</time>
      </trkpt>
      <trkpt lat="45.17062" lon="5.54007">
        <ele>1038.3</ele>
        <time>2011-05-08T08:45:49.001Z</time>
      </trkpt>
      <trkpt lat="45.17086" lon="5.54033">
        <ele>1036.6</ele>
        <time>2011-05-08T08:45:53.997Z</time>
      </trkpt>
      <trkpt lat="45.17111" lon="5.54056">
        <ele>1035.5</ele>
        <time>2011-05-08T08:45:59Z</time>
      </trkpt>
      <trkpt lat="45.17138" lon="5.5408">
        <ele>1035.2</ele>
        <time>2011-05-08T08:46:03.995Z</time>
      </trkpt>
      <trkpt lat="45.17166" lon="5.54106">
        <ele>1034.6</ele>
        <time>2011-05-08T08:46:09Z</time>
      </trkpt>
      <trkpt lat="45.17193" lon="5.5413">
        <ele>1033.9</ele>
        <time>2011-05-08T08:46:14Z</time>
      </trkpt>
      <trkpt lat="45.17219" lon="5.54151">
        <ele>1033.9</ele>
        <time>2011-05-08T08:46:19Z</time>
      </trkpt>
      <trkpt lat="45.17243" lon="5.54169">
        <ele>1032.6</ele>
        <time>2011-05-08T08:46:24.001Z</time>
      </trkpt>
      <trkpt lat="45.17267" lon="5.54184">
        <ele>1030.5</ele>
        <time>2011-05-08T08:46:29Z</time>
      </trkpt>
      <trkpt lat="45.17292" lon="5.54195">
        <ele>1028.8</ele>
        <time>2011-05-08T08:46:34Z</time>
      </trkpt>
      <trkpt lat="45.17307" lon="5.54216">
        <ele>1029.1</ele>
        <time>2011-05-08T08:46:39.001Z</time>
      </trkpt>
      <trkpt lat="45.17311" lon="5.54282">
        <ele>1035.4</ele>
        <time>2011-05-08T08:46:49.001Z</time>
      </trkpt>
      <trkpt lat="45.17319" lon="5.54345">
        <ele>1042</ele>
        <time>2011-05-08T08:46:58.998Z</time>
      </trkpt>
      <trkpt lat="45.17332" lon="5.544">
        <ele>1047.3</ele>
        <time>2011-05-08T08:47:08.998Z</time>
      </trkpt>
      <trkpt lat="45.17345" lon="5.5445">
        <ele>1055.8</ele>
        <time>2011-05-08T08:47:18.998Z</time>
      </trkpt>
      <trkpt lat="45.1735" lon="5.54497">
        <ele>1058.6</ele>
        <time>2011-05-08T08:47:29Z</time>
      </trkpt>
      <trkpt lat="45.17342" lon="5.54545">
        <ele>1060.7</ele>
        <time>2011-05-08T08:47:39Z</time>
      </trkpt>
      <trkpt lat="45.17326" lon="5.54584">
        <ele>1061.9</ele>
        <time>2011-05-08T08:47:49Z</time>
      </trkpt>
      <trkpt lat="45.17309" lon="5.54622">
        <ele>1063.2</ele>
        <time>2011-05-08T08:47:59.001Z</time>
      </trkpt>
      <trkpt lat="45.17294" lon="5.54661">
        <ele>1067.1</ele>
        <time>2011-05-08T08:48:09.001Z</time>
      </trkpt>
      <trkpt lat="45.17276" lon="5.54701">
        <ele>1069.9</ele>
        <time>2011-05-08T08:48:18.998Z</time>
      </trkpt>
      <trkpt lat="45.17257" lon="5.5474">
        <ele>1071.8</ele>
        <time>2011-05-08T08:48:29Z</time>
      </trkpt>
      <trkpt lat="45.1724" lon="5.54772">
        <ele>1071.1</ele>
        <time>2011-05-08T08:48:39.001Z</time>
      </trkpt>
      <trkpt lat="45.17222" lon="5.54756">
        <ele>1071.5</ele>
        <time>2011-05-08T08:49:13.997Z</time>
      </trkpt>
      <trkpt lat="45.17237" lon="5.54728">
        <ele>1056.7</ele>
        <time>2011-05-08T09:03:04.001Z</time>
      </trkpt>
      <trkpt lat="45.17252" lon="5.54704">
        <ele>1057.4</ele>
        <time>2011-05-08T09:03:18.998Z</time>
      </trkpt>
      <trkpt lat="45.17261" lon="5.54675">
        <ele>1049.6</ele>
        <time>2011-05-08T09:03:34Z</time>
      </trkpt>
      <trkpt lat="45.17254" lon="5.54636">
        <ele>1056.4</ele>
        <time>2011-05-08T09:03:58.998Z</time>
      </trkpt>
      <trkpt lat="45.17242" lon="5.54609">
        <ele>1067</ele>
        <time>2011-05-08T09:19:54Z</time>
      </trkpt>
      <trkpt lat="45.17251" lon="5.5464">
        <ele>1064.3</ele>
        <time>2011-05-08T09:42:44.002Z</time>
      </trkpt>
      <trkpt lat="45.17255" lon="5.54675">
        <ele>1067.1</ele>
        <time>2011-05-08T09:43:04.001Z</time>
      </trkpt>
      <trkpt lat="45.17242" lon="5.547">
        <ele>1061.3</ele>
        <time>2011-05-08T09:43:18.998Z</time>
      </trkpt>
      <trkpt lat="45.1723" lon="5.54729">
        <ele>1064.5</ele>
        <time>2011-05-08T09:43:39.001Z</time>
      </trkpt>
      <trkpt lat="45.17211" lon="5.54755">
        <ele>1045</ele>
        <time>2011-05-08T09:47:24.004Z</time>
      </trkpt>
      <trkpt lat="45.17241" lon="5.54733">
        <ele>1063.8</ele>
        <time>2011-05-08T09:47:49.001Z</time>
      </trkpt>
      <trkpt lat="45.17259" lon="5.54699">
        <ele>1063.9</ele>
        <time>2011-05-08T09:47:53.998Z</time>
      </trkpt>
      <trkpt lat="45.17277" lon="5.54661">
        <ele>1061.3</ele>
        <time>2011-05-08T09:47:59Z</time>
      </trkpt>
      <trkpt lat="45.17296" lon="5.54623">
        <ele>1058</ele>
        <time>2011-05-08T09:48:04Z</time>
      </trkpt>
      <trkpt lat="45.17314" lon="5.54583">
        <ele>1056.6</ele>
        <time>2011-05-08T09:48:09Z</time>
      </trkpt>
      <trkpt lat="45.17333" lon="5.54543">
        <ele>1055.2</ele>
        <time>2011-05-08T09:48:13.998Z</time>
      </trkpt>
      <trkpt lat="45.17351" lon="5.54513">
        <ele>1052.1</ele>
        <time>2011-05-08T09:48:19Z</time>
      </trkpt>
      <trkpt lat="45.17374" lon="5.54506">
        <ele>1048.8</ele>
        <time>2011-05-08T09:48:23.998Z</time>
      </trkpt>
      <trkpt lat="45.17393" lon="5.5453">
        <ele>1043.6</ele>
        <time>2011-05-08T09:48:29Z</time>
      </trkpt>
      <trkpt lat="45.17412" lon="5.54554">
        <ele>1040.8</ele>
        <time>2011-05-08T09:48:34.001Z</time>
      </trkpt>
      <trkpt lat="45.1743" lon="5.54576">
        <ele>1040.1</ele>
        <time>2011-05-08T09:48:39.001Z</time>
      </trkpt>
      <trkpt lat="45.17447" lon="5.54598">
        <ele>1041</ele>
        <time>2011-05-08T09:48:44Z</time>
      </trkpt>
      <trkpt lat="45.17463" lon="5.54619">
        <ele>1042.7</ele>
        <time>2011-05-08T09:48:49Z</time>
      </trkpt>
      <trkpt lat="45.1748" lon="5.5464">
        <ele>1043.4</ele>
        <time>2011-05-08T09:48:53.998Z</time>
      </trkpt>
      <trkpt lat="45.17495" lon="5.54662">
        <ele>1044.9</ele>
        <time>2011-05-08T09:48:58.998Z</time>
      </trkpt>
      <trkpt lat="45.17509" lon="5.54679">
        <ele>1047.7</ele>
        <time>2011-05-08T09:49:04.001Z</time>
      </trkpt>
      <trkpt lat="45.17538" lon="5.54652">
        <ele>1049.3</ele>
        <time>2011-05-08T09:49:14Z</time>
      </trkpt>
      <trkpt lat="45.17551" lon="5.54625">
        <ele>1045.5</ele>
        <time>2011-05-08T09:49:19.001Z</time>
      </trkpt>
      <trkpt lat="45.17563" lon="5.54601">
        <ele>1042.7</ele>
        <time>2011-05-08T09:49:24Z</time>
      </trkpt>
      <trkpt lat="45.17582" lon="5.54568">
        <ele>1039.8</ele>
        <time>2011-05-08T09:49:29.001Z</time>
      </trkpt>
      <trkpt lat="45.17597" lon="5.5453">
        <ele>1036.7</ele>
        <time>2011-05-08T09:49:34Z</time>
      </trkpt>
      <trkpt lat="45.17614" lon="5.545">
        <ele>1034</ele>
        <time>2011-05-08T09:49:38.997Z</time>
      </trkpt>
      <trkpt lat="45.17638" lon="5.54507">
        <ele>1037.2</ele>
        <time>2011-05-08T09:49:49.001Z</time>
      </trkpt>
      <trkpt lat="45.17651" lon="5.54542">
        <ele>1044.4</ele>
        <time>2011-05-08T09:49:54.001Z</time>
      </trkpt>
      <trkpt lat="45.17665" lon="5.54579">
        <ele>1052.5</ele>
        <time>2011-05-08T09:49:59.001Z</time>
      </trkpt>
      <trkpt lat="45.17677" lon="5.54617">
        <ele>1057.5</ele>
        <time>2011-05-08T09:50:04.001Z</time>
      </trkpt>
      <trkpt lat="45.17686" lon="5.54657">
        <ele>1059.4</ele>
        <time>2011-05-08T09:50:09Z</time>
      </trkpt>
      <trkpt lat="45.1769" lon="5.54696">
        <ele>1059.3</ele>
        <time>2011-05-08T09:50:14Z</time>
      </trkpt>
      <trkpt lat="45.17693" lon="5.54732">
        <ele>1058.6</ele>
        <time>2011-05-08T09:50:19Z</time>
      </trkpt>
      <trkpt lat="45.17702" lon="5.54764">
        <ele>1056.5</ele>
        <time>2011-05-08T09:50:24Z</time>
      </trkpt>
      <trkpt lat="45.17711" lon="5.5479">
        <ele>1055.6</ele>
        <time>2011-05-08T09:50:28.995Z</time>
      </trkpt>
      <trkpt lat="45.17729" lon="5.54839">
        <ele>1059</ele>
        <time>2011-05-08T09:50:39.001Z</time>
      </trkpt>
      <trkpt lat="45.17751" lon="5.54886">
        <ele>1060.2</ele>
        <time>2011-05-08T09:50:48.998Z</time>
      </trkpt>
      <trkpt lat="45.17762" lon="5.5491">
        <ele>1061.8</ele>
        <time>2011-05-08T09:50:54.001Z</time>
      </trkpt>
      <trkpt lat="45.17782" lon="5.54952">
        <ele>1069</ele>
        <time>2011-05-08T09:51:04.001Z</time>
      </trkpt>
      <trkpt lat="45.17801" lon="5.54998">
        <ele>1070.1</ele>
        <time>2011-05-08T09:51:14.001Z</time>
      </trkpt>
      <trkpt lat="45.17815" lon="5.55023">
        <ele>1068.5</ele>
        <time>2011-05-08T09:51:19Z</time>
      </trkpt>
      <trkpt lat="45.17829" lon="5.55049">
        <ele>1069.6</ele>
        <time>2011-05-08T09:51:24Z</time>
      </trkpt>
      <trkpt lat="45.17844" lon="5.55074">
        <ele>1076.1</ele>
        <time>2011-05-08T09:51:29Z</time>
      </trkpt>
      <trkpt lat="45.17858" lon="5.55102">
        <ele>1080.4</ele>
        <time>2011-05-08T09:51:34Z</time>
      </trkpt>
      <trkpt lat="45.17871" lon="5.55135">
        <ele>1082</ele>
        <time>2011-05-08T09:51:38.998Z</time>
      </trkpt>
      <trkpt lat="45.17881" lon="5.55168">
        <ele>1081.7</ele>
        <time>2011-05-08T09:51:43.998Z</time>
      </trkpt>
      <trkpt lat="45.1789" lon="5.55196">
        <ele>1081.2</ele>
        <time>2011-05-08T09:51:48.998Z</time>
      </trkpt>
      <trkpt lat="45.17901" lon="5.55225">
        <ele>1080.3</ele>
        <time>2011-05-08T09:51:53.997Z</time>
      </trkpt>
      <trkpt lat="45.17911" lon="5.55255">
        <ele>1078.5</ele>
        <time>2011-05-08T09:51:58.998Z</time>
      </trkpt>
      <trkpt lat="45.17923" lon="5.55285">
        <ele>1077.1</ele>
        <time>2011-05-08T09:52:04.004Z</time>
      </trkpt>
      <trkpt lat="45.17934" lon="5.55313">
        <ele>1074.6</ele>
        <time>2011-05-08T09:52:08.998Z</time>
      </trkpt>
      <trkpt lat="45.17947" lon="5.5534">
        <ele>1071.7</ele>
        <time>2011-05-08T09:52:14.001Z</time>
      </trkpt>
      <trkpt lat="45.17962" lon="5.55364">
        <ele>1069.6</ele>
        <time>2011-05-08T09:52:19.002Z</time>
      </trkpt>
      <trkpt lat="45.17979" lon="5.55387">
        <ele>1068.5</ele>
        <time>2011-05-08T09:52:24Z</time>
      </trkpt>
      <trkpt lat="45.17994" lon="5.55409">
        <ele>1068.8</ele>
        <time>2011-05-08T09:52:29.001Z</time>
      </trkpt>
      <trkpt lat="45.18008" lon="5.55433">
        <ele>1068.4</ele>
        <time>2011-05-08T09:52:34.001Z</time>
      </trkpt>
      <trkpt lat="45.18021" lon="5.55458">
        <ele>1066.2</ele>
        <time>2011-05-08T09:52:39Z</time>
      </trkpt>
      <trkpt lat="45.18034" lon="5.5548">
        <ele>1064</ele>
        <time>2011-05-08T09:52:44.004Z</time>
      </trkpt>
      <trkpt lat="45.18058" lon="5.55525">
        <ele>1058.5</ele>
        <time>2011-05-08T09:52:54.004Z</time>
      </trkpt>
      <trkpt lat="45.18071" lon="5.5555">
        <ele>1059.4</ele>
        <time>2011-05-08T09:52:59.004Z</time>
      </trkpt>
      <trkpt lat="45.18084" lon="5.55575">
        <ele>1064.3</ele>
        <time>2011-05-08T09:53:03.998Z</time>
      </trkpt>
      <trkpt lat="45.18096" lon="5.55605">
        <ele>1068.3</ele>
        <time>2011-05-08T09:53:09.002Z</time>
      </trkpt>
      <trkpt lat="45.18108" lon="5.55633">
        <ele>1068.1</ele>
        <time>2011-05-08T09:53:14.001Z</time>
      </trkpt>
      <trkpt lat="45.18119" lon="5.55658">
        <ele>1067.6</ele>
        <time>2011-05-08T09:53:18.998Z</time>
      </trkpt>
      <trkpt lat="45.18133" lon="5.55684">
        <ele>1067.1</ele>
        <time>2011-05-08T09:53:24.004Z</time>
      </trkpt>
      <trkpt lat="45.18148" lon="5.55705">
        <ele>1067.9</ele>
        <time>2011-05-08T09:53:29Z</time>
      </trkpt>
      <trkpt lat="45.18163" lon="5.55725">
        <ele>1068</ele>
        <time>2011-05-08T09:53:33.995Z</time>
      </trkpt>
      <trkpt lat="45.1818" lon="5.55742">
        <ele>1067.5</ele>
        <time>2011-05-08T09:53:39.002Z</time>
      </trkpt>
      <trkpt lat="45.182" lon="5.5576">
        <ele>1065.3</ele>
        <time>2011-05-08T09:53:43.998Z</time>
      </trkpt>
      <trkpt lat="45.18219" lon="5.55776">
        <ele>1063.9</ele>
        <time>2011-05-08T09:53:49.001Z</time>
      </trkpt>
      <trkpt lat="45.18239" lon="5.55792">
        <ele>1061.8</ele>
        <time>2011-05-08T09:53:53.998Z</time>
      </trkpt>
      <trkpt lat="45.1826" lon="5.55806">
        <ele>1061.1</ele>
        <time>2011-05-08T09:53:58.998Z</time>
      </trkpt>
      <trkpt lat="45.18281" lon="5.55821">
        <ele>1064.1</ele>
        <time>2011-05-08T09:54:04Z</time>
      </trkpt>
      <trkpt lat="45.18303" lon="5.55836">
        <ele>1069.9</ele>
        <time>2011-05-08T09:54:09Z</time>
      </trkpt>
      <trkpt lat="45.18327" lon="5.55853">
        <ele>1074</ele>
        <time>2011-05-08T09:54:14Z</time>
      </trkpt>
      <trkpt lat="45.18348" lon="5.55867">
        <ele>1076.7</ele>
        <time>2011-05-08T09:54:19.001Z</time>
      </trkpt>
      <trkpt lat="45.18366" lon="5.5588">
        <ele>1078.5</ele>
        <time>2011-05-08T09:54:24.001Z</time>
      </trkpt>
      <trkpt lat="45.18381" lon="5.55898">
        <ele>1079.6</ele>
        <time>2011-05-08T09:54:29Z</time>
      </trkpt>
      <trkpt lat="45.1841" lon="5.5593">
        <ele>1073.4</ele>
        <time>2011-05-08T09:54:38.998Z</time>
      </trkpt>
      <trkpt lat="45.18429" lon="5.55954">
        <ele>1071.6</ele>
        <time>2011-05-08T09:54:44.001Z</time>
      </trkpt>
      <trkpt lat="45.18449" lon="5.55976">
        <ele>1071.3</ele>
        <time>2011-05-08T09:54:49.001Z</time>
      </trkpt>
      <trkpt lat="45.18469" lon="5.55999">
        <ele>1074.2</ele>
        <time>2011-05-08T09:54:53.998Z</time>
      </trkpt>
      <trkpt lat="45.18488" lon="5.56025">
        <ele>1075.4</ele>
        <time>2011-05-08T09:54:58.998Z</time>
      </trkpt>
      <trkpt lat="45.18505" lon="5.56053">
        <ele>1074.4</ele>
        <time>2011-05-08T09:55:03.998Z</time>
      </trkpt>
      <trkpt lat="45.18518" lon="5.56078">
        <ele>1074.2</ele>
        <time>2011-05-08T09:55:09.001Z</time>
      </trkpt>
      <trkpt lat="45.18532" lon="5.56097">
        <ele>1073.5</ele>
        <time>2011-05-08T09:55:13.998Z</time>
      </trkpt>
      <trkpt lat="45.18563" lon="5.56128">
        <ele>1071.1</ele>
        <time>2011-05-08T09:55:24.001Z</time>
      </trkpt>
      <trkpt lat="45.18599" lon="5.56161">
        <ele>1075.4</ele>
        <time>2011-05-08T09:55:34Z</time>
      </trkpt>
      <trkpt lat="45.18619" lon="5.56177">
        <ele>1081.4</ele>
        <time>2011-05-08T09:55:39Z</time>
      </trkpt>
      <trkpt lat="45.18664" lon="5.5619">
        <ele>1092.8</ele>
        <time>2011-05-08T09:55:49Z</time>
      </trkpt>
      <trkpt lat="45.18695" lon="5.56193">
        <ele>1095.1</ele>
        <time>2011-05-08T09:55:54Z</time>
      </trkpt>
      <trkpt lat="45.18727" lon="5.56194">
        <ele>1095.9</ele>
        <time>2011-05-08T09:55:58.998Z</time>
      </trkpt>
      <trkpt lat="45.18759" lon="5.56203">
        <ele>1095.2</ele>
        <time>2011-05-08T09:56:04Z</time>
      </trkpt>
      <trkpt lat="45.18791" lon="5.56218">
        <ele>1094.2</ele>
        <time>2011-05-08T09:56:09Z</time>
      </trkpt>
      <trkpt lat="45.18819" lon="5.56244">
        <ele>1093.9</ele>
        <time>2011-05-08T09:56:14Z</time>
      </trkpt>
      <trkpt lat="45.18847" lon="5.56272">
        <ele>1093.5</ele>
        <time>2011-05-08T09:56:19Z</time>
      </trkpt>
      <trkpt lat="45.18875" lon="5.56295">
        <ele>1092.1</ele>
        <time>2011-05-08T09:56:24Z</time>
      </trkpt>
      <trkpt lat="45.18904" lon="5.56311">
        <ele>1088.1</ele>
        <time>2011-05-08T09:56:28.997Z</time>
      </trkpt>
      <trkpt lat="45.18935" lon="5.56317">
        <ele>1085.1</ele>
        <time>2011-05-08T09:56:34Z</time>
      </trkpt>
      <trkpt lat="45.18966" lon="5.56318">
        <ele>1080.7</ele>
        <time>2011-05-08T09:56:39Z</time>
      </trkpt>
      <trkpt lat="45.18997" lon="5.56323">
        <ele>1076.6</ele>
        <time>2011-05-08T09:56:44Z</time>
      </trkpt>
      <trkpt lat="45.19026" lon="5.56339">
        <ele>1074.5</ele>
        <time>2011-05-08T09:56:48.998Z</time>
      </trkpt>
      <trkpt lat="45.19052" lon="5.56361">
        <ele>1071.8</ele>
        <time>2011-05-08T09:56:54Z</time>
      </trkpt>
      <trkpt lat="45.19077" lon="5.56384">
        <ele>1069.3</ele>
        <time>2011-05-08T09:56:59Z</time>
      </trkpt>
      <trkpt lat="45.19101" lon="5.56405">
        <ele>1068.6</ele>
        <time>2011-05-08T09:57:03.998Z</time>
      </trkpt>
      <trkpt lat="45.19126" lon="5.56421">
        <ele>1068.9</ele>
        <time>2011-05-08T09:57:09Z</time>
      </trkpt>
      <trkpt lat="45.19151" lon="5.56436">
        <ele>1072</ele>
        <time>2011-05-08T09:57:14Z</time>
      </trkpt>
      <trkpt lat="45.19177" lon="5.56451">
        <ele>1073.6</ele>
        <time>2011-05-08T09:57:19.001Z</time>
      </trkpt>
      <trkpt lat="45.19203" lon="5.56468">
        <ele>1076.3</ele>
        <time>2011-05-08T09:57:24.001Z</time>
      </trkpt>
      <trkpt lat="45.19228" lon="5.56486">
        <ele>1078.4</ele>
        <time>2011-05-08T09:57:28.998Z</time>
      </trkpt>
      <trkpt lat="45.19253" lon="5.56503">
        <ele>1080.6</ele>
        <time>2011-05-08T09:57:34.002Z</time>
      </trkpt>
      <trkpt lat="45.19278" lon="5.56519">
        <ele>1082.8</ele>
        <time>2011-05-08T09:57:39.001Z</time>
      </trkpt>
      <trkpt lat="45.19301" lon="5.56535">
        <ele>1083.8</ele>
        <time>2011-05-08T09:57:43.998Z</time>
      </trkpt>
      <trkpt lat="45.19325" lon="5.56553">
        <ele>1086.7</ele>
        <time>2011-05-08T09:57:49Z</time>
      </trkpt>
      <trkpt lat="45.19348" lon="5.56571">
        <ele>1088.4</ele>
        <time>2011-05-08T09:57:53.997Z</time>
      </trkpt>
      <trkpt lat="45.19368" lon="5.56588">
        <ele>1087.8</ele>
        <time>2011-05-08T09:57:58.998Z</time>
      </trkpt>
      <trkpt lat="45.1939" lon="5.56604">
        <ele>1086.2</ele>
        <time>2011-05-08T09:58:04Z</time>
      </trkpt>
      <trkpt lat="45.1941" lon="5.56622">
        <ele>1085.9</ele>
        <time>2011-05-08T09:58:09Z</time>
      </trkpt>
      <trkpt lat="45.19429" lon="5.56639">
        <ele>1086.6</ele>
        <time>2011-05-08T09:58:14Z</time>
      </trkpt>
      <trkpt lat="45.19447" lon="5.56657">
        <ele>1086.2</ele>
        <time>2011-05-08T09:58:19Z</time>
      </trkpt>
      <trkpt lat="45.19467" lon="5.56674">
        <ele>1085.9</ele>
        <time>2011-05-08T09:58:24.001Z</time>
      </trkpt>
      <trkpt lat="45.19487" lon="5.5669">
        <ele>1087.5</ele>
        <time>2011-05-08T09:58:28.998Z</time>
      </trkpt>
      <trkpt lat="45.19505" lon="5.56705">
        <ele>1092.2</ele>
        <time>2011-05-08T09:58:34Z</time>
      </trkpt>
      <trkpt lat="45.19522" lon="5.56721">
        <ele>1095.7</ele>
        <time>2011-05-08T09:58:39Z</time>
      </trkpt>
      <trkpt lat="45.19538" lon="5.5674">
        <ele>1097.8</ele>
        <time>2011-05-08T09:58:44Z</time>
      </trkpt>
      <trkpt lat="45.19554" lon="5.56759">
        <ele>1100</ele>
        <time>2011-05-08T09:58:49Z</time>
      </trkpt>
      <trkpt lat="45.1957" lon="5.56778">
        <ele>1103.8</ele>
        <time>2011-05-08T09:58:53.998Z</time>
      </trkpt>
      <trkpt lat="45.19587" lon="5.56797">
        <ele>1106.5</ele>
        <time>2011-05-08T09:58:59Z</time>
      </trkpt>
      <trkpt lat="45.19608" lon="5.56816">
        <ele>1106.6</ele>
        <time>2011-05-08T09:59:04Z</time>
      </trkpt>
      <trkpt lat="45.19627" lon="5.56832">
        <ele>1107.2</ele>
        <time>2011-05-08T09:59:09Z</time>
      </trkpt>
      <trkpt lat="45.19646" lon="5.56844">
        <ele>1110</ele>
        <time>2011-05-08T09:59:14Z</time>
      </trkpt>
      <trkpt lat="45.19687" lon="5.56856">
        <ele>1113.3</ele>
        <time>2011-05-08T09:59:23.997Z</time>
      </trkpt>
      <trkpt lat="45.1973" lon="5.56861">
        <ele>1114.3</ele>
        <time>2011-05-08T09:59:33.997Z</time>
      </trkpt>
      <trkpt lat="45.19775" lon="5.56866">
        <ele>1112.9</ele>
        <time>2011-05-08T09:59:44Z</time>
      </trkpt>
      <trkpt lat="45.19818" lon="5.56882">
        <ele>1119.3</ele>
        <time>2011-05-08T09:59:54Z</time>
      </trkpt>
      <trkpt lat="45.19859" lon="5.56901">
        <ele>1126.8</ele>
        <time>2011-05-08T10:00:04Z</time>
      </trkpt>
      <trkpt lat="45.1988" lon="5.56912">
        <ele>1127.3</ele>
        <time>2011-05-08T10:00:09Z</time>
      </trkpt>
      <trkpt lat="45.19902" lon="5.56923">
        <ele>1127.9</ele>
        <time>2011-05-08T10:00:14.001Z</time>
      </trkpt>
      <trkpt lat="45.19922" lon="5.56933">
        <ele>1129.6</ele>
        <time>2011-05-08T10:00:18.997Z</time>
      </trkpt>
      <trkpt lat="45.19942" lon="5.56944">
        <ele>1129.6</ele>
        <time>2011-05-08T10:00:24.010Z</time>
      </trkpt>
      <trkpt lat="45.19963" lon="5.56954">
        <ele>1129.2</ele>
        <time>2011-05-08T10:00:29Z</time>
      </trkpt>
      <trkpt lat="45.19985" lon="5.56965">
        <ele>1130.3</ele>
        <time>2011-05-08T10:00:34Z</time>
      </trkpt>
      <trkpt lat="45.20008" lon="5.56973">
        <ele>1133.4</ele>
        <time>2011-05-08T10:00:38.998Z</time>
      </trkpt>
      <trkpt lat="45.20031" lon="5.56981">
        <ele>1134.8</ele>
        <time>2011-05-08T10:00:44.001Z</time>
      </trkpt>
      <trkpt lat="45.20053" lon="5.56991">
        <ele>1136.4</ele>
        <time>2011-05-08T10:00:49Z</time>
      </trkpt>
      <trkpt lat="45.20074" lon="5.57004">
        <ele>1132.5</ele>
        <time>2011-05-08T10:00:53.998Z</time>
      </trkpt>
      <trkpt lat="45.20093" lon="5.57018">
        <ele>1130.8</ele>
        <time>2011-05-08T10:00:59.001Z</time>
      </trkpt>
      <trkpt lat="45.20111" lon="5.57032">
        <ele>1129.5</ele>
        <time>2011-05-08T10:01:04Z</time>
      </trkpt>
      <trkpt lat="45.20147" lon="5.57052">
        <ele>1129.1</ele>
        <time>2011-05-08T10:01:13.998Z</time>
      </trkpt>
      <trkpt lat="45.20179" lon="5.57071">
        <ele>1130.4</ele>
        <time>2011-05-08T10:01:23.998Z</time>
      </trkpt>
      <trkpt lat="45.20218" lon="5.5709">
        <ele>1134.2</ele>
        <time>2011-05-08T10:01:34Z</time>
      </trkpt>
      <trkpt lat="45.20256" lon="5.57103">
        <ele>1137.9</ele>
        <time>2011-05-08T10:01:44Z</time>
      </trkpt>
      <trkpt lat="45.20291" lon="5.57113">
        <ele>1145.6</ele>
        <time>2011-05-08T10:01:54Z</time>
      </trkpt>
      <trkpt lat="45.20325" lon="5.57133">
        <ele>1147</ele>
        <time>2011-05-08T10:02:04Z</time>
      </trkpt>
      <trkpt lat="45.20356" lon="5.57158">
        <ele>1147.1</ele>
        <time>2011-05-08T10:02:14Z</time>
      </trkpt>
      <trkpt lat="45.2039" lon="5.57184">
        <ele>1138.5</ele>
        <time>2011-05-08T10:02:24Z</time>
      </trkpt>
      <trkpt lat="45.20408" lon="5.57196">
        <ele>1133.6</ele>
        <time>2011-05-08T10:02:28.998Z</time>
      </trkpt>
      <trkpt lat="45.20426" lon="5.57211">
        <ele>1129.3</ele>
        <time>2011-05-08T10:02:34Z</time>
      </trkpt>
      <trkpt lat="45.20444" lon="5.57223">
        <ele>1122.8</ele>
        <time>2011-05-08T10:02:39.001Z</time>
      </trkpt>
      <trkpt lat="45.20482" lon="5.57241">
        <ele>1104.6</ele>
        <time>2011-05-08T10:02:49.001Z</time>
      </trkpt>
      <trkpt lat="45.20519" lon="5.57263">
        <ele>1093.5</ele>
        <time>2011-05-08T10:02:59.001Z</time>
      </trkpt>
      <trkpt lat="45.20538" lon="5.57276">
        <ele>1091.3</ele>
        <time>2011-05-08T10:03:04Z</time>
      </trkpt>
      <trkpt lat="45.20576" lon="5.57296">
        <ele>1085.7</ele>
        <time>2011-05-08T10:03:14.014Z</time>
      </trkpt>
      <trkpt lat="45.20612" lon="5.57314">
        <ele>1087.7</ele>
        <time>2011-05-08T10:03:24Z</time>
      </trkpt>
      <trkpt lat="45.20647" lon="5.57336">
        <ele>1094</ele>
        <time>2011-05-08T10:03:34Z</time>
      </trkpt>
      <trkpt lat="45.20681" lon="5.57357">
        <ele>1101.6</ele>
        <time>2011-05-08T10:03:44Z</time>
      </trkpt>
      <trkpt lat="45.20715" lon="5.57376">
        <ele>1109.7</ele>
        <time>2011-05-08T10:03:54Z</time>
      </trkpt>
      <trkpt lat="45.20745" lon="5.57388">
        <ele>1119.4</ele>
        <time>2011-05-08T10:04:04Z</time>
      </trkpt>
      <trkpt lat="45.20775" lon="5.57398">
        <ele>1128.7</ele>
        <time>2011-05-08T10:04:14Z</time>
      </trkpt>
      <trkpt lat="45.20806" lon="5.57411">
        <ele>1143.8</ele>
        <time>2011-05-08T10:04:24Z</time>
      </trkpt>
      <trkpt lat="45.20838" lon="5.57426">
        <ele>1152.5</ele>
        <time>2011-05-08T10:04:33.997Z</time>
      </trkpt>
      <trkpt lat="45.2087" lon="5.57441">
        <ele>1153.3</ele>
        <time>2011-05-08T10:04:44Z</time>
      </trkpt>
      <trkpt lat="45.20899" lon="5.57455">
        <ele>1151.6</ele>
        <time>2011-05-08T10:04:54.001Z</time>
      </trkpt>
      <trkpt lat="45.20928" lon="5.57466">
        <ele>1155</ele>
        <time>2011-05-08T10:05:04Z</time>
      </trkpt>
      <trkpt lat="45.20949" lon="5.57477">
        <ele>1166.7</ele>
        <time>2011-05-08T10:05:14Z</time>
      </trkpt>
      <trkpt lat="45.20972" lon="5.57486">
        <ele>1174.2</ele>
        <time>2011-05-08T10:05:24.001Z</time>
      </trkpt>
      <trkpt lat="45.20997" lon="5.57488">
        <ele>1173.9</ele>
        <time>2011-05-08T10:05:34.001Z</time>
      </trkpt>
      <trkpt lat="45.2103" lon="5.57497">
        <ele>1169.8</ele>
        <time>2011-05-08T10:05:44Z</time>
      </trkpt>
      <trkpt lat="45.21063" lon="5.57509">
        <ele>1165</ele>
        <time>2011-05-08T10:05:54Z</time>
      </trkpt>
      <trkpt lat="45.21098" lon="5.57519">
        <ele>1156.9</ele>
        <time>2011-05-08T10:06:03.998Z</time>
      </trkpt>
      <trkpt lat="45.21129" lon="5.57531">
        <ele>1152.9</ele>
        <time>2011-05-08T10:06:14Z</time>
      </trkpt>
      <trkpt lat="45.21162" lon="5.57541">
        <ele>1154.2</ele>
        <time>2011-05-08T10:06:24Z</time>
      </trkpt>
      <trkpt lat="45.21194" lon="5.57549">
        <ele>1159.6</ele>
        <time>2011-05-08T10:06:34Z</time>
      </trkpt>
      <trkpt lat="45.21225" lon="5.57557">
        <ele>1166.7</ele>
        <time>2011-05-08T10:06:44Z</time>
      </trkpt>
      <trkpt lat="45.21254" lon="5.57565">
        <ele>1178.9</ele>
        <time>2011-05-08T10:06:54.001Z</time>
      </trkpt>
      <trkpt lat="45.21283" lon="5.57574">
        <ele>1186.3</ele>
        <time>2011-05-08T10:07:03.998Z</time>
      </trkpt>
      <trkpt lat="45.21312" lon="5.57585">
        <ele>1191.9</ele>
        <time>2011-05-08T10:07:13.998Z</time>
      </trkpt>
      <trkpt lat="45.21343" lon="5.57601">
        <ele>1191.4</ele>
        <time>2011-05-08T10:07:24Z</time>
      </trkpt>
      <trkpt lat="45.21372" lon="5.57616">
        <ele>1192.4</ele>
        <time>2011-05-08T10:07:34Z</time>
      </trkpt>
      <trkpt lat="45.21399" lon="5.57628">
        <ele>1199.9</ele>
        <time>2011-05-08T10:07:44Z</time>
      </trkpt>
      <trkpt lat="45.2143" lon="5.57644">
        <ele>1195.5</ele>
        <time>2011-05-08T10:07:54Z</time>
      </trkpt>
      <trkpt lat="45.21462" lon="5.57659">
        <ele>1178.2</ele>
        <time>2011-05-08T10:08:04.001Z</time>
      </trkpt>
      <trkpt lat="45.21496" lon="5.57681">
        <ele>1171.2</ele>
        <time>2011-05-08T10:08:13.998Z</time>
      </trkpt>
      <trkpt lat="45.21525" lon="5.577">
        <ele>1168.9</ele>
        <time>2011-05-08T10:08:24Z</time>
      </trkpt>
      <trkpt lat="45.21552" lon="5.57718">
        <ele>1160.7</ele>
        <time>2011-05-08T10:08:34.001Z</time>
      </trkpt>
      <trkpt lat="45.21581" lon="5.57736">
        <ele>1157.8</ele>
        <time>2011-05-08T10:08:44Z</time>
      </trkpt>
      <trkpt lat="45.21608" lon="5.57749">
        <ele>1162</ele>
        <time>2011-05-08T10:08:54.002Z</time>
      </trkpt>
      <trkpt lat="45.21636" lon="5.57765">
        <ele>1165.8</ele>
        <time>2011-05-08T10:09:03.998Z</time>
      </trkpt>
      <trkpt lat="45.21662" lon="5.57781">
        <ele>1165.7</ele>
        <time>2011-05-08T10:09:14Z</time>
      </trkpt>
      <trkpt lat="45.21689" lon="5.57795">
        <ele>1162.5</ele>
        <time>2011-05-08T10:09:24.001Z</time>
      </trkpt>
      <trkpt lat="45.21717" lon="5.57809">
        <ele>1161.9</ele>
        <time>2011-05-08T10:09:34Z</time>
      </trkpt>
      <trkpt lat="45.21743" lon="5.5782">
        <ele>1165.6</ele>
        <time>2011-05-08T10:09:44.001Z</time>
      </trkpt>
      <trkpt lat="45.21767" lon="5.57834">
        <ele>1167.7</ele>
        <time>2011-05-08T10:09:54Z</time>
      </trkpt>
      <trkpt lat="45.21794" lon="5.57849">
        <ele>1162.5</ele>
        <time>2011-05-08T10:10:04Z</time>
      </trkpt>
      <trkpt lat="45.21822" lon="5.57859">
        <ele>1160.6</ele>
        <time>2011-05-08T10:10:14.001Z</time>
      </trkpt>
      <trkpt lat="45.21851" lon="5.57865">
        <ele>1160.6</ele>
        <time>2011-05-08T10:10:24.001Z</time>
      </trkpt>
      <trkpt lat="45.21879" lon="5.5787">
        <ele>1159.5</ele>
        <time>2011-05-08T10:10:34.013Z</time>
      </trkpt>
      <trkpt lat="45.2191" lon="5.57878">
        <ele>1165.7</ele>
        <time>2011-05-08T10:10:44Z</time>
      </trkpt>
      <trkpt lat="45.21938" lon="5.57886">
        <ele>1168</ele>
        <time>2011-05-08T10:10:54Z</time>
      </trkpt>
      <trkpt lat="45.21965" lon="5.57894">
        <ele>1178.3</ele>
        <time>2011-05-08T10:11:04.001Z</time>
      </trkpt>
      <trkpt lat="45.21992" lon="5.57901">
        <ele>1187.2</ele>
        <time>2011-05-08T10:11:14.001Z</time>
      </trkpt>
      <trkpt lat="45.22023" lon="5.5791">
        <ele>1209.3</ele>
        <time>2011-05-08T10:11:29Z</time>
      </trkpt>
      <trkpt lat="45.22049" lon="5.57912">
        <ele>1240.4</ele>
        <time>2011-05-08T10:12:44Z</time>
      </trkpt>
      <trkpt lat="45.22075" lon="5.57916">
        <ele>1232.8</ele>
        <time>2011-05-08T10:12:54.001Z</time>
      </trkpt>
      <trkpt lat="45.22106" lon="5.57925">
        <ele>1227.3</ele>
        <time>2011-05-08T10:13:04Z</time>
      </trkpt>
      <trkpt lat="45.22134" lon="5.57928">
        <ele>1235.8</ele>
        <time>2011-05-08T10:13:14.004Z</time>
      </trkpt>
      <trkpt lat="45.22158" lon="5.57933">
        <ele>1240.8</ele>
        <time>2011-05-08T10:13:23.998Z</time>
      </trkpt>
      <trkpt lat="45.2219" lon="5.57942">
        <ele>1241.8</ele>
        <time>2011-05-08T10:13:34Z</time>
      </trkpt>
      <trkpt lat="45.22217" lon="5.57948">
        <ele>1245.7</ele>
        <time>2011-05-08T10:13:44.001Z</time>
      </trkpt>
      <trkpt lat="45.22252" lon="5.57957">
        <ele>1239</ele>
        <time>2011-05-08T10:13:59Z</time>
      </trkpt>
      <trkpt lat="45.22279" lon="5.57963">
        <ele>1232.5</ele>
        <time>2011-05-08T10:14:09Z</time>
      </trkpt>
      <trkpt lat="45.22306" lon="5.57973">
        <ele>1226.7</ele>
        <time>2011-05-08T10:14:19.002Z</time>
      </trkpt>
      <trkpt lat="45.22331" lon="5.57979">
        <ele>1222.1</ele>
        <time>2011-05-08T10:14:29.001Z</time>
      </trkpt>
      <trkpt lat="45.22363" lon="5.57989">
        <ele>1212.1</ele>
        <time>2011-05-08T10:14:44Z</time>
      </trkpt>
      <trkpt lat="45.22396" lon="5.57997">
        <ele>1209.2</ele>
        <time>2011-05-08T10:14:59Z</time>
      </trkpt>
      <trkpt lat="45.22418" lon="5.58006">
        <ele>1207</ele>
        <time>2011-05-08T10:15:09.001Z</time>
      </trkpt>
      <trkpt lat="45.2245" lon="5.5802">
        <ele>1203.5</ele>
        <time>2011-05-08T10:15:24.001Z</time>
      </trkpt>
      <trkpt lat="45.22473" lon="5.58031">
        <ele>1199.5</ele>
        <time>2011-05-08T10:15:34.004Z</time>
      </trkpt>
      <trkpt lat="45.22497" lon="5.5804">
        <ele>1220.6</ele>
        <time>2011-05-08T10:15:49Z</time>
      </trkpt>
      <trkpt lat="45.22515" lon="5.58023">
        <ele>1283.4</ele>
        <time>2011-05-08T10:16:09Z</time>
      </trkpt>
      <trkpt lat="45.22542" lon="5.58029">
        <ele>1289.3</ele>
        <time>2011-05-08T10:16:24.002Z</time>
      </trkpt>
      <trkpt lat="45.22576" lon="5.58042">
        <ele>1281.4</ele>
        <time>2011-05-08T10:16:39.001Z</time>
      </trkpt>
      <trkpt lat="45.22606" lon="5.5805">
        <ele>1263.8</ele>
        <time>2011-05-08T10:16:49.001Z</time>
      </trkpt>
      <trkpt lat="45.22636" lon="5.58049">
        <ele>1250.1</ele>
        <time>2011-05-08T10:16:59.002Z</time>
      </trkpt>
      <trkpt lat="45.22661" lon="5.58046">
        <ele>1239.3</ele>
        <time>2011-05-08T10:17:09Z</time>
      </trkpt>
      <trkpt lat="45.22692" lon="5.58035">
        <ele>1275.9</ele>
        <time>2011-05-08T10:17:24Z</time>
      </trkpt>
      <trkpt lat="45.2272" lon="5.58027">
        <ele>1312.1</ele>
        <time>2011-05-08T10:17:39Z</time>
      </trkpt>
      <trkpt lat="45.22749" lon="5.58021">
        <ele>1344.5</ele>
        <time>2011-05-08T10:17:58.998Z</time>
      </trkpt>
      <trkpt lat="45.22777" lon="5.58027">
        <ele>1342.3</ele>
        <time>2011-05-08T10:18:13.998Z</time>
      </trkpt>
      <trkpt lat="45.22791" lon="5.58054">
        <ele>1321.5</ele>
        <time>2011-05-08T10:18:24Z</time>
      </trkpt>
      <trkpt lat="45.22817" lon="5.58078">
        <ele>1292.1</ele>
        <time>2011-05-08T10:18:33.998Z</time>
      </trkpt>
      <trkpt lat="45.22842" lon="5.58091">
        <ele>1274</ele>
        <time>2011-05-08T10:18:43.998Z</time>
      </trkpt>
      <trkpt lat="45.22866" lon="5.58104">
        <ele>1262.5</ele>
        <time>2011-05-08T10:18:54Z</time>
      </trkpt>
      <trkpt lat="45.22895" lon="5.58115">
        <ele>1281.5</ele>
        <time>2011-05-08T10:19:08.998Z</time>
      </trkpt>
      <trkpt lat="45.2292" lon="5.58131">
        <ele>1291.9</ele>
        <time>2011-05-08T10:19:24Z</time>
      </trkpt>
      <trkpt lat="45.22945" lon="5.5815">
        <ele>1293.4</ele>
        <time>2011-05-08T10:19:39.004Z</time>
      </trkpt>
      <trkpt lat="45.22965" lon="5.58167">
        <ele>1287.6</ele>
        <time>2011-05-08T10:19:49Z</time>
      </trkpt>
      <trkpt lat="45.22994" lon="5.58179">
        <ele>1284.9</ele>
        <time>2011-05-08T10:20:04Z</time>
      </trkpt>
      <trkpt lat="45.23028" lon="5.58178">
        <ele>1276.8</ele>
        <time>2011-05-08T10:20:19Z</time>
      </trkpt>
      <trkpt lat="45.23049" lon="5.58188">
        <ele>1275.3</ele>
        <time>2011-05-08T10:20:29Z</time>
      </trkpt>
      <trkpt lat="45.23058" lon="5.58227">
        <ele>1295.2</ele>
        <time>2011-05-08T10:20:44Z</time>
      </trkpt>
      <trkpt lat="45.23049" lon="5.58254">
        <ele>1299</ele>
        <time>2011-05-08T10:20:54Z</time>
      </trkpt>
      <trkpt lat="45.23022" lon="5.58267">
        <ele>1327.2</ele>
        <time>2011-05-08T10:21:08.998Z</time>
      </trkpt>
      <trkpt lat="45.2299" lon="5.58269">
        <ele>1341.4</ele>
        <time>2011-05-08T10:21:24Z</time>
      </trkpt>
      <trkpt lat="45.22969" lon="5.58284">
        <ele>1348.1</ele>
        <time>2011-05-08T10:21:34Z</time>
      </trkpt>
      <trkpt lat="45.22973" lon="5.5832">
        <ele>1343.8</ele>
        <time>2011-05-08T10:21:54.001Z</time>
      </trkpt>
      <trkpt lat="45.22995" lon="5.58334">
        <ele>1362.9</ele>
        <time>2011-05-08T10:22:13.998Z</time>
      </trkpt>
      <trkpt lat="45.2302" lon="5.58347">
        <ele>1363</ele>
        <time>2011-05-08T10:22:29Z</time>
      </trkpt>
      <trkpt lat="45.23044" lon="5.58337">
        <ele>1360.6</ele>
        <time>2011-05-08T10:22:44.004Z</time>
      </trkpt>
      <trkpt lat="45.23067" lon="5.58321">
        <ele>1364.3</ele>
        <time>2011-05-08T10:22:59.002Z</time>
      </trkpt>
      <trkpt lat="45.23098" lon="5.58328">
        <ele>1333.9</ele>
        <time>2011-05-08T10:23:13.995Z</time>
      </trkpt>
      <trkpt lat="45.23126" lon="5.58326">
        <ele>1313.5</ele>
        <time>2011-05-08T10:23:29Z</time>
      </trkpt>
      <trkpt lat="45.23144" lon="5.58305">
        <ele>1332.2</ele>
        <time>2011-05-08T10:23:39Z</time>
      </trkpt>
      <trkpt lat="45.23164" lon="5.58294">
        <ele>1341.4</ele>
        <time>2011-05-08T10:23:49.001Z</time>
      </trkpt>
      <trkpt lat="45.23188" lon="5.58287">
        <ele>1354.9</ele>
        <time>2011-05-08T10:24:09.001Z</time>
      </trkpt>
      <trkpt lat="45.23218" lon="5.58276">
        <ele>1366</ele>
        <time>2011-05-08T10:24:23.998Z</time>
      </trkpt>
      <trkpt lat="45.23242" lon="5.58282">
        <ele>1367.4</ele>
        <time>2011-05-08T10:24:34Z</time>
      </trkpt>
      <trkpt lat="45.23266" lon="5.58293">
        <ele>1366.6</ele>
        <time>2011-05-08T10:24:44Z</time>
      </trkpt>
      <trkpt lat="45.2329" lon="5.5831">
        <ele>1362.6</ele>
        <time>2011-05-08T10:24:53.998Z</time>
      </trkpt>
      <trkpt lat="45.2332" lon="5.58328">
        <ele>1359.8</ele>
        <time>2011-05-08T10:25:09.002Z</time>
      </trkpt>
      <trkpt lat="45.23338" lon="5.58346">
        <ele>1358.9</ele>
        <time>2011-05-08T10:25:19Z</time>
      </trkpt>
      <trkpt lat="45.23355" lon="5.58363">
        <ele>1360.4</ele>
        <time>2011-05-08T10:25:28.998Z</time>
      </trkpt>
      <trkpt lat="45.23379" lon="5.58375">
        <ele>1366.5</ele>
        <time>2011-05-08T10:25:44Z</time>
      </trkpt>
      <trkpt lat="45.23408" lon="5.5838">
        <ele>1367.3</ele>
        <time>2011-05-08T10:25:59Z</time>
      </trkpt>
      <trkpt lat="45.23438" lon="5.58386">
        <ele>1351.4</ele>
        <time>2011-05-08T10:26:14Z</time>
      </trkpt>
      <trkpt lat="45.23458" lon="5.58367">
        <ele>1385.5</ele>
        <time>2011-05-08T10:26:29Z</time>
      </trkpt>
      <trkpt lat="45.2348" lon="5.58359">
        <ele>1391.9</ele>
        <time>2011-05-08T10:26:44Z</time>
      </trkpt>
      <trkpt lat="45.23505" lon="5.58352">
        <ele>1386</ele>
        <time>2011-05-08T10:26:59.001Z</time>
      </trkpt>
      <trkpt lat="45.23521" lon="5.58336">
        <ele>1379.5</ele>
        <time>2011-05-08T10:27:09Z</time>
      </trkpt>
      <trkpt lat="45.23553" lon="5.58327">
        <ele>1372.1</ele>
        <time>2011-05-08T10:27:23.998Z</time>
      </trkpt>
      <trkpt lat="45.23583" lon="5.58316">
        <ele>1358.9</ele>
        <time>2011-05-08T10:27:38.998Z</time>
      </trkpt>
      <trkpt lat="45.23611" lon="5.58298">
        <ele>1351.9</ele>
        <time>2011-05-08T10:27:54.001Z</time>
      </trkpt>
      <trkpt lat="45.23628" lon="5.58284">
        <ele>1357.5</ele>
        <time>2011-05-08T10:28:04Z</time>
      </trkpt>
      <trkpt lat="45.23647" lon="5.58266">
        <ele>1370.1</ele>
        <time>2011-05-08T10:28:14Z</time>
      </trkpt>
      <trkpt lat="45.23663" lon="5.58246">
        <ele>1378.9</ele>
        <time>2011-05-08T10:28:24.001Z</time>
      </trkpt>
      <trkpt lat="45.23681" lon="5.58218">
        <ele>1378.9</ele>
        <time>2011-05-08T10:28:34.001Z</time>
      </trkpt>
      <trkpt lat="45.23698" lon="5.58195">
        <ele>1378.8</ele>
        <time>2011-05-08T10:28:44.001Z</time>
      </trkpt>
      <trkpt lat="45.23725" lon="5.58178">
        <ele>1379.4</ele>
        <time>2011-05-08T10:28:54Z</time>
      </trkpt>
      <trkpt lat="45.23755" lon="5.58174">
        <ele>1381.6</ele>
        <time>2011-05-08T10:29:04Z</time>
      </trkpt>
      <trkpt lat="45.23763" lon="5.58143">
        <ele>1372.8</ele>
        <time>2011-05-08T10:29:34.001Z</time>
      </trkpt>
      <trkpt lat="45.23782" lon="5.58122">
        <ele>1379.9</ele>
        <time>2011-05-08T10:29:49Z</time>
      </trkpt>
      <trkpt lat="45.23818" lon="5.58107">
        <ele>1397.1</ele>
        <time>2011-05-08T10:30:14Z</time>
      </trkpt>
      <trkpt lat="45.23838" lon="5.58119">
        <ele>1400.4</ele>
        <time>2011-05-08T10:30:29Z</time>
      </trkpt>
      <trkpt lat="45.23867" lon="5.58131">
        <ele>1385.3</ele>
        <time>2011-05-08T10:32:34Z</time>
      </trkpt>
      <trkpt lat="45.23882" lon="5.58156">
        <ele>1385.6</ele>
        <time>2011-05-08T10:36:53.998Z</time>
      </trkpt>
      <trkpt lat="45.23885" lon="5.58193">
        <ele>1380.7</ele>
        <time>2011-05-08T10:37:08.997Z</time>
      </trkpt>
      <trkpt lat="45.23877" lon="5.58232">
        <ele>1376.3</ele>
        <time>2011-05-08T10:37:24.004Z</time>
      </trkpt>
      <trkpt lat="45.23864" lon="5.58271">
        <ele>1380</ele>
        <time>2011-05-08T10:37:39.001Z</time>
      </trkpt>
      <trkpt lat="45.23852" lon="5.58309">
        <ele>1386.2</ele>
        <time>2011-05-08T10:37:54Z</time>
      </trkpt>
      <trkpt lat="45.23842" lon="5.58335">
        <ele>1388.1</ele>
        <time>2011-05-08T10:38:03.998Z</time>
      </trkpt>
      <trkpt lat="45.23832" lon="5.58359">
        <ele>1391.1</ele>
        <time>2011-05-08T10:38:14Z</time>
      </trkpt>
      <trkpt lat="45.23808" lon="5.58374">
        <ele>1401.4</ele>
        <time>2011-05-08T10:38:28.998Z</time>
      </trkpt>
      <trkpt lat="45.2378" lon="5.5837">
        <ele>1405.7</ele>
        <time>2011-05-08T10:38:44Z</time>
      </trkpt>
      <trkpt lat="45.23747" lon="5.58384">
        <ele>1403.8</ele>
        <time>2011-05-08T10:38:59.001Z</time>
      </trkpt>
      <trkpt lat="45.23729" lon="5.58404">
        <ele>1404.7</ele>
        <time>2011-05-08T10:39:09.001Z</time>
      </trkpt>
      <trkpt lat="45.23714" lon="5.58423">
        <ele>1407</ele>
        <time>2011-05-08T10:39:19.001Z</time>
      </trkpt>
      <trkpt lat="45.23697" lon="5.58445">
        <ele>1403.1</ele>
        <time>2011-05-08T10:39:29Z</time>
      </trkpt>
      <trkpt lat="45.23681" lon="5.58472">
        <ele>1399.4</ele>
        <time>2011-05-08T10:39:39Z</time>
      </trkpt>
      <trkpt lat="45.23666" lon="5.58497">
        <ele>1396.8</ele>
        <time>2011-05-08T10:39:48.998Z</time>
      </trkpt>
      <trkpt lat="45.23647" lon="5.58515">
        <ele>1398.9</ele>
        <time>2011-05-08T10:39:58.998Z</time>
      </trkpt>
      <trkpt lat="45.23626" lon="5.5853">
        <ele>1406.7</ele>
        <time>2011-05-08T10:40:09.001Z</time>
      </trkpt>
      <trkpt lat="45.23608" lon="5.58545">
        <ele>1417.2</ele>
        <time>2011-05-08T10:40:19.001Z</time>
      </trkpt>
      <trkpt lat="45.2359" lon="5.58565">
        <ele>1421.5</ele>
        <time>2011-05-08T10:40:29Z</time>
      </trkpt>
      <trkpt lat="45.23572" lon="5.58587">
        <ele>1420.9</ele>
        <time>2011-05-08T10:40:38.998Z</time>
      </trkpt>
      <trkpt lat="45.23556" lon="5.58603">
        <ele>1422.1</ele>
        <time>2011-05-08T10:40:49.001Z</time>
      </trkpt>
      <trkpt lat="45.23541" lon="5.58624">
        <ele>1421.4</ele>
        <time>2011-05-08T10:40:59Z</time>
      </trkpt>
      <trkpt lat="45.23531" lon="5.5865">
        <ele>1414.3</ele>
        <time>2011-05-08T10:41:09Z</time>
      </trkpt>
      <trkpt lat="45.23517" lon="5.58686">
        <ele>1413.8</ele>
        <time>2011-05-08T10:41:24.001Z</time>
      </trkpt>
      <trkpt lat="45.2352" lon="5.58726">
        <ele>1416.8</ele>
        <time>2011-05-08T10:41:39Z</time>
      </trkpt>
      <trkpt lat="45.23514" lon="5.58768">
        <ele>1415.9</ele>
        <time>2011-05-08T10:41:54Z</time>
      </trkpt>
      <trkpt lat="45.23494" lon="5.58782">
        <ele>1419.6</ele>
        <time>2011-05-08T10:42:04Z</time>
      </trkpt>
      <trkpt lat="45.23471" lon="5.58788">
        <ele>1422.5</ele>
        <time>2011-05-08T10:42:14Z</time>
      </trkpt>
      <trkpt lat="45.23431" lon="5.58786">
        <ele>1432.1</ele>
        <time>2011-05-08T10:42:29Z</time>
      </trkpt>
      <trkpt lat="45.23402" lon="5.58784">
        <ele>1438.5</ele>
        <time>2011-05-08T10:42:39.001Z</time>
      </trkpt>
      <trkpt lat="45.23371" lon="5.58781">
        <ele>1441</ele>
        <time>2011-05-08T10:42:49Z</time>
      </trkpt>
      <trkpt lat="45.23345" lon="5.58759">
        <ele>1437.8</ele>
        <time>2011-05-08T10:42:58.998Z</time>
      </trkpt>
      <trkpt lat="45.23305" lon="5.58759">
        <ele>1436.5</ele>
        <time>2011-05-08T10:43:09Z</time>
      </trkpt>
      <trkpt lat="45.23269" lon="5.58754">
        <ele>1438.6</ele>
        <time>2011-05-08T10:43:18.998Z</time>
      </trkpt>
      <trkpt lat="45.23237" lon="5.58782">
        <ele>1439.4</ele>
        <time>2011-05-08T10:43:28.998Z</time>
      </trkpt>
      <trkpt lat="45.232" lon="5.58778">
        <ele>1439.6</ele>
        <time>2011-05-08T10:43:39Z</time>
      </trkpt>
      <trkpt lat="45.23179" lon="5.58787">
        <ele>1438.2</ele>
        <time>2011-05-08T10:43:44Z</time>
      </trkpt>
      <trkpt lat="45.2314" lon="5.588">
        <ele>1438.3</ele>
        <time>2011-05-08T10:43:53.998Z</time>
      </trkpt>
      <trkpt lat="45.23101" lon="5.588">
        <ele>1437.5</ele>
        <time>2011-05-08T10:44:04Z</time>
      </trkpt>
      <trkpt lat="45.23059" lon="5.58811">
        <ele>1436.2</ele>
        <time>2011-05-08T10:44:14Z</time>
      </trkpt>
      <trkpt lat="45.23017" lon="5.5881">
        <ele>1436.3</ele>
        <time>2011-05-08T10:44:24Z</time>
      </trkpt>
      <trkpt lat="45.22976" lon="5.58823">
        <ele>1433.3</ele>
        <time>2011-05-08T10:44:34.001Z</time>
      </trkpt>
      <trkpt lat="45.22937" lon="5.58835">
        <ele>1434.1</ele>
        <time>2011-05-08T10:44:44Z</time>
      </trkpt>
      <trkpt lat="45.22898" lon="5.58849">
        <ele>1435.9</ele>
        <time>2011-05-08T10:44:54.001Z</time>
      </trkpt>
      <trkpt lat="45.22862" lon="5.58862">
        <ele>1436.7</ele>
        <time>2011-05-08T10:45:04Z</time>
      </trkpt>
      <trkpt lat="45.22828" lon="5.58873">
        <ele>1435.8</ele>
        <time>2011-05-08T10:45:13.997Z</time>
      </trkpt>
      <trkpt lat="45.22798" lon="5.58879">
        <ele>1433.6</ele>
        <time>2011-05-08T10:45:24Z</time>
      </trkpt>
      <trkpt lat="45.2277" lon="5.58882">
        <ele>1435.1</ele>
        <time>2011-05-08T10:45:34Z</time>
      </trkpt>
      <trkpt lat="45.22734" lon="5.58876">
        <ele>1439.9</ele>
        <time>2011-05-08T10:45:49Z</time>
      </trkpt>
      <trkpt lat="45.22711" lon="5.58854">
        <ele>1445.3</ele>
        <time>2011-05-08T10:45:58.998Z</time>
      </trkpt>
      <trkpt lat="45.22701" lon="5.58819">
        <ele>1448</ele>
        <time>2011-05-08T10:46:09.001Z</time>
      </trkpt>
      <trkpt lat="45.22681" lon="5.58784">
        <ele>1457.8</ele>
        <time>2011-05-08T10:46:19Z</time>
      </trkpt>
      <trkpt lat="45.22664" lon="5.58746">
        <ele>1466.6</ele>
        <time>2011-05-08T10:46:29Z</time>
      </trkpt>
      <trkpt lat="45.22642" lon="5.58718">
        <ele>1467.2</ele>
        <time>2011-05-08T10:46:38.998Z</time>
      </trkpt>
      <trkpt lat="45.22611" lon="5.58712">
        <ele>1463.6</ele>
        <time>2011-05-08T10:46:48.998Z</time>
      </trkpt>
      <trkpt lat="45.22581" lon="5.58716">
        <ele>1457.3</ele>
        <time>2011-05-08T10:46:58.998Z</time>
      </trkpt>
      <trkpt lat="45.22554" lon="5.58735">
        <ele>1449.8</ele>
        <time>2011-05-08T10:47:08.998Z</time>
      </trkpt>
      <trkpt lat="45.22531" lon="5.58764">
        <ele>1448.3</ele>
        <time>2011-05-08T10:47:19.001Z</time>
      </trkpt>
      <trkpt lat="45.22502" lon="5.58786">
        <ele>1449.7</ele>
        <time>2011-05-08T10:47:28.997Z</time>
      </trkpt>
      <trkpt lat="45.22471" lon="5.58796">
        <ele>1457.7</ele>
        <time>2011-05-08T10:47:39Z</time>
      </trkpt>
      <trkpt lat="45.2244" lon="5.58807">
        <ele>1464.4</ele>
        <time>2011-05-08T10:47:49Z</time>
      </trkpt>
      <trkpt lat="45.22414" lon="5.58799">
        <ele>1472.1</ele>
        <time>2011-05-08T10:47:59Z</time>
      </trkpt>
      <trkpt lat="45.2239" lon="5.58783">
        <ele>1469.4</ele>
        <time>2011-05-08T10:48:08.998Z</time>
      </trkpt>
      <trkpt lat="45.22369" lon="5.58762">
        <ele>1465.8</ele>
        <time>2011-05-08T10:48:18.998Z</time>
      </trkpt>
      <trkpt lat="45.22347" lon="5.58743">
        <ele>1460.5</ele>
        <time>2011-05-08T10:48:28.998Z</time>
      </trkpt>
      <trkpt lat="45.22315" lon="5.58729">
        <ele>1459.3</ele>
        <time>2011-05-08T10:48:39Z</time>
      </trkpt>
      <trkpt lat="45.22286" lon="5.58716">
        <ele>1482.1</ele>
        <time>2011-05-08T10:48:49.005Z</time>
      </trkpt>
      <trkpt lat="45.22258" lon="5.5871">
        <ele>1500.6</ele>
        <time>2011-05-08T10:48:58.998Z</time>
      </trkpt>
      <trkpt lat="45.22227" lon="5.58705">
        <ele>1508.2</ele>
        <time>2011-05-08T10:49:08.998Z</time>
      </trkpt>
      <trkpt lat="45.22199" lon="5.58711">
        <ele>1506.3</ele>
        <time>2011-05-08T10:49:19Z</time>
      </trkpt>
      <trkpt lat="45.22168" lon="5.58707">
        <ele>1506.3</ele>
        <time>2011-05-08T10:49:29Z</time>
      </trkpt>
      <trkpt lat="45.22139" lon="5.58701">
        <ele>1511.5</ele>
        <time>2011-05-08T10:49:39Z</time>
      </trkpt>
      <trkpt lat="45.2211" lon="5.58694">
        <ele>1508</ele>
        <time>2011-05-08T10:49:49.001Z</time>
      </trkpt>
      <trkpt lat="45.22084" lon="5.58687">
        <ele>1505</ele>
        <time>2011-05-08T10:49:58.998Z</time>
      </trkpt>
      <trkpt lat="45.22055" lon="5.58682">
        <ele>1500.2</ele>
        <time>2011-05-08T10:50:09.002Z</time>
      </trkpt>
      <trkpt lat="45.22026" lon="5.58695">
        <ele>1486.9</ele>
        <time>2011-05-08T10:50:19.002Z</time>
      </trkpt>
      <trkpt lat="45.22005" lon="5.5873">
        <ele>1479.7</ele>
        <time>2011-05-08T10:50:29Z</time>
      </trkpt>
      <trkpt lat="45.2198" lon="5.58761">
        <ele>1476.8</ele>
        <time>2011-05-08T10:50:39Z</time>
      </trkpt>
      <trkpt lat="45.21951" lon="5.58781">
        <ele>1479.8</ele>
        <time>2011-05-08T10:50:49Z</time>
      </trkpt>
      <trkpt lat="45.21941" lon="5.58816">
        <ele>1478.7</ele>
        <time>2011-05-08T10:50:59Z</time>
      </trkpt>
      <trkpt lat="45.21944" lon="5.58853">
        <ele>1477</ele>
        <time>2011-05-08T10:51:09.001Z</time>
      </trkpt>
      <trkpt lat="45.21934" lon="5.58889">
        <ele>1478.8</ele>
        <time>2011-05-08T10:51:19Z</time>
      </trkpt>
      <trkpt lat="45.21901" lon="5.58911">
        <ele>1488.1</ele>
        <time>2011-05-08T10:51:28.994Z</time>
      </trkpt>
      <trkpt lat="45.21868" lon="5.58913">
        <ele>1495.8</ele>
        <time>2011-05-08T10:51:38.995Z</time>
      </trkpt>
      <trkpt lat="45.21833" lon="5.58912">
        <ele>1499.1</ele>
        <time>2011-05-08T10:51:53.998Z</time>
      </trkpt>
      <trkpt lat="45.21812" lon="5.58901">
        <ele>1498.9</ele>
        <time>2011-05-08T10:52:03.998Z</time>
      </trkpt>
      <trkpt lat="45.21788" lon="5.58888">
        <ele>1494.3</ele>
        <time>2011-05-08T10:52:14Z</time>
      </trkpt>
      <trkpt lat="45.21767" lon="5.58877">
        <ele>1489.4</ele>
        <time>2011-05-08T10:52:23.998Z</time>
      </trkpt>
      <trkpt lat="45.21752" lon="5.58853">
        <ele>1496.8</ele>
        <time>2011-05-08T10:52:34Z</time>
      </trkpt>
      <trkpt lat="45.21743" lon="5.58819">
        <ele>1510.9</ele>
        <time>2011-05-08T10:52:44Z</time>
      </trkpt>
      <trkpt lat="45.21729" lon="5.58785">
        <ele>1514.1</ele>
        <time>2011-05-08T10:52:54Z</time>
      </trkpt>
      <trkpt lat="45.21698" lon="5.5877">
        <ele>1509.8</ele>
        <time>2011-05-08T10:53:04.001Z</time>
      </trkpt>
      <trkpt lat="45.21663" lon="5.58752">
        <ele>1507.5</ele>
        <time>2011-05-08T10:53:14Z</time>
      </trkpt>
      <trkpt lat="45.21647" lon="5.58734">
        <ele>1519.1</ele>
        <time>2011-05-08T10:53:19Z</time>
      </trkpt>
      <trkpt lat="45.21616" lon="5.5871">
        <ele>1531.7</ele>
        <time>2011-05-08T10:53:29.002Z</time>
      </trkpt>
      <trkpt lat="45.2159" lon="5.58701">
        <ele>1536.2</ele>
        <time>2011-05-08T10:53:39.001Z</time>
      </trkpt>
      <trkpt lat="45.21562" lon="5.58693">
        <ele>1539.2</ele>
        <time>2011-05-08T10:53:48.995Z</time>
      </trkpt>
      <trkpt lat="45.21526" lon="5.58691">
        <ele>1529.3</ele>
        <time>2011-05-08T10:54:04.002Z</time>
      </trkpt>
      <trkpt lat="45.21499" lon="5.58686">
        <ele>1524.6</ele>
        <time>2011-05-08T10:54:13.998Z</time>
      </trkpt>
      <trkpt lat="45.21468" lon="5.5868">
        <ele>1531.7</ele>
        <time>2011-05-08T10:54:24Z</time>
      </trkpt>
      <trkpt lat="45.21433" lon="5.58672">
        <ele>1543.3</ele>
        <time>2011-05-08T10:54:34Z</time>
      </trkpt>
      <trkpt lat="45.21402" lon="5.58662">
        <ele>1548.4</ele>
        <time>2011-05-08T10:54:43.998Z</time>
      </trkpt>
      <trkpt lat="45.21371" lon="5.58646">
        <ele>1554.4</ele>
        <time>2011-05-08T10:54:54.001Z</time>
      </trkpt>
      <trkpt lat="45.21336" lon="5.58632">
        <ele>1556.7</ele>
        <time>2011-05-08T10:55:03.998Z</time>
      </trkpt>
      <trkpt lat="45.21288" lon="5.58619">
        <ele>1563.6</ele>
        <time>2011-05-08T10:55:14.004Z</time>
      </trkpt>
      <trkpt lat="45.21262" lon="5.58607">
        <ele>1569</ele>
        <time>2011-05-08T10:55:19.001Z</time>
      </trkpt>
      <trkpt lat="45.21238" lon="5.58595">
        <ele>1571.4</ele>
        <time>2011-05-08T10:55:23.998Z</time>
      </trkpt>
      <trkpt lat="45.21215" lon="5.58588">
        <ele>1573</ele>
        <time>2011-05-08T10:55:29Z</time>
      </trkpt>
      <trkpt lat="45.21175" lon="5.58566">
        <ele>1576.9</ele>
        <time>2011-05-08T10:55:39.001Z</time>
      </trkpt>
      <trkpt lat="45.21152" lon="5.58558">
        <ele>1578.1</ele>
        <time>2011-05-08T10:55:44.001Z</time>
      </trkpt>
      <trkpt lat="45.21112" lon="5.58544">
        <ele>1582.8</ele>
        <time>2011-05-08T10:55:54.001Z</time>
      </trkpt>
      <trkpt lat="45.21076" lon="5.58527">
        <ele>1580.9</ele>
        <time>2011-05-08T10:56:04.001Z</time>
      </trkpt>
      <trkpt lat="45.2104" lon="5.58519">
        <ele>1574.7</ele>
        <time>2011-05-08T10:56:14Z</time>
      </trkpt>
      <trkpt lat="45.21009" lon="5.58517">
        <ele>1562.5</ele>
        <time>2011-05-08T10:56:24Z</time>
      </trkpt>
      <trkpt lat="45.20978" lon="5.58515">
        <ele>1560.3</ele>
        <time>2011-05-08T10:56:34Z</time>
      </trkpt>
      <trkpt lat="45.20935" lon="5.58492">
        <ele>1556.7</ele>
        <time>2011-05-08T10:56:44Z</time>
      </trkpt>
      <trkpt lat="45.20911" lon="5.58482">
        <ele>1554.3</ele>
        <time>2011-05-08T10:56:49Z</time>
      </trkpt>
      <trkpt lat="45.20885" lon="5.58476">
        <ele>1554.6</ele>
        <time>2011-05-08T10:56:54Z</time>
      </trkpt>
      <trkpt lat="45.20857" lon="5.58474">
        <ele>1555</ele>
        <time>2011-05-08T10:56:59Z</time>
      </trkpt>
      <trkpt lat="45.20829" lon="5.58476">
        <ele>1552.1</ele>
        <time>2011-05-08T10:57:04Z</time>
      </trkpt>
      <trkpt lat="45.20809" lon="5.58503">
        <ele>1550.4</ele>
        <time>2011-05-08T10:57:09Z</time>
      </trkpt>
      <trkpt lat="45.20793" lon="5.58532">
        <ele>1548.6</ele>
        <time>2011-05-08T10:57:14Z</time>
      </trkpt>
      <trkpt lat="45.2076" lon="5.58515">
        <ele>1545.3</ele>
        <time>2011-05-08T10:57:24.001Z</time>
      </trkpt>
      <trkpt lat="45.2071" lon="5.58532">
        <ele>1541.8</ele>
        <time>2011-05-08T10:57:34Z</time>
      </trkpt>
      <trkpt lat="45.20692" lon="5.58561">
        <ele>1539.8</ele>
        <time>2011-05-08T10:57:39.002Z</time>
      </trkpt>
      <trkpt lat="45.20676" lon="5.58591">
        <ele>1538</ele>
        <time>2011-05-08T10:57:44Z</time>
      </trkpt>
      <trkpt lat="45.20656" lon="5.58615">
        <ele>1535</ele>
        <time>2011-05-08T10:57:49Z</time>
      </trkpt>
      <trkpt lat="45.20638" lon="5.5864">
        <ele>1529.8</ele>
        <time>2011-05-08T10:57:54Z</time>
      </trkpt>
      <trkpt lat="45.20624" lon="5.58667">
        <ele>1525.5</ele>
        <time>2011-05-08T10:57:58.997Z</time>
      </trkpt>
      <trkpt lat="45.20608" lon="5.58691">
        <ele>1521</ele>
        <time>2011-05-08T10:58:04.001Z</time>
      </trkpt>
      <trkpt lat="45.20597" lon="5.58721">
        <ele>1516.4</ele>
        <time>2011-05-08T10:58:08.998Z</time>
      </trkpt>
      <trkpt lat="45.20587" lon="5.58749">
        <ele>1522.1</ele>
        <time>2011-05-08T10:58:14Z</time>
      </trkpt>
      <trkpt lat="45.20569" lon="5.58769">
        <ele>1539.4</ele>
        <time>2011-05-08T10:58:19Z</time>
      </trkpt>
      <trkpt lat="45.20547" lon="5.58779">
        <ele>1552.3</ele>
        <time>2011-05-08T10:58:24.001Z</time>
      </trkpt>
      <trkpt lat="45.20502" lon="5.58782">
        <ele>1567.4</ele>
        <time>2011-05-08T10:58:34Z</time>
      </trkpt>
      <trkpt lat="45.2048" lon="5.58791">
        <ele>1572.2</ele>
        <time>2011-05-08T10:58:39.001Z</time>
      </trkpt>
      <trkpt lat="45.20461" lon="5.58772">
        <ele>1564.1</ele>
        <time>2011-05-08T10:58:49Z</time>
      </trkpt>
      <trkpt lat="45.20468" lon="5.58728">
        <ele>1548.4</ele>
        <time>2011-05-08T10:58:58.998Z</time>
      </trkpt>
      <trkpt lat="45.20441" lon="5.58685">
        <ele>1536.4</ele>
        <time>2011-05-08T10:59:09Z</time>
      </trkpt>
      <trkpt lat="45.20407" lon="5.5867">
        <ele>1532.3</ele>
        <time>2011-05-08T10:59:18.998Z</time>
      </trkpt>
      <trkpt lat="45.20371" lon="5.58657">
        <ele>1533.1</ele>
        <time>2011-05-08T10:59:28.998Z</time>
      </trkpt>
      <trkpt lat="45.20352" lon="5.58644">
        <ele>1531.7</ele>
        <time>2011-05-08T10:59:33.998Z</time>
      </trkpt>
      <trkpt lat="45.20312" lon="5.58635">
        <ele>1531.1</ele>
        <time>2011-05-08T10:59:43.997Z</time>
      </trkpt>
      <trkpt lat="45.20275" lon="5.58632">
        <ele>1531.4</ele>
        <time>2011-05-08T10:59:53.998Z</time>
      </trkpt>
      <trkpt lat="45.20234" lon="5.58627">
        <ele>1533.4</ele>
        <time>2011-05-08T11:00:04.001Z</time>
      </trkpt>
      <trkpt lat="45.20193" lon="5.58624">
        <ele>1539.2</ele>
        <time>2011-05-08T11:00:13.998Z</time>
      </trkpt>
      <trkpt lat="45.20157" lon="5.58615">
        <ele>1542.9</ele>
        <time>2011-05-08T11:00:24Z</time>
      </trkpt>
      <trkpt lat="45.20132" lon="5.58584">
        <ele>1546.4</ele>
        <time>2011-05-08T11:00:34Z</time>
      </trkpt>
      <trkpt lat="45.2012" lon="5.58536">
        <ele>1543.2</ele>
        <time>2011-05-08T11:00:43.997Z</time>
      </trkpt>
      <trkpt lat="45.2011" lon="5.58489">
        <ele>1533.9</ele>
        <time>2011-05-08T11:00:53.998Z</time>
      </trkpt>
      <trkpt lat="45.20114" lon="5.58438">
        <ele>1540.1</ele>
        <time>2011-05-08T11:01:04Z</time>
      </trkpt>
      <trkpt lat="45.20114" lon="5.58384">
        <ele>1559.2</ele>
        <time>2011-05-08T11:01:14.001Z</time>
      </trkpt>
      <trkpt lat="45.20085" lon="5.58374">
        <ele>1566.9</ele>
        <time>2011-05-08T11:01:23.998Z</time>
      </trkpt>
      <trkpt lat="45.20048" lon="5.58372">
        <ele>1568</ele>
        <time>2011-05-08T11:01:34Z</time>
      </trkpt>
      <trkpt lat="45.20012" lon="5.58377">
        <ele>1563.8</ele>
        <time>2011-05-08T11:01:43.998Z</time>
      </trkpt>
      <trkpt lat="45.19979" lon="5.58401">
        <ele>1562.5</ele>
        <time>2011-05-08T11:01:53.998Z</time>
      </trkpt>
      <trkpt lat="45.19978" lon="5.58454">
        <ele>1558.2</ele>
        <time>2011-05-08T11:02:04Z</time>
      </trkpt>
      <trkpt lat="45.19974" lon="5.5849">
        <ele>1557.9</ele>
        <time>2011-05-08T11:02:09.001Z</time>
      </trkpt>
      <trkpt lat="45.19963" lon="5.58531">
        <ele>1557.4</ele>
        <time>2011-05-08T11:02:14.002Z</time>
      </trkpt>
      <trkpt lat="45.19944" lon="5.58574">
        <ele>1556.5</ele>
        <time>2011-05-08T11:02:19Z</time>
      </trkpt>
      <trkpt lat="45.19919" lon="5.58607">
        <ele>1554.2</ele>
        <time>2011-05-08T11:02:24.001Z</time>
      </trkpt>
      <trkpt lat="45.19891" lon="5.58631">
        <ele>1551.6</ele>
        <time>2011-05-08T11:02:28.998Z</time>
      </trkpt>
      <trkpt lat="45.19859" lon="5.58639">
        <ele>1550.6</ele>
        <time>2011-05-08T11:02:33.998Z</time>
      </trkpt>
      <trkpt lat="45.19827" lon="5.58648">
        <ele>1550.1</ele>
        <time>2011-05-08T11:02:38.997Z</time>
      </trkpt>
      <trkpt lat="45.19795" lon="5.58662">
        <ele>1550.4</ele>
        <time>2011-05-08T11:02:43.998Z</time>
      </trkpt>
      <trkpt lat="45.19759" lon="5.58655">
        <ele>1549</ele>
        <time>2011-05-08T11:02:49.002Z</time>
      </trkpt>
      <trkpt lat="45.19726" lon="5.58643">
        <ele>1545.1</ele>
        <time>2011-05-08T11:02:54.001Z</time>
      </trkpt>
      <trkpt lat="45.19689" lon="5.58623">
        <ele>1534.9</ele>
        <time>2011-05-08T11:02:59.001Z</time>
      </trkpt>
      <trkpt lat="45.19652" lon="5.58614">
        <ele>1529.7</ele>
        <time>2011-05-08T11:03:04.002Z</time>
      </trkpt>
      <trkpt lat="45.19617" lon="5.58619">
        <ele>1525.4</ele>
        <time>2011-05-08T11:03:09Z</time>
      </trkpt>
      <trkpt lat="45.19582" lon="5.58627">
        <ele>1521.4</ele>
        <time>2011-05-08T11:03:14.001Z</time>
      </trkpt>
      <trkpt lat="45.19552" lon="5.5864">
        <ele>1519</ele>
        <time>2011-05-08T11:03:19Z</time>
      </trkpt>
      <trkpt lat="45.19518" lon="5.58635">
        <ele>1516.1</ele>
        <time>2011-05-08T11:03:24Z</time>
      </trkpt>
      <trkpt lat="45.19488" lon="5.58622">
        <ele>1513.6</ele>
        <time>2011-05-08T11:03:29Z</time>
      </trkpt>
      <trkpt lat="45.19458" lon="5.58624">
        <ele>1512.8</ele>
        <time>2011-05-08T11:03:34Z</time>
      </trkpt>
      <trkpt lat="45.19428" lon="5.58637">
        <ele>1512.9</ele>
        <time>2011-05-08T11:03:38.997Z</time>
      </trkpt>
      <trkpt lat="45.19397" lon="5.58643">
        <ele>1512.9</ele>
        <time>2011-05-08T11:03:43.998Z</time>
      </trkpt>
      <trkpt lat="45.19367" lon="5.58648">
        <ele>1513.5</ele>
        <time>2011-05-08T11:03:49Z</time>
      </trkpt>
      <trkpt lat="45.19338" lon="5.58662">
        <ele>1513.8</ele>
        <time>2011-05-08T11:03:54Z</time>
      </trkpt>
      <trkpt lat="45.1931" lon="5.5868">
        <ele>1514.8</ele>
        <time>2011-05-08T11:03:59.001Z</time>
      </trkpt>
      <trkpt lat="45.19283" lon="5.58681">
        <ele>1515.7</ele>
        <time>2011-05-08T11:04:04.001Z</time>
      </trkpt>
      <trkpt lat="45.19258" lon="5.58662">
        <ele>1518.2</ele>
        <time>2011-05-08T11:04:09.001Z</time>
      </trkpt>
      <trkpt lat="45.19242" lon="5.58634">
        <ele>1524.1</ele>
        <time>2011-05-08T11:04:13.998Z</time>
      </trkpt>
      <trkpt lat="45.19222" lon="5.5861">
        <ele>1527.3</ele>
        <time>2011-05-08T11:04:19Z</time>
      </trkpt>
      <trkpt lat="45.192" lon="5.58588">
        <ele>1527.2</ele>
        <time>2011-05-08T11:04:23.997Z</time>
      </trkpt>
      <trkpt lat="45.19177" lon="5.58557">
        <ele>1525.7</ele>
        <time>2011-05-08T11:04:29Z</time>
      </trkpt>
      <trkpt lat="45.19148" lon="5.58532">
        <ele>1523.6</ele>
        <time>2011-05-08T11:04:34Z</time>
      </trkpt>
      <trkpt lat="45.19117" lon="5.58522">
        <ele>1523.1</ele>
        <time>2011-05-08T11:04:38.998Z</time>
      </trkpt>
      <trkpt lat="45.1908" lon="5.58512">
        <ele>1523.2</ele>
        <time>2011-05-08T11:04:44Z</time>
      </trkpt>
      <trkpt lat="45.19053" lon="5.58488">
        <ele>1519.8</ele>
        <time>2011-05-08T11:04:49Z</time>
      </trkpt>
      <trkpt lat="45.19033" lon="5.58471">
        <ele>1516.5</ele>
        <time>2011-05-08T11:04:54.001Z</time>
      </trkpt>
      <trkpt lat="45.19019" lon="5.58491">
        <ele>1514.2</ele>
        <time>2011-05-08T11:05:09Z</time>
      </trkpt>
      <trkpt lat="45.19033" lon="5.58518">
        <ele>1513.4</ele>
        <time>2011-05-08T11:05:23.998Z</time>
      </trkpt>
      <trkpt lat="45.19048" lon="5.58544">
        <ele>1515.1</ele>
        <time>2011-05-08T11:05:38.998Z</time>
      </trkpt>
      <trkpt lat="45.19063" lon="5.58566">
        <ele>1516.7</ele>
        <time>2011-05-08T11:05:53.998Z</time>
      </trkpt>
      <trkpt lat="45.19079" lon="5.58587">
        <ele>1518.9</ele>
        <time>2011-05-08T11:06:09.002Z</time>
      </trkpt>
      <trkpt lat="45.191" lon="5.58611">
        <ele>1528.9</ele>
        <time>2011-05-08T11:06:24Z</time>
      </trkpt>
      <trkpt lat="45.19115" lon="5.58639">
        <ele>1546.6</ele>
        <time>2011-05-08T11:06:39Z</time>
      </trkpt>
      <trkpt lat="45.19131" lon="5.58669">
        <ele>1561.6</ele>
        <time>2011-05-08T11:06:53.998Z</time>
      </trkpt>
      <trkpt lat="45.19141" lon="5.58692">
        <ele>1563.7</ele>
        <time>2011-05-08T11:07:04.001Z</time>
      </trkpt>
      <trkpt lat="45.1916" lon="5.58718">
        <ele>1567.3</ele>
        <time>2011-05-08T11:07:18.998Z</time>
      </trkpt>
      <trkpt lat="45.1918" lon="5.58742">
        <ele>1571.7</ele>
        <time>2011-05-08T11:07:33.998Z</time>
      </trkpt>
      <trkpt lat="45.19196" lon="5.58767">
        <ele>1572</ele>
        <time>2011-05-08T11:07:43.997Z</time>
      </trkpt>
      <trkpt lat="45.19214" lon="5.58795">
        <ele>1569.2</ele>
        <time>2011-05-08T11:07:54Z</time>
      </trkpt>
      <trkpt lat="45.19233" lon="5.58813">
        <ele>1568</ele>
        <time>2011-05-08T11:08:03.998Z</time>
      </trkpt>
      <trkpt lat="45.19255" lon="5.58835">
        <ele>1569.1</ele>
        <time>2011-05-08T11:08:13.997Z</time>
      </trkpt>
      <trkpt lat="45.19273" lon="5.58855">
        <ele>1570.4</ele>
        <time>2011-05-08T11:08:24Z</time>
      </trkpt>
      <trkpt lat="45.1929" lon="5.58873">
        <ele>1573</ele>
        <time>2011-05-08T11:08:34Z</time>
      </trkpt>
      <trkpt lat="45.19314" lon="5.58887">
        <ele>1568.7</ele>
        <time>2011-05-08T11:08:43.998Z</time>
      </trkpt>
      <trkpt lat="45.19347" lon="5.58888">
        <ele>1570.2</ele>
        <time>2011-05-08T11:08:58.997Z</time>
      </trkpt>
      <trkpt lat="45.19369" lon="5.58876">
        <ele>1570.9</ele>
        <time>2011-05-08T11:09:14.001Z</time>
      </trkpt>
      <trkpt lat="45.19394" lon="5.58857">
        <ele>1573.4</ele>
        <time>2011-05-08T11:09:29Z</time>
      </trkpt>
      <trkpt lat="45.1942" lon="5.58845">
        <ele>1577.9</ele>
        <time>2011-05-08T11:09:44.001Z</time>
      </trkpt>
      <trkpt lat="45.19447" lon="5.58846">
        <ele>1578.4</ele>
        <time>2011-05-08T11:09:58.998Z</time>
      </trkpt>
      <trkpt lat="45.1947" lon="5.58854">
        <ele>1582.8</ele>
        <time>2011-05-08T11:10:13.998Z</time>
      </trkpt>
      <trkpt lat="45.19494" lon="5.5886">
        <ele>1589.4</ele>
        <time>2011-05-08T11:10:29.001Z</time>
      </trkpt>
      <trkpt lat="45.19525" lon="5.58867">
        <ele>1593.8</ele>
        <time>2011-05-08T11:10:49Z</time>
      </trkpt>
      <trkpt lat="45.19551" lon="5.58874">
        <ele>1599.5</ele>
        <time>2011-05-08T11:11:03.998Z</time>
      </trkpt>
      <trkpt lat="45.19578" lon="5.58885">
        <ele>1598.4</ele>
        <time>2011-05-08T11:11:19.001Z</time>
      </trkpt>
      <trkpt lat="45.196" lon="5.58898">
        <ele>1599.8</ele>
        <time>2011-05-08T11:11:33.998Z</time>
      </trkpt>
      <trkpt lat="45.1963" lon="5.5891">
        <ele>1605.7</ele>
        <time>2011-05-08T11:11:53.998Z</time>
      </trkpt>
      <trkpt lat="45.19649" lon="5.58922">
        <ele>1613.9</ele>
        <time>2011-05-08T11:12:09Z</time>
      </trkpt>
      <trkpt lat="45.19671" lon="5.58937">
        <ele>1620.2</ele>
        <time>2011-05-08T11:12:23.997Z</time>
      </trkpt>
      <trkpt lat="45.19692" lon="5.58952">
        <ele>1630.4</ele>
        <time>2011-05-08T11:12:44.001Z</time>
      </trkpt>
      <trkpt lat="45.1971" lon="5.58975">
        <ele>1633.6</ele>
        <time>2011-05-08T11:12:59Z</time>
      </trkpt>
      <trkpt lat="45.19725" lon="5.58995">
        <ele>1628.3</ele>
        <time>2011-05-08T11:13:08.998Z</time>
      </trkpt>
      <trkpt lat="45.19739" lon="5.59018">
        <ele>1624.1</ele>
        <time>2011-05-08T11:13:18.998Z</time>
      </trkpt>
      <trkpt lat="45.19754" lon="5.5905">
        <ele>1629.1</ele>
        <time>2011-05-08T11:13:34.001Z</time>
      </trkpt>
      <trkpt lat="45.19764" lon="5.59078">
        <ele>1625.8</ele>
        <time>2011-05-08T11:13:44Z</time>
      </trkpt>
      <trkpt lat="45.19776" lon="5.59104">
        <ele>1625.7</ele>
        <time>2011-05-08T11:13:53.998Z</time>
      </trkpt>
      <trkpt lat="45.19784" lon="5.59132">
        <ele>1626.9</ele>
        <time>2011-05-08T11:14:09.002Z</time>
      </trkpt>
      <trkpt lat="45.1979" lon="5.59179">
        <ele>1632.3</ele>
        <time>2011-05-08T11:14:24.002Z</time>
      </trkpt>
      <trkpt lat="45.19781" lon="5.59214">
        <ele>1623.9</ele>
        <time>2011-05-08T11:22:29Z</time>
      </trkpt>
      <trkpt lat="45.19782" lon="5.59258">
        <ele>1619.1</ele>
        <time>2011-05-08T11:22:44.001Z</time>
      </trkpt>
      <trkpt lat="45.19772" lon="5.59287">
        <ele>1602.8</ele>
        <time>2011-05-08T11:25:19.008Z</time>
      </trkpt>
      <trkpt lat="45.19751" lon="5.5932">
        <ele>1604.7</ele>
        <time>2011-05-08T11:25:29Z</time>
      </trkpt>
      <trkpt lat="45.19716" lon="5.59339">
        <ele>1602.6</ele>
        <time>2011-05-08T11:25:39.001Z</time>
      </trkpt>
      <trkpt lat="45.19672" lon="5.59335">
        <ele>1601.2</ele>
        <time>2011-05-08T11:25:48.997Z</time>
      </trkpt>
      <trkpt lat="45.19648" lon="5.59331">
        <ele>1601.2</ele>
        <time>2011-05-08T11:25:53.997Z</time>
      </trkpt>
      <trkpt lat="45.19624" lon="5.59338">
        <ele>1601</ele>
        <time>2011-05-08T11:25:58.998Z</time>
      </trkpt>
      <trkpt lat="45.196" lon="5.59345">
        <ele>1600.4</ele>
        <time>2011-05-08T11:26:04.001Z</time>
      </trkpt>
      <trkpt lat="45.19553" lon="5.5936">
        <ele>1602.4</ele>
        <time>2011-05-08T11:26:14Z</time>
      </trkpt>
      <trkpt lat="45.19533" lon="5.59374">
        <ele>1604.9</ele>
        <time>2011-05-08T11:26:19Z</time>
      </trkpt>
      <trkpt lat="45.19494" lon="5.59387">
        <ele>1608.9</ele>
        <time>2011-05-08T11:26:28.997Z</time>
      </trkpt>
      <trkpt lat="45.19463" lon="5.59389">
        <ele>1611.2</ele>
        <time>2011-05-08T11:26:39.001Z</time>
      </trkpt>
      <trkpt lat="45.19429" lon="5.59389">
        <ele>1611.4</ele>
        <time>2011-05-08T11:26:48.998Z</time>
      </trkpt>
      <trkpt lat="45.19388" lon="5.59392">
        <ele>1606.7</ele>
        <time>2011-05-08T11:26:59.002Z</time>
      </trkpt>
      <trkpt lat="45.19347" lon="5.5939">
        <ele>1604.2</ele>
        <time>2011-05-08T11:27:08.998Z</time>
      </trkpt>
      <trkpt lat="45.19315" lon="5.59385">
        <ele>1607.3</ele>
        <time>2011-05-08T11:27:18.998Z</time>
      </trkpt>
      <trkpt lat="45.19278" lon="5.59385">
        <ele>1604.7</ele>
        <time>2011-05-08T11:27:29.001Z</time>
      </trkpt>
      <trkpt lat="45.19237" lon="5.5938">
        <ele>1598.9</ele>
        <time>2011-05-08T11:27:38.998Z</time>
      </trkpt>
      <trkpt lat="45.19214" lon="5.59389">
        <ele>1597.6</ele>
        <time>2011-05-08T11:27:44.004Z</time>
      </trkpt>
      <trkpt lat="45.19187" lon="5.59393">
        <ele>1596.2</ele>
        <time>2011-05-08T11:27:49Z</time>
      </trkpt>
      <trkpt lat="45.19141" lon="5.59392">
        <ele>1592.4</ele>
        <time>2011-05-08T11:27:59Z</time>
      </trkpt>
      <trkpt lat="45.19114" lon="5.59397">
        <ele>1590.1</ele>
        <time>2011-05-08T11:28:04Z</time>
      </trkpt>
      <trkpt lat="45.1907" lon="5.59399">
        <ele>1586.9</ele>
        <time>2011-05-08T11:28:14Z</time>
      </trkpt>
      <trkpt lat="45.19027" lon="5.59398">
        <ele>1586.1</ele>
        <time>2011-05-08T11:28:23.998Z</time>
      </trkpt>
      <trkpt lat="45.1898" lon="5.59412">
        <ele>1583.8</ele>
        <time>2011-05-08T11:28:34.001Z</time>
      </trkpt>
      <trkpt lat="45.18959" lon="5.5943">
        <ele>1581.3</ele>
        <time>2011-05-08T11:28:38.998Z</time>
      </trkpt>
      <trkpt lat="45.18941" lon="5.59445">
        <ele>1578</ele>
        <time>2011-05-08T11:28:44.002Z</time>
      </trkpt>
      <trkpt lat="45.1892" lon="5.59454">
        <ele>1577.6</ele>
        <time>2011-05-08T11:28:49Z</time>
      </trkpt>
      <trkpt lat="45.18893" lon="5.59462">
        <ele>1577.3</ele>
        <time>2011-05-08T11:28:54Z</time>
      </trkpt>
      <trkpt lat="45.18867" lon="5.59466">
        <ele>1576.2</ele>
        <time>2011-05-08T11:28:59Z</time>
      </trkpt>
      <trkpt lat="45.18845" lon="5.59475">
        <ele>1575.4</ele>
        <time>2011-05-08T11:29:03.998Z</time>
      </trkpt>
      <trkpt lat="45.18831" lon="5.59496">
        <ele>1575.2</ele>
        <time>2011-05-08T11:29:08.998Z</time>
      </trkpt>
      <trkpt lat="45.18828" lon="5.59545">
        <ele>1576.7</ele>
        <time>2011-05-08T11:29:19.002Z</time>
      </trkpt>
      <trkpt lat="45.188" lon="5.59549">
        <ele>1577.2</ele>
        <time>2011-05-08T11:29:29.001Z</time>
      </trkpt>
      <trkpt lat="45.18766" lon="5.59552">
        <ele>1576.3</ele>
        <time>2011-05-08T11:29:39.001Z</time>
      </trkpt>
      <trkpt lat="45.1873" lon="5.59555">
        <ele>1572</ele>
        <time>2011-05-08T11:29:48.998Z</time>
      </trkpt>
      <trkpt lat="45.1869" lon="5.59547">
        <ele>1570.2</ele>
        <time>2011-05-08T11:29:59Z</time>
      </trkpt>
      <trkpt lat="45.18651" lon="5.59536">
        <ele>1568.2</ele>
        <time>2011-05-08T11:30:08.998Z</time>
      </trkpt>
      <trkpt lat="45.18602" lon="5.59533">
        <ele>1565.5</ele>
        <time>2011-05-08T11:30:19Z</time>
      </trkpt>
      <trkpt lat="45.18576" lon="5.59525">
        <ele>1565.7</ele>
        <time>2011-05-08T11:30:24Z</time>
      </trkpt>
      <trkpt lat="45.18543" lon="5.59516">
        <ele>1567.6</ele>
        <time>2011-05-08T11:30:34.001Z</time>
      </trkpt>
      <trkpt lat="45.18516" lon="5.59496">
        <ele>1567.8</ele>
        <time>2011-05-08T11:30:44Z</time>
      </trkpt>
      <trkpt lat="45.18489" lon="5.59473">
        <ele>1566.6</ele>
        <time>2011-05-08T11:30:54Z</time>
      </trkpt>
      <trkpt lat="45.18472" lon="5.59454">
        <ele>1566.1</ele>
        <time>2011-05-08T11:30:59Z</time>
      </trkpt>
      <trkpt lat="45.18459" lon="5.59433">
        <ele>1565.1</ele>
        <time>2011-05-08T11:31:03.998Z</time>
      </trkpt>
      <trkpt lat="45.18445" lon="5.59412">
        <ele>1563.4</ele>
        <time>2011-05-08T11:31:08.998Z</time>
      </trkpt>
      <trkpt lat="45.18419" lon="5.59379">
        <ele>1560.6</ele>
        <time>2011-05-08T11:31:19.001Z</time>
      </trkpt>
      <trkpt lat="45.18396" lon="5.59344">
        <ele>1559.4</ele>
        <time>2011-05-08T11:31:28.997Z</time>
      </trkpt>
      <trkpt lat="45.18383" lon="5.59324">
        <ele>1558.4</ele>
        <time>2011-05-08T11:31:34.001Z</time>
      </trkpt>
      <trkpt lat="45.18356" lon="5.59292">
        <ele>1558.2</ele>
        <time>2011-05-08T11:31:43.998Z</time>
      </trkpt>
      <trkpt lat="45.18319" lon="5.5929">
        <ele>1556.5</ele>
        <time>2011-05-08T11:31:54Z</time>
      </trkpt>
      <trkpt lat="45.18293" lon="5.59274">
        <ele>1556.4</ele>
        <time>2011-05-08T11:32:04.001Z</time>
      </trkpt>
      <trkpt lat="45.1827" lon="5.59242">
        <ele>1557.2</ele>
        <time>2011-05-08T11:32:13.997Z</time>
      </trkpt>
      <trkpt lat="45.18241" lon="5.59211">
        <ele>1555.7</ele>
        <time>2011-05-08T11:32:23.998Z</time>
      </trkpt>
      <trkpt lat="45.1821" lon="5.59186">
        <ele>1554.4</ele>
        <time>2011-05-08T11:32:33.998Z</time>
      </trkpt>
      <trkpt lat="45.18174" lon="5.59169">
        <ele>1556.2</ele>
        <time>2011-05-08T11:32:43.998Z</time>
      </trkpt>
      <trkpt lat="45.18153" lon="5.59154">
        <ele>1558.1</ele>
        <time>2011-05-08T11:32:49.002Z</time>
      </trkpt>
      <trkpt lat="45.18117" lon="5.59144">
        <ele>1561.4</ele>
        <time>2011-05-08T11:32:58.998Z</time>
      </trkpt>
      <trkpt lat="45.18085" lon="5.59124">
        <ele>1561.7</ele>
        <time>2011-05-08T11:33:09.001Z</time>
      </trkpt>
      <trkpt lat="45.18056" lon="5.59098">
        <ele>1559.9</ele>
        <time>2011-05-08T11:33:18.998Z</time>
      </trkpt>
      <trkpt lat="45.1803" lon="5.5908">
        <ele>1558.2</ele>
        <time>2011-05-08T11:33:28.997Z</time>
      </trkpt>
      <trkpt lat="45.17996" lon="5.59048">
        <ele>1554.8</ele>
        <time>2011-05-08T11:33:39Z</time>
      </trkpt>
      <trkpt lat="45.17976" lon="5.59032">
        <ele>1552.4</ele>
        <time>2011-05-08T11:33:49Z</time>
      </trkpt>
      <trkpt lat="45.17949" lon="5.59016">
        <ele>1556.7</ele>
        <time>2011-05-08T11:34:19Z</time>
      </trkpt>
      <trkpt lat="45.17915" lon="5.59012">
        <ele>1566.7</ele>
        <time>2011-05-08T11:34:34.001Z</time>
      </trkpt>
      <trkpt lat="45.17896" lon="5.58992">
        <ele>1566.1</ele>
        <time>2011-05-08T11:34:49Z</time>
      </trkpt>
      <trkpt lat="45.17871" lon="5.58989">
        <ele>1567.5</ele>
        <time>2011-05-08T11:35:04Z</time>
      </trkpt>
      <trkpt lat="45.17846" lon="5.58993">
        <ele>1571.4</ele>
        <time>2011-05-08T11:35:19.001Z</time>
      </trkpt>
      <trkpt lat="45.17815" lon="5.59002">
        <ele>1570.8</ele>
        <time>2011-05-08T11:35:34Z</time>
      </trkpt>
      <trkpt lat="45.1779" lon="5.59007">
        <ele>1572.1</ele>
        <time>2011-05-08T11:35:49Z</time>
      </trkpt>
      <trkpt lat="45.17763" lon="5.59011">
        <ele>1576.1</ele>
        <time>2011-05-08T11:36:04Z</time>
      </trkpt>
      <trkpt lat="45.17729" lon="5.58999">
        <ele>1578.2</ele>
        <time>2011-05-08T11:36:19Z</time>
      </trkpt>
      <trkpt lat="45.17708" lon="5.58987">
        <ele>1580.8</ele>
        <time>2011-05-08T11:36:29Z</time>
      </trkpt>
      <trkpt lat="45.17691" lon="5.58971">
        <ele>1582.1</ele>
        <time>2011-05-08T11:36:39Z</time>
      </trkpt>
      <trkpt lat="45.17674" lon="5.58957">
        <ele>1582.7</ele>
        <time>2011-05-08T11:36:49Z</time>
      </trkpt>
      <trkpt lat="45.17644" lon="5.58942">
        <ele>1587.9</ele>
        <time>2011-05-08T11:37:04Z</time>
      </trkpt>
      <trkpt lat="45.17616" lon="5.58932">
        <ele>1588.6</ele>
        <time>2011-05-08T11:37:18.998Z</time>
      </trkpt>
      <trkpt lat="45.17586" lon="5.58915">
        <ele>1590.2</ele>
        <time>2011-05-08T11:37:39Z</time>
      </trkpt>
      <trkpt lat="45.17564" lon="5.58891">
        <ele>1587.5</ele>
        <time>2011-05-08T11:37:48.998Z</time>
      </trkpt>
      <trkpt lat="45.17545" lon="5.58877">
        <ele>1587.4</ele>
        <time>2011-05-08T11:37:59.001Z</time>
      </trkpt>
      <trkpt lat="45.17519" lon="5.58866">
        <ele>1587.9</ele>
        <time>2011-05-08T11:38:09Z</time>
      </trkpt>
      <trkpt lat="45.17494" lon="5.58862">
        <ele>1591.3</ele>
        <time>2011-05-08T11:38:19Z</time>
      </trkpt>
      <trkpt lat="45.17465" lon="5.5884">
        <ele>1591.4</ele>
        <time>2011-05-08T11:38:29Z</time>
      </trkpt>
      <trkpt lat="45.17438" lon="5.5882">
        <ele>1592.1</ele>
        <time>2011-05-08T11:38:39Z</time>
      </trkpt>
      <trkpt lat="45.17402" lon="5.58817">
        <ele>1595</ele>
        <time>2011-05-08T11:38:49Z</time>
      </trkpt>
      <trkpt lat="45.17371" lon="5.58799">
        <ele>1596.4</ele>
        <time>2011-05-08T11:38:59Z</time>
      </trkpt>
      <trkpt lat="45.17346" lon="5.58783">
        <ele>1596.9</ele>
        <time>2011-05-08T11:39:08.997Z</time>
      </trkpt>
      <trkpt lat="45.17316" lon="5.58773">
        <ele>1594.8</ele>
        <time>2011-05-08T11:39:19Z</time>
      </trkpt>
      <trkpt lat="45.17283" lon="5.58753">
        <ele>1594.8</ele>
        <time>2011-05-08T11:39:29Z</time>
      </trkpt>
      <trkpt lat="45.17251" lon="5.58737">
        <ele>1594.7</ele>
        <time>2011-05-08T11:39:39Z</time>
      </trkpt>
      <trkpt lat="45.17231" lon="5.58724">
        <ele>1598.7</ele>
        <time>2011-05-08T11:39:49Z</time>
      </trkpt>
      <trkpt lat="45.17213" lon="5.5869">
        <ele>1586</ele>
        <time>2011-05-08T11:40:14Z</time>
      </trkpt>
      <trkpt lat="45.17179" lon="5.58671">
        <ele>1584.4</ele>
        <time>2011-05-08T11:40:24Z</time>
      </trkpt>
      <trkpt lat="45.17146" lon="5.58675">
        <ele>1589.3</ele>
        <time>2011-05-08T11:40:34Z</time>
      </trkpt>
      <trkpt lat="45.17096" lon="5.58681">
        <ele>1588.8</ele>
        <time>2011-05-08T11:40:44.001Z</time>
      </trkpt>
      <trkpt lat="45.1706" lon="5.58688">
        <ele>1580.4</ele>
        <time>2011-05-08T11:40:54Z</time>
      </trkpt>
      <trkpt lat="45.17037" lon="5.58696">
        <ele>1575.3</ele>
        <time>2011-05-08T11:41:04Z</time>
      </trkpt>
      <trkpt lat="45.17003" lon="5.58688">
        <ele>1574.5</ele>
        <time>2011-05-08T11:41:14Z</time>
      </trkpt>
      <trkpt lat="45.16967" lon="5.58675">
        <ele>1572.5</ele>
        <time>2011-05-08T11:41:24Z</time>
      </trkpt>
      <trkpt lat="45.1694" lon="5.5867">
        <ele>1569.3</ele>
        <time>2011-05-08T11:41:29Z</time>
      </trkpt>
      <trkpt lat="45.16905" lon="5.58676">
        <ele>1561.4</ele>
        <time>2011-05-08T11:41:39Z</time>
      </trkpt>
      <trkpt lat="45.16878" lon="5.58672">
        <ele>1557.1</ele>
        <time>2011-05-08T11:41:49Z</time>
      </trkpt>
      <trkpt lat="45.1686" lon="5.58657">
        <ele>1560.9</ele>
        <time>2011-05-08T11:41:59Z</time>
      </trkpt>
      <trkpt lat="45.16832" lon="5.5865">
        <ele>1580.6</ele>
        <time>2011-05-08T11:42:14Z</time>
      </trkpt>
      <trkpt lat="45.16806" lon="5.58658">
        <ele>1583.6</ele>
        <time>2011-05-08T11:42:29Z</time>
      </trkpt>
      <trkpt lat="45.16771" lon="5.58661">
        <ele>1575</ele>
        <time>2011-05-08T11:42:39Z</time>
      </trkpt>
      <trkpt lat="45.16744" lon="5.58657">
        <ele>1555.3</ele>
        <time>2011-05-08T11:42:49Z</time>
      </trkpt>
      <trkpt lat="45.16707" lon="5.58657">
        <ele>1536.9</ele>
        <time>2011-05-08T11:42:59Z</time>
      </trkpt>
      <trkpt lat="45.16648" lon="5.58657">
        <ele>1529.4</ele>
        <time>2011-05-08T11:43:14Z</time>
      </trkpt>
      <trkpt lat="45.1662" lon="5.58656">
        <ele>1527</ele>
        <time>2011-05-08T11:43:19Z</time>
      </trkpt>
      <trkpt lat="45.16593" lon="5.58662">
        <ele>1522.5</ele>
        <time>2011-05-08T11:43:24.001Z</time>
      </trkpt>
      <trkpt lat="45.16569" lon="5.58666">
        <ele>1518.9</ele>
        <time>2011-05-08T11:43:29.001Z</time>
      </trkpt>
      <trkpt lat="45.16538" lon="5.58671">
        <ele>1508.6</ele>
        <time>2011-05-08T11:43:39Z</time>
      </trkpt>
      <trkpt lat="45.16508" lon="5.58675">
        <ele>1503.3</ele>
        <time>2011-05-08T11:43:49Z</time>
      </trkpt>
      <trkpt lat="45.16489" lon="5.58687">
        <ele>1501.1</ele>
        <time>2011-05-08T11:43:59Z</time>
      </trkpt>
      <trkpt lat="45.16463" lon="5.58696">
        <ele>1492.7</ele>
        <time>2011-05-08T11:44:09Z</time>
      </trkpt>
      <trkpt lat="45.16434" lon="5.587">
        <ele>1483.9</ele>
        <time>2011-05-08T11:44:24Z</time>
      </trkpt>
      <trkpt lat="45.16407" lon="5.58709">
        <ele>1474.1</ele>
        <time>2011-05-08T11:44:39Z</time>
      </trkpt>
      <trkpt lat="45.16386" lon="5.58718">
        <ele>1466.6</ele>
        <time>2011-05-08T11:44:54Z</time>
      </trkpt>
      <trkpt lat="45.1636" lon="5.58724">
        <ele>1457.9</ele>
        <time>2011-05-08T11:45:04Z</time>
      </trkpt>
      <trkpt lat="45.16332" lon="5.58733">
        <ele>1450.9</ele>
        <time>2011-05-08T11:45:14Z</time>
      </trkpt>
      <trkpt lat="45.16317" lon="5.58752">
        <ele>1444.2</ele>
        <time>2011-05-08T11:45:24Z</time>
      </trkpt>
      <trkpt lat="45.16327" lon="5.58796">
        <ele>1433.9</ele>
        <time>2011-05-08T11:46:14Z</time>
      </trkpt>
      <trkpt lat="45.16341" lon="5.58825">
        <ele>1433.1</ele>
        <time>2011-05-08T11:46:24Z</time>
      </trkpt>
      <trkpt lat="45.16354" lon="5.58864">
        <ele>1431.3</ele>
        <time>2011-05-08T11:46:34Z</time>
      </trkpt>
      <trkpt lat="45.16373" lon="5.58908">
        <ele>1429.4</ele>
        <time>2011-05-08T11:46:44Z</time>
      </trkpt>
      <trkpt lat="45.16386" lon="5.5893">
        <ele>1427</ele>
        <time>2011-05-08T11:46:49Z</time>
      </trkpt>
      <trkpt lat="45.16408" lon="5.58966">
        <ele>1424.6</ele>
        <time>2011-05-08T11:46:59Z</time>
      </trkpt>
      <trkpt lat="45.16433" lon="5.59006">
        <ele>1421.7</ele>
        <time>2011-05-08T11:47:09Z</time>
      </trkpt>
      <trkpt lat="45.16452" lon="5.59049">
        <ele>1417.6</ele>
        <time>2011-05-08T11:47:19Z</time>
      </trkpt>
      <trkpt lat="45.16469" lon="5.59079">
        <ele>1413.9</ele>
        <time>2011-05-08T11:47:24Z</time>
      </trkpt>
      <trkpt lat="45.16481" lon="5.59107">
        <ele>1410.2</ele>
        <time>2011-05-08T11:47:29Z</time>
      </trkpt>
      <trkpt lat="45.16472" lon="5.59142">
        <ele>1412.2</ele>
        <time>2011-05-08T11:47:39Z</time>
      </trkpt>
      <trkpt lat="45.16465" lon="5.59181">
        <ele>1419</ele>
        <time>2011-05-08T11:47:48.998Z</time>
      </trkpt>
      <trkpt lat="45.16455" lon="5.5922">
        <ele>1416.8</ele>
        <time>2011-05-08T11:47:58.998Z</time>
      </trkpt>
      <trkpt lat="45.16444" lon="5.59245">
        <ele>1411.9</ele>
        <time>2011-05-08T11:48:09Z</time>
      </trkpt>
      <trkpt lat="45.16425" lon="5.59283">
        <ele>1404.5</ele>
        <time>2011-05-08T11:48:19Z</time>
      </trkpt>
      <trkpt lat="45.16411" lon="5.59306">
        <ele>1402</ele>
        <time>2011-05-08T11:48:24Z</time>
      </trkpt>
      <trkpt lat="45.16386" lon="5.59317">
        <ele>1396.3</ele>
        <time>2011-05-08T11:48:34Z</time>
      </trkpt>
      <trkpt lat="45.16357" lon="5.59319">
        <ele>1394.4</ele>
        <time>2011-05-08T11:48:44Z</time>
      </trkpt>
      <trkpt lat="45.16322" lon="5.59319">
        <ele>1393.4</ele>
        <time>2011-05-08T11:48:54Z</time>
      </trkpt>
      <trkpt lat="45.16275" lon="5.59306">
        <ele>1386.8</ele>
        <time>2011-05-08T11:49:04Z</time>
      </trkpt>
      <trkpt lat="45.1625" lon="5.59292">
        <ele>1379.1</ele>
        <time>2011-05-08T11:49:14Z</time>
      </trkpt>
      <trkpt lat="45.16224" lon="5.59285">
        <ele>1371.5</ele>
        <time>2011-05-08T11:49:24Z</time>
      </trkpt>
      <trkpt lat="45.16197" lon="5.59275">
        <ele>1366.4</ele>
        <time>2011-05-08T11:49:34Z</time>
      </trkpt>
      <trkpt lat="45.16172" lon="5.5926">
        <ele>1368.8</ele>
        <time>2011-05-08T11:49:44Z</time>
      </trkpt>
      <trkpt lat="45.1614" lon="5.59257">
        <ele>1381.3</ele>
        <time>2011-05-08T11:49:59Z</time>
      </trkpt>
      <trkpt lat="45.16114" lon="5.59249">
        <ele>1367.3</ele>
        <time>2011-05-08T11:50:14Z</time>
      </trkpt>
      <trkpt lat="45.16088" lon="5.59248">
        <ele>1354.2</ele>
        <time>2011-05-08T11:50:24Z</time>
      </trkpt>
      <trkpt lat="45.16049" lon="5.59233">
        <ele>1340.3</ele>
        <time>2011-05-08T11:50:34Z</time>
      </trkpt>
      <trkpt lat="45.16031" lon="5.59219">
        <ele>1337.1</ele>
        <time>2011-05-08T11:50:39Z</time>
      </trkpt>
      <trkpt lat="45.16032" lon="5.59255">
        <ele>1317.6</ele>
        <time>2011-05-08T11:51:03.998Z</time>
      </trkpt>
      <trkpt lat="45.16052" lon="5.59279">
        <ele>1310.2</ele>
        <time>2011-05-08T11:51:14Z</time>
      </trkpt>
      <trkpt lat="45.16076" lon="5.59295">
        <ele>1303.3</ele>
        <time>2011-05-08T11:51:24Z</time>
      </trkpt>
      <trkpt lat="45.16096" lon="5.59322">
        <ele>1316.1</ele>
        <time>2011-05-08T11:51:39Z</time>
      </trkpt>
      <trkpt lat="45.16109" lon="5.59343">
        <ele>1320.1</ele>
        <time>2011-05-08T11:51:44Z</time>
      </trkpt>
      <trkpt lat="45.16126" lon="5.59362">
        <ele>1321.3</ele>
        <time>2011-05-08T11:51:49Z</time>
      </trkpt>
      <trkpt lat="45.16139" lon="5.59382">
        <ele>1321.1</ele>
        <time>2011-05-08T11:51:54Z</time>
      </trkpt>
      <trkpt lat="45.16159" lon="5.59419">
        <ele>1315</ele>
        <time>2011-05-08T11:52:04Z</time>
      </trkpt>
      <trkpt lat="45.16176" lon="5.5945">
        <ele>1306.3</ele>
        <time>2011-05-08T11:52:14Z</time>
      </trkpt>
      <trkpt lat="45.16192" lon="5.59487">
        <ele>1299.7</ele>
        <time>2011-05-08T11:52:24Z</time>
      </trkpt>
      <trkpt lat="45.16216" lon="5.59522">
        <ele>1292.8</ele>
        <time>2011-05-08T11:52:34Z</time>
      </trkpt>
      <trkpt lat="45.16233" lon="5.59538">
        <ele>1291.4</ele>
        <time>2011-05-08T11:52:39Z</time>
      </trkpt>
      <trkpt lat="45.16252" lon="5.59551">
        <ele>1289.2</ele>
        <time>2011-05-08T11:52:44Z</time>
      </trkpt>
      <trkpt lat="45.16281" lon="5.59569">
        <ele>1286.6</ele>
        <time>2011-05-08T11:52:54Z</time>
      </trkpt>
      <trkpt lat="45.16302" lon="5.596">
        <ele>1280.4</ele>
        <time>2011-05-08T11:53:03.998Z</time>
      </trkpt>
      <trkpt lat="45.16323" lon="5.59629">
        <ele>1274.1</ele>
        <time>2011-05-08T11:53:14Z</time>
      </trkpt>
      <trkpt lat="45.16344" lon="5.59662">
        <ele>1267.3</ele>
        <time>2011-05-08T11:53:24.001Z</time>
      </trkpt>
      <trkpt lat="45.16363" lon="5.597">
        <ele>1259.9</ele>
        <time>2011-05-08T11:53:33.997Z</time>
      </trkpt>
      <trkpt lat="45.16382" lon="5.59719">
        <ele>1254.1</ele>
        <time>2011-05-08T11:53:44Z</time>
      </trkpt>
      <trkpt lat="45.16393" lon="5.59693">
        <ele>1251.8</ele>
        <time>2011-05-08T11:53:59Z</time>
      </trkpt>
      <trkpt lat="45.16406" lon="5.59658">
        <ele>1256</ele>
        <time>2011-05-08T11:54:09Z</time>
      </trkpt>
      <trkpt lat="45.16413" lon="5.59701">
        <ele>1263.5</ele>
        <time>2011-05-08T11:54:24Z</time>
      </trkpt>
      <trkpt lat="45.16423" lon="5.59727">
        <ele>1263.8</ele>
        <time>2011-05-08T11:54:29Z</time>
      </trkpt>
      <trkpt lat="45.16436" lon="5.59749">
        <ele>1258.6</ele>
        <time>2011-05-08T11:54:59Z</time>
      </trkpt>
      <trkpt lat="45.16451" lon="5.59766">
        <ele>1258.6</ele>
        <time>2011-05-08T11:55:08.997Z</time>
      </trkpt>
      <trkpt lat="45.1647" lon="5.59792">
        <ele>1262.6</ele>
        <time>2011-05-08T11:55:19Z</time>
      </trkpt>
      <trkpt lat="45.16497" lon="5.59815">
        <ele>1262.9</ele>
        <time>2011-05-08T11:55:29Z</time>
      </trkpt>
      <trkpt lat="45.16525" lon="5.59827">
        <ele>1261.2</ele>
        <time>2011-05-08T11:55:39.001Z</time>
      </trkpt>
      <trkpt lat="45.16548" lon="5.59841">
        <ele>1259.9</ele>
        <time>2011-05-08T11:56:04Z</time>
      </trkpt>
      <trkpt lat="45.16574" lon="5.59844">
        <ele>1265.8</ele>
        <time>2011-05-08T11:56:19Z</time>
      </trkpt>
      <trkpt lat="45.16609" lon="5.59844">
        <ele>1270.8</ele>
        <time>2011-05-08T11:56:39Z</time>
      </trkpt>
      <trkpt lat="45.16634" lon="5.59838">
        <ele>1275.2</ele>
        <time>2011-05-08T11:56:49Z</time>
      </trkpt>
      <trkpt lat="45.16663" lon="5.59852">
        <ele>1275.2</ele>
        <time>2011-05-08T11:56:59Z</time>
      </trkpt>
      <trkpt lat="45.16682" lon="5.59883">
        <ele>1270.7</ele>
        <time>2011-05-08T11:57:04Z</time>
      </trkpt>
      <trkpt lat="45.16719" lon="5.59909">
        <ele>1266.1</ele>
        <time>2011-05-08T11:57:09Z</time>
      </trkpt>
      <trkpt lat="45.16762" lon="5.59933">
        <ele>1260.4</ele>
        <time>2011-05-08T11:57:14Z</time>
      </trkpt>
      <trkpt lat="45.16807" lon="5.59936">
        <ele>1254.7</ele>
        <time>2011-05-08T11:57:19Z</time>
      </trkpt>
      <trkpt lat="45.16846" lon="5.59929">
        <ele>1253.1</ele>
        <time>2011-05-08T11:57:24Z</time>
      </trkpt>
      <trkpt lat="45.16873" lon="5.59944">
        <ele>1247.9</ele>
        <time>2011-05-08T11:57:29Z</time>
      </trkpt>
      <trkpt lat="45.16859" lon="5.59986">
        <ele>1240.4</ele>
        <time>2011-05-08T11:57:39Z</time>
      </trkpt>
      <trkpt lat="45.16846" lon="5.6003">
        <ele>1229.9</ele>
        <time>2011-05-08T11:57:49Z</time>
      </trkpt>
      <trkpt lat="45.16836" lon="5.60064">
        <ele>1225.6</ele>
        <time>2011-05-08T11:57:59Z</time>
      </trkpt>
      <trkpt lat="45.16822" lon="5.60093">
        <ele>1222.8</ele>
        <time>2011-05-08T11:58:09Z</time>
      </trkpt>
      <trkpt lat="45.1683" lon="5.60125">
        <ele>1238.1</ele>
        <time>2011-05-08T11:58:29Z</time>
      </trkpt>
      <trkpt lat="45.16851" lon="5.60148">
        <ele>1238</ele>
        <time>2011-05-08T11:59:04Z</time>
      </trkpt>
      <trkpt lat="45.16879" lon="5.60156">
        <ele>1244.4</ele>
        <time>2011-05-08T11:59:18.997Z</time>
      </trkpt>
      <trkpt lat="45.16909" lon="5.60152">
        <ele>1246</ele>
        <time>2011-05-08T11:59:38.998Z</time>
      </trkpt>
      <trkpt lat="45.16935" lon="5.60157">
        <ele>1246.3</ele>
        <time>2011-05-08T11:59:53.998Z</time>
      </trkpt>
      <trkpt lat="45.1696" lon="5.60172">
        <ele>1256.4</ele>
        <time>2011-05-08T12:01:13.998Z</time>
      </trkpt>
      <trkpt lat="45.16976" lon="5.60196">
        <ele>1260.7</ele>
        <time>2011-05-08T12:01:29Z</time>
      </trkpt>
      <trkpt lat="45.16987" lon="5.60231">
        <ele>1254.1</ele>
        <time>2011-05-08T12:01:54Z</time>
      </trkpt>
      <trkpt lat="45.17001" lon="5.60258">
        <ele>1241.5</ele>
        <time>2011-05-08T12:02:09Z</time>
      </trkpt>
      <trkpt lat="45.17009" lon="5.60291">
        <ele>1235.9</ele>
        <time>2011-05-08T12:02:24Z</time>
      </trkpt>
      <trkpt lat="45.17015" lon="5.60337">
        <ele>1230.1</ele>
        <time>2011-05-08T12:02:34Z</time>
      </trkpt>
      <trkpt lat="45.17026" lon="5.60362">
        <ele>1228</ele>
        <time>2011-05-08T12:02:39Z</time>
      </trkpt>
      <trkpt lat="45.1704" lon="5.60392">
        <ele>1224.6</ele>
        <time>2011-05-08T12:02:48.997Z</time>
      </trkpt>
      <trkpt lat="45.17064" lon="5.60424">
        <ele>1219.1</ele>
        <time>2011-05-08T12:02:59Z</time>
      </trkpt>
      <trkpt lat="45.17088" lon="5.60452">
        <ele>1219.2</ele>
        <time>2011-05-08T12:03:14Z</time>
      </trkpt>
      <trkpt lat="45.1711" lon="5.60467">
        <ele>1214.6</ele>
        <time>2011-05-08T12:03:24Z</time>
      </trkpt>
      <trkpt lat="45.17138" lon="5.6048">
        <ele>1208.8</ele>
        <time>2011-05-08T12:03:39.001Z</time>
      </trkpt>
      <trkpt lat="45.1716" lon="5.60486">
        <ele>1209.5</ele>
        <time>2011-05-08T12:03:49Z</time>
      </trkpt>
      <trkpt lat="45.17189" lon="5.60491">
        <ele>1202.7</ele>
        <time>2011-05-08T12:04:09Z</time>
      </trkpt>
      <trkpt lat="45.1721" lon="5.60477">
        <ele>1204.2</ele>
        <time>2011-05-08T12:04:24Z</time>
      </trkpt>
      <trkpt lat="45.17238" lon="5.60473">
        <ele>1198.3</ele>
        <time>2011-05-08T12:04:39Z</time>
      </trkpt>
      <trkpt lat="45.1727" lon="5.60479">
        <ele>1187.2</ele>
        <time>2011-05-08T12:04:49Z</time>
      </trkpt>
      <trkpt lat="45.17296" lon="5.60471">
        <ele>1177.9</ele>
        <time>2011-05-08T12:04:59Z</time>
      </trkpt>
      <trkpt lat="45.17326" lon="5.60478">
        <ele>1171.7</ele>
        <time>2011-05-08T12:05:09Z</time>
      </trkpt>
      <trkpt lat="45.17347" lon="5.60491">
        <ele>1169.2</ele>
        <time>2011-05-08T12:05:14Z</time>
      </trkpt>
      <trkpt lat="45.17369" lon="5.60509">
        <ele>1162</ele>
        <time>2011-05-08T12:05:24Z</time>
      </trkpt>
      <trkpt lat="45.17379" lon="5.60546">
        <ele>1155.6</ele>
        <time>2011-05-08T12:05:34Z</time>
      </trkpt>
      <trkpt lat="45.17383" lon="5.606">
        <ele>1143</ele>
        <time>2011-05-08T12:05:59Z</time>
      </trkpt>
      <trkpt lat="45.1739" lon="5.60644">
        <ele>1135.1</ele>
        <time>2011-05-08T12:06:24Z</time>
      </trkpt>
      <trkpt lat="45.17399" lon="5.60681">
        <ele>1122</ele>
        <time>2011-05-08T12:06:49Z</time>
      </trkpt>
      <trkpt lat="45.17415" lon="5.60723">
        <ele>1113.3</ele>
        <time>2011-05-08T12:07:14Z</time>
      </trkpt>
      <trkpt lat="45.17431" lon="5.60766">
        <ele>1102.3</ele>
        <time>2011-05-08T12:07:39.001Z</time>
      </trkpt>
      <trkpt lat="45.1744" lon="5.60794">
        <ele>1091.1</ele>
        <time>2011-05-08T12:07:54Z</time>
      </trkpt>
      <trkpt lat="45.17448" lon="5.60834">
        <ele>1078.1</ele>
        <time>2011-05-08T12:08:14Z</time>
      </trkpt>
      <trkpt lat="45.17458" lon="5.60859">
        <ele>1079.2</ele>
        <time>2011-05-08T12:08:29Z</time>
      </trkpt>
      <trkpt lat="45.17466" lon="5.60891">
        <ele>1075.6</ele>
        <time>2011-05-08T12:08:49Z</time>
      </trkpt>
      <trkpt lat="45.17477" lon="5.60925">
        <ele>1066.6</ele>
        <time>2011-05-08T12:09:09Z</time>
      </trkpt>
      <trkpt lat="45.17488" lon="5.6097">
        <ele>1059.6</ele>
        <time>2011-05-08T12:09:24Z</time>
      </trkpt>
      <trkpt lat="45.17511" lon="5.61013">
        <ele>1055.6</ele>
        <time>2011-05-08T12:09:34Z</time>
      </trkpt>
      <trkpt lat="45.17518" lon="5.61051">
        <ele>1045.8</ele>
        <time>2011-05-08T12:09:44Z</time>
      </trkpt>
      <trkpt lat="45.17522" lon="5.6109">
        <ele>1038.5</ele>
        <time>2011-05-08T12:09:54Z</time>
      </trkpt>
      <trkpt lat="45.17529" lon="5.61127">
        <ele>1031</ele>
        <time>2011-05-08T12:10:04Z</time>
      </trkpt>
      <trkpt lat="45.17526" lon="5.61161">
        <ele>1027.7</ele>
        <time>2011-05-08T12:10:19Z</time>
      </trkpt>
      <trkpt lat="45.17522" lon="5.61199">
        <ele>1025</ele>
        <time>2011-05-08T12:10:44Z</time>
      </trkpt>
      <trkpt lat="45.17518" lon="5.61244">
        <ele>1017.4</ele>
        <time>2011-05-08T12:11:09Z</time>
      </trkpt>
      <trkpt lat="45.17512" lon="5.61286">
        <ele>993.6</ele>
        <time>2011-05-08T12:11:29Z</time>
      </trkpt>
      <trkpt lat="45.17506" lon="5.61322">
        <ele>983.3</ele>
        <time>2011-05-08T12:11:44Z</time>
      </trkpt>
      <trkpt lat="45.17525" lon="5.61309">
        <ele>962.6</ele>
        <time>2011-05-08T12:12:24Z</time>
      </trkpt>
      <trkpt lat="45.17546" lon="5.61288">
        <ele>973</ele>
        <time>2011-05-08T12:12:34Z</time>
      </trkpt>
      <trkpt lat="45.17568" lon="5.61248">
        <ele>979.6</ele>
        <time>2011-05-08T12:12:44Z</time>
      </trkpt>
      <trkpt lat="45.17574" lon="5.61212">
        <ele>977.2</ele>
        <time>2011-05-08T12:12:54Z</time>
      </trkpt>
      <trkpt lat="45.17581" lon="5.61179">
        <ele>973</ele>
        <time>2011-05-08T12:12:59Z</time>
      </trkpt>
      <trkpt lat="45.1759" lon="5.61133">
        <ele>970.7</ele>
        <time>2011-05-08T12:13:04Z</time>
      </trkpt>
      <trkpt lat="45.17603" lon="5.61079">
        <ele>965.6</ele>
        <time>2011-05-08T12:13:09Z</time>
      </trkpt>
      <trkpt lat="45.17619" lon="5.61056">
        <ele>963.3</ele>
        <time>2011-05-08T12:13:14Z</time>
      </trkpt>
      <trkpt lat="45.17646" lon="5.61076">
        <ele>963.5</ele>
        <time>2011-05-08T12:13:29Z</time>
      </trkpt>
      <trkpt lat="45.17661" lon="5.61125">
        <ele>966.2</ele>
        <time>2011-05-08T12:13:39Z</time>
      </trkpt>
      <trkpt lat="45.17675" lon="5.61186">
        <ele>965.7</ele>
        <time>2011-05-08T12:13:49Z</time>
      </trkpt>
      <trkpt lat="45.17683" lon="5.61233">
        <ele>962.1</ele>
        <time>2011-05-08T12:13:54Z</time>
      </trkpt>
      <trkpt lat="45.17696" lon="5.61313">
        <ele>956.4</ele>
        <time>2011-05-08T12:14:04Z</time>
      </trkpt>
      <trkpt lat="45.17707" lon="5.61363">
        <ele>955.7</ele>
        <time>2011-05-08T12:14:09Z</time>
      </trkpt>
      <trkpt lat="45.17716" lon="5.61413">
        <ele>953.5</ele>
        <time>2011-05-08T12:14:14.001Z</time>
      </trkpt>
      <trkpt lat="45.17724" lon="5.61453">
        <ele>951.1</ele>
        <time>2011-05-08T12:14:19Z</time>
      </trkpt>
      <trkpt lat="45.1774" lon="5.61478">
        <ele>950.8</ele>
        <time>2011-05-08T12:14:24Z</time>
      </trkpt>
      <trkpt lat="45.17754" lon="5.61497">
        <ele>951.4</ele>
        <time>2011-05-08T12:14:29Z</time>
      </trkpt>
      <trkpt lat="45.17782" lon="5.61533">
        <ele>954.3</ele>
        <time>2011-05-08T12:14:39.001Z</time>
      </trkpt>
      <trkpt lat="45.17816" lon="5.61566">
        <ele>953.4</ele>
        <time>2011-05-08T12:14:49Z</time>
      </trkpt>
      <trkpt lat="45.17841" lon="5.6157">
        <ele>950.8</ele>
        <time>2011-05-08T12:14:54Z</time>
      </trkpt>
      <trkpt lat="45.17869" lon="5.61581">
        <ele>947.7</ele>
        <time>2011-05-08T12:14:59Z</time>
      </trkpt>
      <trkpt lat="45.17894" lon="5.61599">
        <ele>947.2</ele>
        <time>2011-05-08T12:15:04Z</time>
      </trkpt>
      <trkpt lat="45.1792" lon="5.61613">
        <ele>947.4</ele>
        <time>2011-05-08T12:15:09Z</time>
      </trkpt>
      <trkpt lat="45.17949" lon="5.61617">
        <ele>949.2</ele>
        <time>2011-05-08T12:15:14Z</time>
      </trkpt>
      <trkpt lat="45.17975" lon="5.61631">
        <ele>950.5</ele>
        <time>2011-05-08T12:15:19Z</time>
      </trkpt>
      <trkpt lat="45.18001" lon="5.61649">
        <ele>949.6</ele>
        <time>2011-05-08T12:15:24Z</time>
      </trkpt>
      <trkpt lat="45.18035" lon="5.61664">
        <ele>946</ele>
        <time>2011-05-08T12:15:29Z</time>
      </trkpt>
      <trkpt lat="45.18072" lon="5.61676">
        <ele>940.9</ele>
        <time>2011-05-08T12:15:34.001Z</time>
      </trkpt>
      <trkpt lat="45.18105" lon="5.61691">
        <ele>935.9</ele>
        <time>2011-05-08T12:15:39Z</time>
      </trkpt>
      <trkpt lat="45.18133" lon="5.61696">
        <ele>934.1</ele>
        <time>2011-05-08T12:15:44Z</time>
      </trkpt>
      <trkpt lat="45.18163" lon="5.617">
        <ele>934</ele>
        <time>2011-05-08T12:15:49Z</time>
      </trkpt>
      <trkpt lat="45.1819" lon="5.61706">
        <ele>936.3</ele>
        <time>2011-05-08T12:15:53.998Z</time>
      </trkpt>
      <trkpt lat="45.18213" lon="5.61718">
        <ele>939.3</ele>
        <time>2011-05-08T12:15:59Z</time>
      </trkpt>
      <trkpt lat="45.18233" lon="5.61742">
        <ele>940.8</ele>
        <time>2011-05-08T12:16:04Z</time>
      </trkpt>
      <trkpt lat="45.18254" lon="5.61764">
        <ele>937.6</ele>
        <time>2011-05-08T12:16:09Z</time>
      </trkpt>
      <trkpt lat="45.18278" lon="5.61779">
        <ele>932.5</ele>
        <time>2011-05-08T12:16:14Z</time>
      </trkpt>
      <trkpt lat="45.18254" lon="5.61789">
        <ele>925.7</ele>
        <time>2011-05-08T12:16:24Z</time>
      </trkpt>
      <trkpt lat="45.18208" lon="5.61772">
        <ele>916.6</ele>
        <time>2011-05-08T12:16:29Z</time>
      </trkpt>
      <trkpt lat="45.18171" lon="5.61766">
        <ele>910.2</ele>
        <time>2011-05-08T12:16:34Z</time>
      </trkpt>
      <trkpt lat="45.18137" lon="5.61756">
        <ele>906.6</ele>
        <time>2011-05-08T12:16:39Z</time>
      </trkpt>
      <trkpt lat="45.18064" lon="5.61782">
        <ele>904.3</ele>
        <time>2011-05-08T12:16:44Z</time>
      </trkpt>
      <trkpt lat="45.17987" lon="5.61811">
        <ele>897.6</ele>
        <time>2011-05-08T12:16:49.002Z</time>
      </trkpt>
      <trkpt lat="45.17916" lon="5.61819">
        <ele>889.8</ele>
        <time>2011-05-08T12:16:54Z</time>
      </trkpt>
      <trkpt lat="45.17845" lon="5.61834">
        <ele>880.8</ele>
        <time>2011-05-08T12:16:59Z</time>
      </trkpt>
      <trkpt lat="45.17787" lon="5.61839">
        <ele>871.5</ele>
        <time>2011-05-08T12:17:04Z</time>
      </trkpt>
      <trkpt lat="45.17763" lon="5.61848">
        <ele>861.3</ele>
        <time>2011-05-08T12:17:09Z</time>
      </trkpt>
      <trkpt lat="45.17795" lon="5.61861">
        <ele>853.7</ele>
        <time>2011-05-08T12:17:19Z</time>
      </trkpt>
      <trkpt lat="45.17819" lon="5.61875">
        <ele>853.3</ele>
        <time>2011-05-08T12:17:23.995Z</time>
      </trkpt>
      <trkpt lat="45.17849" lon="5.61879">
        <ele>854</ele>
        <time>2011-05-08T12:17:29Z</time>
      </trkpt>
      <trkpt lat="45.1788" lon="5.6188">
        <ele>857.9</ele>
        <time>2011-05-08T12:17:34Z</time>
      </trkpt>
      <trkpt lat="45.17908" lon="5.61885">
        <ele>861.5</ele>
        <time>2011-05-08T12:17:39Z</time>
      </trkpt>
      <trkpt lat="45.17928" lon="5.61901">
        <ele>865.1</ele>
        <time>2011-05-08T12:17:44Z</time>
      </trkpt>
      <trkpt lat="45.17948" lon="5.6192">
        <ele>871.4</ele>
        <time>2011-05-08T12:17:49Z</time>
      </trkpt>
      <trkpt lat="45.17995" lon="5.61904">
        <ele>880</ele>
        <time>2011-05-08T12:17:59Z</time>
      </trkpt>
      <trkpt lat="45.18023" lon="5.61895">
        <ele>880</ele>
        <time>2011-05-08T12:18:04Z</time>
      </trkpt>
      <trkpt lat="45.18049" lon="5.61889">
        <ele>878</ele>
        <time>2011-05-08T12:18:08.998Z</time>
      </trkpt>
      <trkpt lat="45.18073" lon="5.61895">
        <ele>874.9</ele>
        <time>2011-05-08T12:18:14Z</time>
      </trkpt>
      <trkpt lat="45.18113" lon="5.61903">
        <ele>870.7</ele>
        <time>2011-05-08T12:18:24.001Z</time>
      </trkpt>
      <trkpt lat="45.18141" lon="5.61899">
        <ele>867.7</ele>
        <time>2011-05-08T12:18:29Z</time>
      </trkpt>
      <trkpt lat="45.18172" lon="5.61895">
        <ele>865.4</ele>
        <time>2011-05-08T12:18:34Z</time>
      </trkpt>
      <trkpt lat="45.18206" lon="5.61912">
        <ele>863.9</ele>
        <time>2011-05-08T12:18:39Z</time>
      </trkpt>
      <trkpt lat="45.18235" lon="5.61948">
        <ele>864.6</ele>
        <time>2011-05-08T12:18:44Z</time>
      </trkpt>
      <trkpt lat="45.18248" lon="5.61993">
        <ele>867.2</ele>
        <time>2011-05-08T12:18:49Z</time>
      </trkpt>
      <trkpt lat="45.18274" lon="5.62033">
        <ele>869.7</ele>
        <time>2011-05-08T12:18:54Z</time>
      </trkpt>
      <trkpt lat="45.18305" lon="5.62065">
        <ele>873.1</ele>
        <time>2011-05-08T12:18:59Z</time>
      </trkpt>
      <trkpt lat="45.18332" lon="5.62077">
        <ele>876.5</ele>
        <time>2011-05-08T12:19:04Z</time>
      </trkpt>
      <trkpt lat="45.18377" lon="5.62073">
        <ele>883.7</ele>
        <time>2011-05-08T12:19:14Z</time>
      </trkpt>
      <trkpt lat="45.18407" lon="5.62086">
        <ele>885.4</ele>
        <time>2011-05-08T12:19:19Z</time>
      </trkpt>
      <trkpt lat="45.1844" lon="5.62099">
        <ele>883</ele>
        <time>2011-05-08T12:19:24Z</time>
      </trkpt>
      <trkpt lat="45.18468" lon="5.62102">
        <ele>879.3</ele>
        <time>2011-05-08T12:19:29Z</time>
      </trkpt>
      <trkpt lat="45.18491" lon="5.62074">
        <ele>874.9</ele>
        <time>2011-05-08T12:19:34Z</time>
      </trkpt>
      <trkpt lat="45.1852" lon="5.62044">
        <ele>870.4</ele>
        <time>2011-05-08T12:19:39Z</time>
      </trkpt>
      <trkpt lat="45.18551" lon="5.62041">
        <ele>864.7</ele>
        <time>2011-05-08T12:19:44Z</time>
      </trkpt>
      <trkpt lat="45.18589" lon="5.62075">
        <ele>858</ele>
        <time>2011-05-08T12:19:49Z</time>
      </trkpt>
      <trkpt lat="45.18625" lon="5.62057">
        <ele>850.6</ele>
        <time>2011-05-08T12:19:54Z</time>
      </trkpt>
      <trkpt lat="45.18659" lon="5.62046">
        <ele>843.3</ele>
        <time>2011-05-08T12:19:59Z</time>
      </trkpt>
      <trkpt lat="45.18692" lon="5.62093">
        <ele>840.2</ele>
        <time>2011-05-08T12:20:04Z</time>
      </trkpt>
      <trkpt lat="45.18723" lon="5.62168">
        <ele>837.4</ele>
        <time>2011-05-08T12:20:09Z</time>
      </trkpt>
      <trkpt lat="45.18773" lon="5.62237">
        <ele>833.2</ele>
        <time>2011-05-08T12:20:14Z</time>
      </trkpt>
      <trkpt lat="45.18834" lon="5.62296">
        <ele>825.3</ele>
        <time>2011-05-08T12:20:19Z</time>
      </trkpt>
      <trkpt lat="45.18873" lon="5.62354">
        <ele>818.8</ele>
        <time>2011-05-08T12:20:24Z</time>
      </trkpt>
      <trkpt lat="45.18905" lon="5.62384">
        <ele>813.5</ele>
        <time>2011-05-08T12:20:29Z</time>
      </trkpt>
      <trkpt lat="45.18932" lon="5.62418">
        <ele>806.9</ele>
        <time>2011-05-08T12:20:34Z</time>
      </trkpt>
      <trkpt lat="45.18956" lon="5.62483">
        <ele>801.2</ele>
        <time>2011-05-08T12:20:39Z</time>
      </trkpt>
      <trkpt lat="45.19004" lon="5.62518">
        <ele>794.6</ele>
        <time>2011-05-08T12:20:44Z</time>
      </trkpt>
      <trkpt lat="45.19058" lon="5.62511">
        <ele>783.9</ele>
        <time>2011-05-08T12:20:49Z</time>
      </trkpt>
      <trkpt lat="45.19083" lon="5.62499">
        <ele>771</ele>
        <time>2011-05-08T12:20:54Z</time>
      </trkpt>
      <trkpt lat="45.19103" lon="5.6251">
        <ele>742.7</ele>
        <time>2011-05-08T12:21:14Z</time>
      </trkpt>
      <trkpt lat="45.19132" lon="5.62534">
        <ele>751.5</ele>
        <time>2011-05-08T12:21:24Z</time>
      </trkpt>
      <trkpt lat="45.19157" lon="5.62563">
        <ele>764.8</ele>
        <time>2011-05-08T12:21:34Z</time>
      </trkpt>
      <trkpt lat="45.19189" lon="5.62575">
        <ele>770.5</ele>
        <time>2011-05-08T12:21:44Z</time>
      </trkpt>
      <trkpt lat="45.19216" lon="5.62581">
        <ele>767.5</ele>
        <time>2011-05-08T12:21:54Z</time>
      </trkpt>
      <trkpt lat="45.19254" lon="5.62589">
        <ele>762.2</ele>
        <time>2011-05-08T12:22:04Z</time>
      </trkpt>
      <trkpt lat="45.19288" lon="5.62578">
        <ele>752.5</ele>
        <time>2011-05-08T12:22:14Z</time>
      </trkpt>
      <trkpt lat="45.19319" lon="5.62602">
        <ele>754.8</ele>
        <time>2011-05-08T12:22:24.001Z</time>
      </trkpt>
      <trkpt lat="45.1935" lon="5.62633">
        <ele>757.2</ele>
        <time>2011-05-08T12:22:34Z</time>
      </trkpt>
      <trkpt lat="45.1937" lon="5.62652">
        <ele>757.4</ele>
        <time>2011-05-08T12:22:39Z</time>
      </trkpt>
      <trkpt lat="45.19415" lon="5.62666">
        <ele>753.2</ele>
        <time>2011-05-08T12:22:49Z</time>
      </trkpt>
      <trkpt lat="45.19438" lon="5.62677">
        <ele>752.1</ele>
        <time>2011-05-08T12:22:54Z</time>
      </trkpt>
      <trkpt lat="45.1946" lon="5.62688">
        <ele>749.5</ele>
        <time>2011-05-08T12:22:59Z</time>
      </trkpt>
      <trkpt lat="45.19483" lon="5.62698">
        <ele>746.5</ele>
        <time>2011-05-08T12:23:04Z</time>
      </trkpt>
      <trkpt lat="45.19506" lon="5.62709">
        <ele>740.7</ele>
        <time>2011-05-08T12:23:09Z</time>
      </trkpt>
      <trkpt lat="45.19523" lon="5.62723">
        <ele>733.3</ele>
        <time>2011-05-08T12:23:14Z</time>
      </trkpt>
      <trkpt lat="45.19554" lon="5.62752">
        <ele>728.6</ele>
        <time>2011-05-08T12:23:24Z</time>
      </trkpt>
      <trkpt lat="45.19579" lon="5.62769">
        <ele>726.7</ele>
        <time>2011-05-08T12:23:34Z</time>
      </trkpt>
      <trkpt lat="45.19598" lon="5.62781">
        <ele>726.2</ele>
        <time>2011-05-08T12:23:39Z</time>
      </trkpt>
      <trkpt lat="45.19624" lon="5.62798">
        <ele>724.1</ele>
        <time>2011-05-08T12:23:44Z</time>
      </trkpt>
      <trkpt lat="45.19645" lon="5.62816">
        <ele>722.9</ele>
        <time>2011-05-08T12:23:49Z</time>
      </trkpt>
      <trkpt lat="45.19665" lon="5.62832">
        <ele>724.8</ele>
        <time>2011-05-08T12:23:54Z</time>
      </trkpt>
      <trkpt lat="45.19707" lon="5.62844">
        <ele>713.3</ele>
        <time>2011-05-08T12:24:04Z</time>
      </trkpt>
      <trkpt lat="45.19725" lon="5.6286">
        <ele>706.6</ele>
        <time>2011-05-08T12:24:09Z</time>
      </trkpt>
      <trkpt lat="45.19745" lon="5.62874">
        <ele>704</ele>
        <time>2011-05-08T12:24:13.998Z</time>
      </trkpt>
      <trkpt lat="45.19765" lon="5.62887">
        <ele>702.2</ele>
        <time>2011-05-08T12:24:19Z</time>
      </trkpt>
      <trkpt lat="45.19793" lon="5.62914">
        <ele>699.4</ele>
        <time>2011-05-08T12:24:29Z</time>
      </trkpt>
      <trkpt lat="45.19808" lon="5.6293">
        <ele>702.7</ele>
        <time>2011-05-08T12:24:34Z</time>
      </trkpt>
      <trkpt lat="45.19828" lon="5.62948">
        <ele>703.7</ele>
        <time>2011-05-08T12:24:44Z</time>
      </trkpt>
      <trkpt lat="45.19847" lon="5.62962">
        <ele>692</ele>
        <time>2011-05-08T12:24:54Z</time>
      </trkpt>
      <trkpt lat="45.19865" lon="5.62976">
        <ele>691.3</ele>
        <time>2011-05-08T12:25:04Z</time>
      </trkpt>
      <trkpt lat="45.19898" lon="5.62987">
        <ele>687</ele>
        <time>2011-05-08T12:25:14Z</time>
      </trkpt>
      <trkpt lat="45.19927" lon="5.63007">
        <ele>689.8</ele>
        <time>2011-05-08T12:25:24Z</time>
      </trkpt>
      <trkpt lat="45.19944" lon="5.63038">
        <ele>689</ele>
        <time>2011-05-08T12:25:34Z</time>
      </trkpt>
      <trkpt lat="45.19981" lon="5.6309">
        <ele>705.2</ele>
        <time>2011-05-08T12:26:33.998Z</time>
      </trkpt>
      <trkpt lat="45.20006" lon="5.63114">
        <ele>701.5</ele>
        <time>2011-05-08T12:26:44Z</time>
      </trkpt>
      <trkpt lat="45.20025" lon="5.63126">
        <ele>691.6</ele>
        <time>2011-05-08T12:26:49Z</time>
      </trkpt>
      <trkpt lat="45.20062" lon="5.63143">
        <ele>678.4</ele>
        <time>2011-05-08T12:26:54Z</time>
      </trkpt>
      <trkpt lat="45.20102" lon="5.63152">
        <ele>664.5</ele>
        <time>2011-05-08T12:26:59Z</time>
      </trkpt>
      <trkpt lat="45.20138" lon="5.63171">
        <ele>648.3</ele>
        <time>2011-05-08T12:27:04.001Z</time>
      </trkpt>
      <trkpt lat="45.20159" lon="5.6318">
        <ele>633.3</ele>
        <time>2011-05-08T12:27:09.001Z</time>
      </trkpt>
      <trkpt lat="45.20123" lon="5.6318">
        <ele>599.7</ele>
        <time>2011-05-08T12:27:24Z</time>
      </trkpt>
      <trkpt lat="45.20092" lon="5.63162">
        <ele>586.4</ele>
        <time>2011-05-08T12:27:29Z</time>
      </trkpt>
      <trkpt lat="45.20046" lon="5.63165">
        <ele>583.3</ele>
        <time>2011-05-08T12:27:34Z</time>
      </trkpt>
      <trkpt lat="45.19992" lon="5.63166">
        <ele>588.6</ele>
        <time>2011-05-08T12:27:39Z</time>
      </trkpt>
      <trkpt lat="45.19947" lon="5.63144">
        <ele>597.2</ele>
        <time>2011-05-08T12:27:44Z</time>
      </trkpt>
      <trkpt lat="45.19917" lon="5.63141">
        <ele>603.4</ele>
        <time>2011-05-08T12:27:49Z</time>
      </trkpt>
      <trkpt lat="45.19912" lon="5.63175">
        <ele>608.6</ele>
        <time>2011-05-08T12:27:54Z</time>
      </trkpt>
      <trkpt lat="45.1994" lon="5.63194">
        <ele>611</ele>
        <time>2011-05-08T12:27:59Z</time>
      </trkpt>
      <trkpt lat="45.19971" lon="5.63205">
        <ele>611.8</ele>
        <time>2011-05-08T12:28:04Z</time>
      </trkpt>
      <trkpt lat="45.20005" lon="5.63224">
        <ele>612.8</ele>
        <time>2011-05-08T12:28:14Z</time>
      </trkpt>
      <trkpt lat="45.20025" lon="5.63235">
        <ele>615.9</ele>
        <time>2011-05-08T12:28:19Z</time>
      </trkpt>
      <trkpt lat="45.20048" lon="5.63244">
        <ele>618.8</ele>
        <time>2011-05-08T12:28:24Z</time>
      </trkpt>
      <trkpt lat="45.20082" lon="5.63254">
        <ele>622.2</ele>
        <time>2011-05-08T12:28:34Z</time>
      </trkpt>
      <trkpt lat="45.20117" lon="5.63274">
        <ele>619.3</ele>
        <time>2011-05-08T12:28:44Z</time>
      </trkpt>
      <trkpt lat="45.20155" lon="5.63293">
        <ele>617</ele>
        <time>2011-05-08T12:28:54Z</time>
      </trkpt>
      <trkpt lat="45.20172" lon="5.63315">
        <ele>610</ele>
        <time>2011-05-08T12:28:59Z</time>
      </trkpt>
      <trkpt lat="45.20191" lon="5.63337">
        <ele>609.1</ele>
        <time>2011-05-08T12:29:04Z</time>
      </trkpt>
      <trkpt lat="45.20227" lon="5.63364">
        <ele>608.8</ele>
        <time>2011-05-08T12:29:14Z</time>
      </trkpt>
      <trkpt lat="45.20243" lon="5.63398">
        <ele>609.8</ele>
        <time>2011-05-08T12:29:24Z</time>
      </trkpt>
      <trkpt lat="45.20252" lon="5.63439">
        <ele>610.9</ele>
        <time>2011-05-08T12:29:34Z</time>
      </trkpt>
      <trkpt lat="45.20266" lon="5.63473">
        <ele>613.2</ele>
        <time>2011-05-08T12:29:39Z</time>
      </trkpt>
      <trkpt lat="45.20277" lon="5.63509">
        <ele>609.6</ele>
        <time>2011-05-08T12:29:44Z</time>
      </trkpt>
      <trkpt lat="45.20292" lon="5.6355">
        <ele>606.2</ele>
        <time>2011-05-08T12:29:49Z</time>
      </trkpt>
      <trkpt lat="45.20309" lon="5.63582">
        <ele>604</ele>
        <time>2011-05-08T12:29:54Z</time>
      </trkpt>
      <trkpt lat="45.20325" lon="5.63605">
        <ele>603.1</ele>
        <time>2011-05-08T12:29:59Z</time>
      </trkpt>
      <trkpt lat="45.20333" lon="5.63644">
        <ele>586.9</ele>
        <time>2011-05-08T12:30:09Z</time>
      </trkpt>
      <trkpt lat="45.20337" lon="5.6369">
        <ele>556.1</ele>
        <time>2011-05-08T12:30:19Z</time>
      </trkpt>
      <trkpt lat="45.20349" lon="5.63714">
        <ele>549.2</ele>
        <time>2011-05-08T12:30:24Z</time>
      </trkpt>
      <trkpt lat="45.20366" lon="5.63739">
        <ele>548.5</ele>
        <time>2011-05-08T12:30:29Z</time>
      </trkpt>
      <trkpt lat="45.20382" lon="5.63765">
        <ele>551.2</ele>
        <time>2011-05-08T12:30:39Z</time>
      </trkpt>
      <trkpt lat="45.20409" lon="5.63786">
        <ele>547.8</ele>
        <time>2011-05-08T12:30:49Z</time>
      </trkpt>
      <trkpt lat="45.20431" lon="5.63818">
        <ele>558.4</ele>
        <time>2011-05-08T12:30:59Z</time>
      </trkpt>
      <trkpt lat="45.20456" lon="5.63862">
        <ele>563</ele>
        <time>2011-05-08T12:31:09.001Z</time>
      </trkpt>
      <trkpt lat="45.20476" lon="5.63896">
        <ele>559.5</ele>
        <time>2011-05-08T12:31:18.998Z</time>
      </trkpt>
      <trkpt lat="45.20494" lon="5.63923">
        <ele>553.7</ele>
        <time>2011-05-08T12:31:29Z</time>
      </trkpt>
      <trkpt lat="45.20519" lon="5.63969">
        <ele>553.7</ele>
        <time>2011-05-08T12:31:39Z</time>
      </trkpt>
      <trkpt lat="45.20538" lon="5.64013">
        <ele>541.6</ele>
        <time>2011-05-08T12:31:49Z</time>
      </trkpt>
      <trkpt lat="45.20556" lon="5.64053">
        <ele>527.6</ele>
        <time>2011-05-08T12:31:58.998Z</time>
      </trkpt>
      <trkpt lat="45.20572" lon="5.64089">
        <ele>517.4</ele>
        <time>2011-05-08T12:32:09Z</time>
      </trkpt>
      <trkpt lat="45.20591" lon="5.64119">
        <ele>554.6</ele>
        <time>2011-05-08T12:32:34Z</time>
      </trkpt>
      <trkpt lat="45.20619" lon="5.6416">
        <ele>564.7</ele>
        <time>2011-05-08T12:32:44Z</time>
      </trkpt>
      <trkpt lat="45.20634" lon="5.64184">
        <ele>580.3</ele>
        <time>2011-05-08T12:32:54Z</time>
      </trkpt>
      <trkpt lat="45.20672" lon="5.64193">
        <ele>600</ele>
        <time>2011-05-08T12:33:09Z</time>
      </trkpt>
      <trkpt lat="45.20706" lon="5.64204">
        <ele>613.3</ele>
        <time>2011-05-08T12:33:19Z</time>
      </trkpt>
      <trkpt lat="45.20731" lon="5.6422">
        <ele>633</ele>
        <time>2011-05-08T12:33:29Z</time>
      </trkpt>
      <trkpt lat="45.2075" lon="5.64241">
        <ele>648</ele>
        <time>2011-05-08T12:33:39Z</time>
      </trkpt>
      <trkpt lat="45.20767" lon="5.64266">
        <ele>654.6</ele>
        <time>2011-05-08T12:33:49Z</time>
      </trkpt>
      <trkpt lat="45.20795" lon="5.64288">
        <ele>659.4</ele>
        <time>2011-05-08T12:34:04Z</time>
      </trkpt>
      <trkpt lat="45.20824" lon="5.6429">
        <ele>623.5</ele>
        <time>2011-05-08T12:34:14Z</time>
      </trkpt>
      <trkpt lat="45.20859" lon="5.64293">
        <ele>574.4</ele>
        <time>2011-05-08T12:34:24Z</time>
      </trkpt>
      <trkpt lat="45.20888" lon="5.6428">
        <ele>541.1</ele>
        <time>2011-05-08T12:34:34Z</time>
      </trkpt>
      <trkpt lat="45.20923" lon="5.64262">
        <ele>513.3</ele>
        <time>2011-05-08T12:34:44Z</time>
      </trkpt>
      <trkpt lat="45.20954" lon="5.64242">
        <ele>474.3</ele>
        <time>2011-05-08T12:34:54Z</time>
      </trkpt>
      <trkpt lat="45.20977" lon="5.64225">
        <ele>451.5</ele>
        <time>2011-05-08T12:35:04Z</time>
      </trkpt>
      <trkpt lat="45.21017" lon="5.64229">
        <ele>446.7</ele>
        <time>2011-05-08T12:35:29Z</time>
      </trkpt>
      <trkpt lat="45.21043" lon="5.64237">
        <ele>458.4</ele>
        <time>2011-05-08T12:35:39Z</time>
      </trkpt>
      <trkpt lat="45.21075" lon="5.6424">
        <ele>456</ele>
        <time>2011-05-08T12:35:49Z</time>
      </trkpt>
      <trkpt lat="45.21086" lon="5.64273">
        <ele>442.1</ele>
        <time>2011-05-08T12:35:59Z</time>
      </trkpt>
      <trkpt lat="45.2107" lon="5.64296">
        <ele>432.7</ele>
        <time>2011-05-08T12:36:04.001Z</time>
      </trkpt>
      <trkpt lat="45.21054" lon="5.64324">
        <ele>423.5</ele>
        <time>2011-05-08T12:36:09.001Z</time>
      </trkpt>
      <trkpt lat="45.21061" lon="5.64358">
        <ele>419</ele>
        <time>2011-05-08T12:36:14Z</time>
      </trkpt>
      <trkpt lat="45.21073" lon="5.64383">
        <ele>414.4</ele>
        <time>2011-05-08T12:36:19Z</time>
      </trkpt>
      <trkpt lat="45.21067" lon="5.64453">
        <ele>399.2</ele>
        <time>2011-05-08T12:36:29Z</time>
      </trkpt>
      <trkpt lat="45.2106" lon="5.64493">
        <ele>390.6</ele>
        <time>2011-05-08T12:36:34.001Z</time>
      </trkpt>
      <trkpt lat="45.21048" lon="5.64521">
        <ele>383.5</ele>
        <time>2011-05-08T12:36:39Z</time>
      </trkpt>
      <trkpt lat="45.21026" lon="5.64548">
        <ele>377.5</ele>
        <time>2011-05-08T12:36:44Z</time>
      </trkpt>
      <trkpt lat="45.21019" lon="5.64585">
        <ele>374.3</ele>
        <time>2011-05-08T12:36:49Z</time>
      </trkpt>
      <trkpt lat="45.21018" lon="5.64623">
        <ele>369.4</ele>
        <time>2011-05-08T12:36:54Z</time>
      </trkpt>
      <trkpt lat="45.21019" lon="5.64668">
        <ele>349.4</ele>
        <time>2011-05-08T12:37:04Z</time>
      </trkpt>
      <trkpt lat="45.21023" lon="5.64722">
        <ele>343.3</ele>
        <time>2011-05-08T12:37:14Z</time>
      </trkpt>
      <trkpt lat="45.21002" lon="5.64769">
        <ele>340.5</ele>
        <time>2011-05-08T12:37:19Z</time>
      </trkpt>
      <trkpt lat="45.20986" lon="5.64826">
        <ele>337.8</ele>
        <time>2011-05-08T12:37:24Z</time>
      </trkpt>
      <trkpt lat="45.21005" lon="5.64867">
        <ele>338.2</ele>
        <time>2011-05-08T12:37:29Z</time>
      </trkpt>
      <trkpt lat="45.21032" lon="5.64885">
        <ele>342.8</ele>
        <time>2011-05-08T12:37:34Z</time>
      </trkpt>
      <trkpt lat="45.21059" lon="5.64898">
        <ele>347.3</ele>
        <time>2011-05-08T12:37:39Z</time>
      </trkpt>
      <trkpt lat="45.21085" lon="5.64918">
        <ele>348.7</ele>
        <time>2011-05-08T12:37:44Z</time>
      </trkpt>
      <trkpt lat="45.21111" lon="5.64956">
        <ele>346.3</ele>
        <time>2011-05-08T12:37:49Z</time>
      </trkpt>
      <trkpt lat="45.21139" lon="5.6498">
        <ele>344.6</ele>
        <time>2011-05-08T12:37:54Z</time>
      </trkpt>
      <trkpt lat="45.21167" lon="5.64985">
        <ele>345.1</ele>
        <time>2011-05-08T12:37:59Z</time>
      </trkpt>
      <trkpt lat="45.21196" lon="5.65011">
        <ele>348.9</ele>
        <time>2011-05-08T12:38:04Z</time>
      </trkpt>
      <trkpt lat="45.21207" lon="5.65072">
        <ele>346.9</ele>
        <time>2011-05-08T12:38:09Z</time>
      </trkpt>
      <trkpt lat="45.21213" lon="5.6514">
        <ele>333.6</ele>
        <time>2011-05-08T12:38:14Z</time>
      </trkpt>
      <trkpt lat="45.21218" lon="5.65186">
        <ele>315.9</ele>
        <time>2011-05-08T12:38:19Z</time>
      </trkpt>
      <trkpt lat="45.21207" lon="5.65231">
        <ele>285.5</ele>
        <time>2011-05-08T12:38:34Z</time>
      </trkpt>
      <trkpt lat="45.21199" lon="5.65264">
        <ele>272.7</ele>
        <time>2011-05-08T12:38:44Z</time>
      </trkpt>
      <trkpt lat="45.21186" lon="5.6529">
        <ele>271.3</ele>
        <time>2011-05-08T12:38:49Z</time>
      </trkpt>
      <trkpt lat="45.21172" lon="5.6534">
        <ele>272.7</ele>
        <time>2011-05-08T12:38:59Z</time>
      </trkpt>
      <trkpt lat="45.21164" lon="5.654">
        <ele>272.7</ele>
        <time>2011-05-08T12:39:14Z</time>
      </trkpt>
      <trkpt lat="45.21153" lon="5.65448">
        <ele>264.8</ele>
        <time>2011-05-08T12:39:24Z</time>
      </trkpt>
      <trkpt lat="45.21143" lon="5.65483">
        <ele>257.9</ele>
        <time>2011-05-08T12:39:34.004Z</time>
      </trkpt>
      <trkpt lat="45.21122" lon="5.6552">
        <ele>254.9</ele>
        <time>2011-05-08T12:39:44Z</time>
      </trkpt>
      <trkpt lat="45.21108" lon="5.65539">
        <ele>253.9</ele>
        <time>2011-05-08T12:39:49Z</time>
      </trkpt>
      <trkpt lat="45.21093" lon="5.65557">
        <ele>251</ele>
        <time>2011-05-08T12:39:54Z</time>
      </trkpt>
      <trkpt lat="45.21079" lon="5.65579">
        <ele>246.7</ele>
        <time>2011-05-08T12:39:59Z</time>
      </trkpt>
      <trkpt lat="45.21065" lon="5.65604">
        <ele>239.3</ele>
        <time>2011-05-08T12:40:09Z</time>
      </trkpt>
      <trkpt lat="45.21045" lon="5.65624">
        <ele>228.9</ele>
        <time>2011-05-08T12:40:24Z</time>
      </trkpt>
      <trkpt lat="45.21023" lon="5.65641">
        <ele>227.3</ele>
        <time>2011-05-08T12:40:34Z</time>
      </trkpt>
      <trkpt lat="45.20989" lon="5.65649">
        <ele>226.3</ele>
        <time>2011-05-08T12:40:49Z</time>
      </trkpt>
      <trkpt lat="45.20965" lon="5.65658">
        <ele>227.4</ele>
        <time>2011-05-08T12:40:59Z</time>
      </trkpt>
      <trkpt lat="45.20916" lon="5.65656">
        <ele>231.2</ele>
        <time>2011-05-08T12:41:14Z</time>
      </trkpt>
      <trkpt lat="45.20897" lon="5.65685">
        <ele>230.2</ele>
        <time>2011-05-08T12:41:24Z</time>
      </trkpt>
      <trkpt lat="45.20903" lon="5.65727">
        <ele>226.3</ele>
        <time>2011-05-08T12:41:29Z</time>
      </trkpt>
      <trkpt lat="45.20893" lon="5.65775">
        <ele>227</ele>
        <time>2011-05-08T12:41:44Z</time>
      </trkpt>
      <trkpt lat="45.20877" lon="5.658">
        <ele>226.3</ele>
        <time>2011-05-08T12:41:49Z</time>
      </trkpt>
      <trkpt lat="45.20856" lon="5.65826">
        <ele>226.5</ele>
        <time>2011-05-08T12:41:54Z</time>
      </trkpt>
      <trkpt lat="45.20831" lon="5.65821">
        <ele>231</ele>
        <time>2011-05-08T12:41:59Z</time>
      </trkpt>
      <trkpt lat="45.20803" lon="5.6581">
        <ele>228.6</ele>
        <time>2011-05-08T12:42:09Z</time>
      </trkpt>
      <trkpt lat="45.20807" lon="5.65776">
        <ele>217.7</ele>
        <time>2011-05-08T12:42:19Z</time>
      </trkpt>
      <trkpt lat="45.20812" lon="5.6573">
        <ele>211.9</ele>
        <time>2011-05-08T12:42:29Z</time>
      </trkpt>
      <trkpt lat="45.2081" lon="5.65691">
        <ele>183.7</ele>
        <time>2011-05-08T12:50:24Z</time>
      </trkpt>
      <trkpt lat="45.20802" lon="5.65745">
        <ele>216.4</ele>
        <time>2011-05-08T13:06:54Z</time>
      </trkpt>
      <trkpt lat="45.2079" lon="5.65783">
        <ele>221.1</ele>
        <time>2011-05-08T13:07:04Z</time>
      </trkpt>
      <trkpt lat="45.20795" lon="5.65845">
        <ele>221.3</ele>
        <time>2011-05-08T13:07:23.998Z</time>
      </trkpt>
      <trkpt lat="45.20782" lon="5.65901">
        <ele>226.1</ele>
        <time>2011-05-08T13:07:34.001Z</time>
      </trkpt>
      <trkpt lat="45.20777" lon="5.65932">
        <ele>226.6</ele>
        <time>2011-05-08T13:07:39Z</time>
      </trkpt>
      <trkpt lat="45.20782" lon="5.65996">
        <ele>220.3</ele>
        <time>2011-05-08T13:07:49Z</time>
      </trkpt>
      <trkpt lat="45.20796" lon="5.66058">
        <ele>213.4</ele>
        <time>2011-05-08T13:07:59Z</time>
      </trkpt>
      <trkpt lat="45.20806" lon="5.6609">
        <ele>211.6</ele>
        <time>2011-05-08T13:08:04Z</time>
      </trkpt>
      <trkpt lat="45.20816" lon="5.66122">
        <ele>209.9</ele>
        <time>2011-05-08T13:08:08.998Z</time>
      </trkpt>
      <trkpt lat="45.20826" lon="5.66154">
        <ele>209.7</ele>
        <time>2011-05-08T13:08:14Z</time>
      </trkpt>
      <trkpt lat="45.20835" lon="5.66182">
        <ele>210.7</ele>
        <time>2011-05-08T13:08:19Z</time>
      </trkpt>
      <trkpt lat="45.20846" lon="5.66223">
        <ele>210.9</ele>
        <time>2011-05-08T13:08:29Z</time>
      </trkpt>
      <trkpt lat="45.20864" lon="5.66263">
        <ele>212.2</ele>
        <time>2011-05-08T13:08:54Z</time>
      </trkpt>
      <trkpt lat="45.20872" lon="5.6629">
        <ele>212.3</ele>
        <time>2011-05-08T13:08:59.001Z</time>
      </trkpt>
      <trkpt lat="45.20883" lon="5.66318">
        <ele>213.1</ele>
        <time>2011-05-08T13:09:04.001Z</time>
      </trkpt>
      <trkpt lat="45.20894" lon="5.66345">
        <ele>214.4</ele>
        <time>2011-05-08T13:09:09Z</time>
      </trkpt>
      <trkpt lat="45.2091" lon="5.66372">
        <ele>215.7</ele>
        <time>2011-05-08T13:09:14.001Z</time>
      </trkpt>
      <trkpt lat="45.20931" lon="5.66397">
        <ele>216.5</ele>
        <time>2011-05-08T13:09:18.998Z</time>
      </trkpt>
      <trkpt lat="45.20952" lon="5.66422">
        <ele>214.6</ele>
        <time>2011-05-08T13:09:24.001Z</time>
      </trkpt>
      <trkpt lat="45.20972" lon="5.66447">
        <ele>211.3</ele>
        <time>2011-05-08T13:09:28.998Z</time>
      </trkpt>
      <trkpt lat="45.20991" lon="5.66469">
        <ele>208.3</ele>
        <time>2011-05-08T13:09:34.004Z</time>
      </trkpt>
      <trkpt lat="45.21009" lon="5.66486">
        <ele>204.4</ele>
        <time>2011-05-08T13:09:39Z</time>
      </trkpt>
      <trkpt lat="45.21029" lon="5.66502">
        <ele>201.6</ele>
        <time>2011-05-08T13:09:44Z</time>
      </trkpt>
      <trkpt lat="45.21049" lon="5.66525">
        <ele>200</ele>
        <time>2011-05-08T13:09:49Z</time>
      </trkpt>
      <trkpt lat="45.21059" lon="5.66555">
        <ele>199.4</ele>
        <time>2011-05-08T13:09:54.001Z</time>
      </trkpt>
      <trkpt lat="45.21052" lon="5.66584">
        <ele>199.1</ele>
        <time>2011-05-08T13:09:59Z</time>
      </trkpt>
      <trkpt lat="45.21034" lon="5.66609">
        <ele>199.2</ele>
        <time>2011-05-08T13:10:04Z</time>
      </trkpt>
      <trkpt lat="45.21016" lon="5.66632">
        <ele>200.8</ele>
        <time>2011-05-08T13:10:09Z</time>
      </trkpt>
      <trkpt lat="45.20999" lon="5.66654">
        <ele>203.4</ele>
        <time>2011-05-08T13:10:14Z</time>
      </trkpt>
      <trkpt lat="45.20964" lon="5.6669">
        <ele>205.4</ele>
        <time>2011-05-08T13:10:24Z</time>
      </trkpt>
      <trkpt lat="45.20927" lon="5.66725">
        <ele>202.4</ele>
        <time>2011-05-08T13:10:34Z</time>
      </trkpt>
      <trkpt lat="45.20911" lon="5.66762">
        <ele>198.9</ele>
        <time>2011-05-08T13:10:43Z</time>
      </trkpt>
      <trkpt lat="45.20928" lon="5.66778">
        <ele>198.8</ele>
        <time>2011-05-08T13:10:49.001Z</time>
      </trkpt>
      <trkpt lat="45.20945" lon="5.66826">
        <ele>198.1</ele>
        <time>2011-05-08T13:10:58.997Z</time>
      </trkpt>
      <trkpt lat="45.20952" lon="5.66855">
        <ele>197.8</ele>
        <time>2011-05-08T13:11:04.000Z</time>
      </trkpt>
      <trkpt lat="45.20959" lon="5.66886">
        <ele>196.1</ele>
        <time>2011-05-08T13:11:09Z</time>
      </trkpt>
      <trkpt lat="45.2097" lon="5.66945">
        <ele>189.8</ele>
        <time>2011-05-08T13:11:18.999Z</time>
      </trkpt>
      <trkpt lat="45.2098" lon="5.66974">
        <ele>186.3</ele>
        <time>2011-05-08T13:11:24.002Z</time>
      </trkpt>
      <trkpt lat="45.20988" lon="5.67003">
        <ele>185.4</ele>
        <time>2011-05-08T13:11:29Z</time>
      </trkpt>
      <trkpt lat="45.20998" lon="5.67033">
        <ele>185.1</ele>
        <time>2011-05-08T13:11:34.002Z</time>
      </trkpt>
      <trkpt lat="45.21016" lon="5.67073">
        <ele>183</ele>
        <time>2011-05-08T13:11:44.000Z</time>
      </trkpt>
      <trkpt lat="45.21047" lon="5.67054">
        <ele>187.5</ele>
        <time>2011-05-08T13:11:54Z</time>
      </trkpt>
      <trkpt lat="45.21067" lon="5.67037">
        <ele>187.9</ele>
        <time>2011-05-08T13:11:59Z</time>
      </trkpt>
      <trkpt lat="45.21088" lon="5.67021">
        <ele>191.2</ele>
        <time>2011-05-08T13:12:04Z</time>
      </trkpt>
      <trkpt lat="45.2111" lon="5.67005">
        <ele>195</ele>
        <time>2011-05-08T13:12:09.002Z</time>
      </trkpt>
      <trkpt lat="45.21131" lon="5.6699">
        <ele>197.2</ele>
        <time>2011-05-08T13:12:13.999Z</time>
      </trkpt>
      <trkpt lat="45.21151" lon="5.66977">
        <ele>198.6</ele>
        <time>2011-05-08T13:12:19Z</time>
      </trkpt>
      <trkpt lat="45.21172" lon="5.6696">
        <ele>199.5</ele>
        <time>2011-05-08T13:12:24Z</time>
      </trkpt>
      <trkpt lat="45.21193" lon="5.66944">
        <ele>200.4</ele>
        <time>2011-05-08T13:12:29Z</time>
      </trkpt>
      <trkpt lat="45.21214" lon="5.66927">
        <ele>200.9</ele>
        <time>2011-05-08T13:12:34Z</time>
      </trkpt>
      <trkpt lat="45.21257" lon="5.66894">
        <ele>200.4</ele>
        <time>2011-05-08T13:12:44.000Z</time>
      </trkpt>
      <trkpt lat="45.21274" lon="5.66879">
        <ele>199.7</ele>
        <time>2011-05-08T13:12:49Z</time>
      </trkpt>
      <trkpt lat="45.21291" lon="5.66859">
        <ele>197.9</ele>
        <time>2011-05-08T13:12:54Z</time>
      </trkpt>
      <trkpt lat="45.21307" lon="5.66841">
        <ele>196.8</ele>
        <time>2011-05-08T13:12:59Z</time>
      </trkpt>
      <trkpt lat="45.21324" lon="5.66825">
        <ele>196.2</ele>
        <time>2011-05-08T13:13:04Z</time>
      </trkpt>
      <trkpt lat="45.21343" lon="5.66864">
        <ele>199.2</ele>
        <time>2011-05-08T13:13:14Z</time>
      </trkpt>
      <trkpt lat="45.21354" lon="5.6692">
        <ele>197.2</ele>
        <time>2011-05-08T13:13:24.002Z</time>
      </trkpt>
      <trkpt lat="45.21359" lon="5.66954">
        <ele>196</ele>
        <time>2011-05-08T13:13:29.000Z</time>
      </trkpt>
      <trkpt lat="45.21365" lon="5.66988">
        <ele>195.6</ele>
        <time>2011-05-08T13:13:34Z</time>
      </trkpt>
      <trkpt lat="45.21371" lon="5.67021">
        <ele>197</ele>
        <time>2011-05-08T13:13:39Z</time>
      </trkpt>
      <trkpt lat="45.2138" lon="5.67084">
        <ele>199.9</ele>
        <time>2011-05-08T13:13:48.999Z</time>
      </trkpt>
      <trkpt lat="45.21389" lon="5.67146">
        <ele>200.4</ele>
        <time>2011-05-08T13:13:59.000Z</time>
      </trkpt>
      <trkpt lat="45.21397" lon="5.67206">
        <ele>200.2</ele>
        <time>2011-05-08T13:14:08Z</time>
      </trkpt>
      <trkpt lat="45.21408" lon="5.67241">
        <ele>200.2</ele>
        <time>2011-05-08T13:14:14.000Z</time>
      </trkpt>
      <trkpt lat="45.21433" lon="5.67246">
        <ele>199.1</ele>
        <time>2011-05-08T13:14:19.000Z</time>
      </trkpt>
      <trkpt lat="45.21483" lon="5.67236">
        <ele>195.1</ele>
        <time>2011-05-08T13:14:29.000Z</time>
      </trkpt>
      <trkpt lat="45.21507" lon="5.67225">
        <ele>193.7</ele>
        <time>2011-05-08T13:14:33.997Z</time>
      </trkpt>
      <trkpt lat="45.2153" lon="5.67214">
        <ele>190.7</ele>
        <time>2011-05-08T13:14:38.997Z</time>
      </trkpt>
      <trkpt lat="45.21569" lon="5.67237">
        <ele>184.6</ele>
        <time>2011-05-08T13:14:49Z</time>
      </trkpt>
      <trkpt lat="45.21578" lon="5.6727">
        <ele>186</ele>
        <time>2011-05-08T13:14:59Z</time>
      </trkpt>
      <trkpt lat="45.2155" lon="5.67295">
        <ele>194.8</ele>
        <time>2011-05-08T13:15:09Z</time>
      </trkpt>
      <trkpt lat="45.21519" lon="5.67335">
        <ele>198.8</ele>
        <time>2011-05-08T13:15:19Z</time>
      </trkpt>
      <trkpt lat="45.21503" lon="5.67354">
        <ele>203.5</ele>
        <time>2011-05-08T13:15:24Z</time>
      </trkpt>
      <trkpt lat="45.21473" lon="5.6739">
        <ele>210.4</ele>
        <time>2011-05-08T13:15:33Z</time>
      </trkpt>
      <trkpt lat="45.21454" lon="5.67416">
        <ele>214.3</ele>
        <time>2011-05-08T13:15:39Z</time>
      </trkpt>
      <trkpt lat="45.21437" lon="5.67439">
        <ele>216.8</ele>
        <time>2011-05-08T13:15:44Z</time>
      </trkpt>
      <trkpt lat="45.21421" lon="5.67466">
        <ele>216.2</ele>
        <time>2011-05-08T13:15:49Z</time>
      </trkpt>
      <trkpt lat="45.21407" lon="5.67487">
        <ele>214.4</ele>
        <time>2011-05-08T13:15:53Z</time>
      </trkpt>
      <trkpt lat="45.21387" lon="5.67517">
        <ele>209.6</ele>
        <time>2011-05-08T13:15:59Z</time>
      </trkpt>
      <trkpt lat="45.21368" lon="5.6754">
        <ele>205.7</ele>
        <time>2011-05-08T13:16:04Z</time>
      </trkpt>
      <trkpt lat="45.21338" lon="5.67583">
        <ele>205.9</ele>
        <time>2011-05-08T13:16:13Z</time>
      </trkpt>
      <trkpt lat="45.21318" lon="5.67611">
        <ele>210.4</ele>
        <time>2011-05-08T13:16:19Z</time>
      </trkpt>
      <trkpt lat="45.21301" lon="5.67634">
        <ele>211.4</ele>
        <time>2011-05-08T13:16:24Z</time>
      </trkpt>
      <trkpt lat="45.21267" lon="5.67673">
        <ele>211.9</ele>
        <time>2011-05-08T13:16:33Z</time>
      </trkpt>
      <trkpt lat="45.21246" lon="5.67705">
        <ele>215</ele>
        <time>2011-05-08T13:16:39Z</time>
      </trkpt>
      <trkpt lat="45.21227" lon="5.67731">
        <ele>215.9</ele>
        <time>2011-05-08T13:16:44Z</time>
      </trkpt>
      <trkpt lat="45.21193" lon="5.67776">
        <ele>219.8</ele>
        <time>2011-05-08T13:16:53Z</time>
      </trkpt>
      <trkpt lat="45.21173" lon="5.67801">
        <ele>220.9</ele>
        <time>2011-05-08T13:16:58Z</time>
      </trkpt>
      <trkpt lat="45.2115" lon="5.6783">
        <ele>219.7</ele>
        <time>2011-05-08T13:17:04Z</time>
      </trkpt>
      <trkpt lat="45.21131" lon="5.67857">
        <ele>216.1</ele>
        <time>2011-05-08T13:17:09Z</time>
      </trkpt>
      <trkpt lat="45.21114" lon="5.67885">
        <ele>214.2</ele>
        <time>2011-05-08T13:17:13.999Z</time>
      </trkpt>
      <trkpt lat="45.21096" lon="5.67916">
        <ele>212.5</ele>
        <time>2011-05-08T13:17:19Z</time>
      </trkpt>
      <trkpt lat="45.21077" lon="5.67943">
        <ele>210.6</ele>
        <time>2011-05-08T13:17:24Z</time>
      </trkpt>
      <trkpt lat="45.21059" lon="5.67969">
        <ele>209.2</ele>
        <time>2011-05-08T13:17:29Z</time>
      </trkpt>
      <trkpt lat="45.2104" lon="5.67994">
        <ele>208</ele>
        <time>2011-05-08T13:17:34Z</time>
      </trkpt>
      <trkpt lat="45.20982" lon="5.68069">
        <ele>204</ele>
        <time>2011-05-08T13:17:49Z</time>
      </trkpt>
      <trkpt lat="45.20932" lon="5.68139">
        <ele>203.9</ele>
        <time>2011-05-08T13:18:03Z</time>
      </trkpt>
      <trkpt lat="45.20908" lon="5.68171">
        <ele>206.1</ele>
        <time>2011-05-08T13:18:09.000Z</time>
      </trkpt>
      <trkpt lat="45.20871" lon="5.68219">
        <ele>213.1</ele>
        <time>2011-05-08T13:18:18Z</time>
      </trkpt>
      <trkpt lat="45.2085" lon="5.68253">
        <ele>216.4</ele>
        <time>2011-05-08T13:18:24.002Z</time>
      </trkpt>
      <trkpt lat="45.2083" lon="5.68277">
        <ele>218.2</ele>
        <time>2011-05-08T13:18:29.000Z</time>
      </trkpt>
      <trkpt lat="45.20813" lon="5.68305">
        <ele>219.3</ele>
        <time>2011-05-08T13:18:34.000Z</time>
      </trkpt>
      <trkpt lat="45.20795" lon="5.68332">
        <ele>220.5</ele>
        <time>2011-05-08T13:18:38.997Z</time>
      </trkpt>
      <trkpt lat="45.2073" lon="5.68422">
        <ele>218.3</ele>
        <time>2011-05-08T13:18:54Z</time>
      </trkpt>
      <trkpt lat="45.20693" lon="5.68466">
        <ele>219.9</ele>
        <time>2011-05-08T13:19:04Z</time>
      </trkpt>
      <trkpt lat="45.20675" lon="5.68488">
        <ele>220.5</ele>
        <time>2011-05-08T13:19:09Z</time>
      </trkpt>
      <trkpt lat="45.20658" lon="5.68515">
        <ele>220.1</ele>
        <time>2011-05-08T13:19:14Z</time>
      </trkpt>
      <trkpt lat="45.20626" lon="5.68563">
        <ele>217.5</ele>
        <time>2011-05-08T13:19:23Z</time>
      </trkpt>
      <trkpt lat="45.20607" lon="5.68588">
        <ele>217.4</ele>
        <time>2011-05-08T13:19:28Z</time>
      </trkpt>
      <trkpt lat="45.20553" lon="5.68659">
        <ele>220.4</ele>
        <time>2011-05-08T13:19:43Z</time>
      </trkpt>
      <trkpt lat="45.20534" lon="5.68685">
        <ele>221.8</ele>
        <time>2011-05-08T13:19:48Z</time>
      </trkpt>
      <trkpt lat="45.20513" lon="5.68715">
        <ele>221.8</ele>
        <time>2011-05-08T13:19:54.002Z</time>
      </trkpt>
      <trkpt lat="45.20494" lon="5.68739">
        <ele>220.4</ele>
        <time>2011-05-08T13:19:58.996Z</time>
      </trkpt>
      <trkpt lat="45.20476" lon="5.68764">
        <ele>219</ele>
        <time>2011-05-08T13:20:04Z</time>
      </trkpt>
      <trkpt lat="45.20458" lon="5.68791">
        <ele>218.3</ele>
        <time>2011-05-08T13:20:09Z</time>
      </trkpt>
      <trkpt lat="45.2044" lon="5.68816">
        <ele>217.8</ele>
        <time>2011-05-08T13:20:14Z</time>
      </trkpt>
      <trkpt lat="45.20422" lon="5.68843">
        <ele>216.5</ele>
        <time>2011-05-08T13:20:18.997Z</time>
      </trkpt>
      <trkpt lat="45.20404" lon="5.68871">
        <ele>215.1</ele>
        <time>2011-05-08T13:20:24.000Z</time>
      </trkpt>
      <trkpt lat="45.20385" lon="5.689">
        <ele>213.4</ele>
        <time>2011-05-08T13:20:29.002Z</time>
      </trkpt>
      <trkpt lat="45.20366" lon="5.68929">
        <ele>209.6</ele>
        <time>2011-05-08T13:20:34.000Z</time>
      </trkpt>
      <trkpt lat="45.20347" lon="5.68959">
        <ele>206.1</ele>
        <time>2011-05-08T13:20:38.999Z</time>
      </trkpt>
      <trkpt lat="45.20329" lon="5.6899">
        <ele>201</ele>
        <time>2011-05-08T13:20:44.000Z</time>
      </trkpt>
      <trkpt lat="45.20309" lon="5.69019">
        <ele>198.8</ele>
        <time>2011-05-08T13:20:48.997Z</time>
      </trkpt>
      <trkpt lat="45.20274" lon="5.69073">
        <ele>197.6</ele>
        <time>2011-05-08T13:20:58Z</time>
      </trkpt>
      <trkpt lat="45.20253" lon="5.691">
        <ele>196.7</ele>
        <time>2011-05-08T13:21:03Z</time>
      </trkpt>
      <trkpt lat="45.20229" lon="5.69133">
        <ele>195</ele>
        <time>2011-05-08T13:21:09Z</time>
      </trkpt>
      <trkpt lat="45.20209" lon="5.69159">
        <ele>193.3</ele>
        <time>2011-05-08T13:21:14Z</time>
      </trkpt>
      <trkpt lat="45.20188" lon="5.69186">
        <ele>190.7</ele>
        <time>2011-05-08T13:21:18.999Z</time>
      </trkpt>
      <trkpt lat="45.20168" lon="5.69215">
        <ele>185.5</ele>
        <time>2011-05-08T13:21:23.999Z</time>
      </trkpt>
      <trkpt lat="45.20148" lon="5.69244">
        <ele>182</ele>
        <time>2011-05-08T13:21:28.999Z</time>
      </trkpt>
      <trkpt lat="45.20127" lon="5.69273">
        <ele>180.5</ele>
        <time>2011-05-08T13:21:34Z</time>
      </trkpt>
      <trkpt lat="45.20107" lon="5.69302">
        <ele>179.8</ele>
        <time>2011-05-08T13:21:39.002Z</time>
      </trkpt>
      <trkpt lat="45.20087" lon="5.69329">
        <ele>179.2</ele>
        <time>2011-05-08T13:21:44Z</time>
      </trkpt>
      <trkpt lat="45.20068" lon="5.69358">
        <ele>180.1</ele>
        <time>2011-05-08T13:21:48.999Z</time>
      </trkpt>
      <trkpt lat="45.20048" lon="5.69385">
        <ele>178.8</ele>
        <time>2011-05-08T13:21:54Z</time>
      </trkpt>
      <trkpt lat="45.20028" lon="5.69413">
        <ele>179.5</ele>
        <time>2011-05-08T13:21:58.999Z</time>
      </trkpt>
      <trkpt lat="45.20009" lon="5.69443">
        <ele>178.1</ele>
        <time>2011-05-08T13:22:04Z</time>
      </trkpt>
      <trkpt lat="45.19989" lon="5.69472">
        <ele>176</ele>
        <time>2011-05-08T13:22:09.002Z</time>
      </trkpt>
      <trkpt lat="45.19968" lon="5.69501">
        <ele>175.6</ele>
        <time>2011-05-08T13:22:14Z</time>
      </trkpt>
      <trkpt lat="45.1995" lon="5.6953">
        <ele>175.7</ele>
        <time>2011-05-08T13:22:19Z</time>
      </trkpt>
      <trkpt lat="45.1993" lon="5.6956">
        <ele>176.5</ele>
        <time>2011-05-08T13:22:24.003Z</time>
      </trkpt>
      <trkpt lat="45.1991" lon="5.69588">
        <ele>175.5</ele>
        <time>2011-05-08T13:22:28.997Z</time>
      </trkpt>
      <trkpt lat="45.1989" lon="5.69616">
        <ele>171.9</ele>
        <time>2011-05-08T13:22:34Z</time>
      </trkpt>
      <trkpt lat="45.19869" lon="5.69643">
        <ele>171.8</ele>
        <time>2011-05-08T13:22:38.999Z</time>
      </trkpt>
      <trkpt lat="45.1985" lon="5.69673">
        <ele>172.9</ele>
        <time>2011-05-08T13:22:44.002Z</time>
      </trkpt>
      <trkpt lat="45.19831" lon="5.69702">
        <ele>171.6</ele>
        <time>2011-05-08T13:22:48.999Z</time>
      </trkpt>
      <trkpt lat="45.19812" lon="5.69727">
        <ele>170.6</ele>
        <time>2011-05-08T13:22:53.999Z</time>
      </trkpt>
      <trkpt lat="45.19792" lon="5.69753">
        <ele>172.3</ele>
        <time>2011-05-08T13:22:58.997Z</time>
      </trkpt>
      <trkpt lat="45.19774" lon="5.6978">
        <ele>172.8</ele>
        <time>2011-05-08T13:23:04.000Z</time>
      </trkpt>
      <trkpt lat="45.19756" lon="5.69804">
        <ele>172.6</ele>
        <time>2011-05-08T13:23:08.997Z</time>
      </trkpt>
      <trkpt lat="45.19736" lon="5.69829">
        <ele>173.3</ele>
        <time>2011-05-08T13:23:14Z</time>
      </trkpt>
      <trkpt lat="45.19717" lon="5.69856">
        <ele>171.5</ele>
        <time>2011-05-08T13:23:18.997Z</time>
      </trkpt>
      <trkpt lat="45.19695" lon="5.69882">
        <ele>172.2</ele>
        <time>2011-05-08T13:23:23.999Z</time>
      </trkpt>
      <trkpt lat="45.19673" lon="5.69908">
        <ele>174.1</ele>
        <time>2011-05-08T13:23:29.002Z</time>
      </trkpt>
      <trkpt lat="45.1965" lon="5.69931">
        <ele>175.8</ele>
        <time>2011-05-08T13:23:33.997Z</time>
      </trkpt>
      <trkpt lat="45.19626" lon="5.69953">
        <ele>176.6</ele>
        <time>2011-05-08T13:23:39Z</time>
      </trkpt>
      <trkpt lat="45.19601" lon="5.69973">
        <ele>178</ele>
        <time>2011-05-08T13:23:43.997Z</time>
      </trkpt>
      <trkpt lat="45.19575" lon="5.6999">
        <ele>180.3</ele>
        <time>2011-05-08T13:23:49Z</time>
      </trkpt>
      <trkpt lat="45.1955" lon="5.70005">
        <ele>183.4</ele>
        <time>2011-05-08T13:23:53.997Z</time>
      </trkpt>
      <trkpt lat="45.19525" lon="5.70017">
        <ele>186.1</ele>
        <time>2011-05-08T13:23:59Z</time>
      </trkpt>
      <trkpt lat="45.19499" lon="5.70026">
        <ele>190.4</ele>
        <time>2011-05-08T13:24:03.999Z</time>
      </trkpt>
      <trkpt lat="45.19474" lon="5.70036">
        <ele>191.6</ele>
        <time>2011-05-08T13:24:09Z</time>
      </trkpt>
      <trkpt lat="45.19448" lon="5.70044">
        <ele>193.6</ele>
        <time>2011-05-08T13:24:13.997Z</time>
      </trkpt>
      <trkpt lat="45.19423" lon="5.70051">
        <ele>193.5</ele>
        <time>2011-05-08T13:24:18.997Z</time>
      </trkpt>
      <trkpt lat="45.19397" lon="5.70058">
        <ele>192.8</ele>
        <time>2011-05-08T13:24:23.997Z</time>
      </trkpt>
      <trkpt lat="45.19372" lon="5.70066">
        <ele>192.7</ele>
        <time>2011-05-08T13:24:29Z</time>
      </trkpt>
      <trkpt lat="45.19346" lon="5.70075">
        <ele>194.3</ele>
        <time>2011-05-08T13:24:33.999Z</time>
      </trkpt>
      <trkpt lat="45.19318" lon="5.70083">
        <ele>193.6</ele>
        <time>2011-05-08T13:24:39Z</time>
      </trkpt>
      <trkpt lat="45.19268" lon="5.70093">
        <ele>198.4</ele>
        <time>2011-05-08T13:24:48Z</time>
      </trkpt>
      <trkpt lat="45.19212" lon="5.70093">
        <ele>206.8</ele>
        <time>2011-05-08T13:24:58Z</time>
      </trkpt>
      <trkpt lat="45.19188" lon="5.70089">
        <ele>209.7</ele>
        <time>2011-05-08T13:25:03Z</time>
      </trkpt>
      <trkpt lat="45.19155" lon="5.70086">
        <ele>210.1</ele>
        <time>2011-05-08T13:25:09Z</time>
      </trkpt>
      <trkpt lat="45.19124" lon="5.70082">
        <ele>210</ele>
        <time>2011-05-08T13:25:14.000Z</time>
      </trkpt>
      <trkpt lat="45.19095" lon="5.70081">
        <ele>207.9</ele>
        <time>2011-05-08T13:25:18.997Z</time>
      </trkpt>
      <trkpt lat="45.19039" lon="5.70078">
        <ele>206.2</ele>
        <time>2011-05-08T13:25:28Z</time>
      </trkpt>
      <trkpt lat="45.19012" lon="5.7008">
        <ele>207.3</ele>
        <time>2011-05-08T13:25:33Z</time>
      </trkpt>
      <trkpt lat="45.18946" lon="5.70086">
        <ele>206.4</ele>
        <time>2011-05-08T13:25:43Z</time>
      </trkpt>
      <trkpt lat="45.18884" lon="5.70084">
        <ele>208</ele>
        <time>2011-05-08T13:25:58Z</time>
      </trkpt>
      <trkpt lat="45.18858" lon="5.70079">
        <ele>210</ele>
        <time>2011-05-08T13:26:03Z</time>
      </trkpt>
      <trkpt lat="45.18826" lon="5.70074">
        <ele>211.3</ele>
        <time>2011-05-08T13:26:08.999Z</time>
      </trkpt>
      <trkpt lat="45.188" lon="5.70071">
        <ele>212.1</ele>
        <time>2011-05-08T13:26:14.000Z</time>
      </trkpt>
      <trkpt lat="45.18753" lon="5.70068">
        <ele>209.3</ele>
        <time>2011-05-08T13:26:23.999Z</time>
      </trkpt>
      <trkpt lat="45.18706" lon="5.70066">
        <ele>204.1</ele>
        <time>2011-05-08T13:26:33Z</time>
      </trkpt>
      <trkpt lat="45.18678" lon="5.70063">
        <ele>211.6</ele>
        <time>2011-05-08T13:26:38Z</time>
      </trkpt>
      <trkpt lat="45.1863" lon="5.70056">
        <ele>225.1</ele>
        <time>2011-05-08T13:26:48Z</time>
      </trkpt>
      <trkpt lat="45.18588" lon="5.70045">
        <ele>224.4</ele>
        <time>2011-05-08T13:26:58Z</time>
      </trkpt>
      <trkpt lat="45.18544" lon="5.70041">
        <ele>219.4</ele>
        <time>2011-05-08T13:27:08Z</time>
      </trkpt>
      <trkpt lat="45.18498" lon="5.70037">
        <ele>218.4</ele>
        <time>2011-05-08T13:27:18Z</time>
      </trkpt>
      <trkpt lat="45.1847" lon="5.70035">
        <ele>218.4</ele>
        <time>2011-05-08T13:27:24Z</time>
      </trkpt>
      <trkpt lat="45.18446" lon="5.70027">
        <ele>216.1</ele>
        <time>2011-05-08T13:27:33.999Z</time>
      </trkpt>
      <trkpt lat="45.18446" lon="5.69974">
        <ele>212.1</ele>
        <time>2011-05-08T13:27:43Z</time>
      </trkpt>
      <trkpt lat="45.18438" lon="5.69944">
        <ele>211.5</ele>
        <time>2011-05-08T13:27:53Z</time>
      </trkpt>
      <trkpt lat="45.18391" lon="5.69942">
        <ele>211.9</ele>
        <time>2011-05-08T13:28:03Z</time>
      </trkpt>
      <trkpt lat="45.18365" lon="5.6994">
        <ele>211.8</ele>
        <time>2011-05-08T13:28:08Z</time>
      </trkpt>
      <trkpt lat="45.18333" lon="5.69941">
        <ele>211.3</ele>
        <time>2011-05-08T13:28:13.997Z</time>
      </trkpt>
      <trkpt lat="45.18286" lon="5.69946">
        <ele>207</ele>
        <time>2011-05-08T13:28:23.999Z</time>
      </trkpt>
      <trkpt lat="45.18245" lon="5.69941">
        <ele>206.2</ele>
        <time>2011-05-08T13:28:33Z</time>
      </trkpt>
      <trkpt lat="45.18193" lon="5.69937">
        <ele>209.8</ele>
        <time>2011-05-08T13:28:44.000Z</time>
      </trkpt>
      <trkpt lat="45.18167" lon="5.69935">
        <ele>210.6</ele>
        <time>2011-05-08T13:28:49Z</time>
      </trkpt>
      <trkpt lat="45.18101" lon="5.69936">
        <ele>209.1</ele>
        <time>2011-05-08T13:29:03Z</time>
      </trkpt>
      <trkpt lat="45.18056" lon="5.69937">
        <ele>208.9</ele>
        <time>2011-05-08T13:29:13Z</time>
      </trkpt>
      <trkpt lat="45.18039" lon="5.6992">
        <ele>209</ele>
        <time>2011-05-08T13:29:18.999Z</time>
      </trkpt>
      <trkpt lat="45.18049" lon="5.69857">
        <ele>211.2</ele>
        <time>2011-05-08T13:29:28Z</time>
      </trkpt>
      <trkpt lat="45.18055" lon="5.69816">
        <ele>214.8</ele>
        <time>2011-05-08T13:29:34.002Z</time>
      </trkpt>
      <trkpt lat="45.1804" lon="5.69794">
        <ele>216.6</ele>
        <time>2011-05-08T13:29:44Z</time>
      </trkpt>
      <trkpt lat="45.18028" lon="5.69824">
        <ele>215.8</ele>
        <time>2011-05-08T13:29:54.002Z</time>
      </trkpt>
      <trkpt lat="45.18023" lon="5.69867">
        <ele>214.3</ele>
        <time>2011-05-08T13:30:04Z</time>
      </trkpt>
      <trkpt lat="45.18021" lon="5.69912">
        <ele>210.5</ele>
        <time>2011-05-08T13:30:13.999Z</time>
      </trkpt>
      <trkpt lat="45.18021" lon="5.69956">
        <ele>206.4</ele>
        <time>2011-05-08T13:30:23.997Z</time>
      </trkpt>
      <trkpt lat="45.18021" lon="5.69998">
        <ele>197</ele>
        <time>2011-05-08T13:30:34.002Z</time>
      </trkpt>
      <trkpt lat="45.18023" lon="5.70045">
        <ele>185.4</ele>
        <time>2011-05-08T13:30:44Z</time>
      </trkpt>
      <trkpt lat="45.18022" lon="5.70092">
        <ele>180.5</ele>
        <time>2011-05-08T13:30:54.002Z</time>
      </trkpt>
      <trkpt lat="45.18021" lon="5.70139">
        <ele>180.1</ele>
        <time>2011-05-08T13:31:03.999Z</time>
      </trkpt>
      <trkpt lat="45.1802" lon="5.70188">
        <ele>182</ele>
        <time>2011-05-08T13:31:14Z</time>
      </trkpt>
      <trkpt lat="45.18018" lon="5.70233">
        <ele>184.7</ele>
        <time>2011-05-08T13:31:29.002Z</time>
      </trkpt>
      <trkpt lat="45.18015" lon="5.70279">
        <ele>188.7</ele>
        <time>2011-05-08T13:31:38.997Z</time>
      </trkpt>
      <trkpt lat="45.18013" lon="5.70347">
        <ele>192.6</ele>
        <time>2011-05-08T13:31:48.999Z</time>
      </trkpt>
      <trkpt lat="45.18013" lon="5.70384">
        <ele>192.3</ele>
        <time>2011-05-08T13:31:54Z</time>
      </trkpt>
      <trkpt lat="45.18016" lon="5.7042">
        <ele>191.2</ele>
        <time>2011-05-08T13:31:59Z</time>
      </trkpt>
      <trkpt lat="45.18018" lon="5.70457">
        <ele>188</ele>
        <time>2011-05-08T13:32:04Z</time>
      </trkpt>
      <trkpt lat="45.18018" lon="5.70498">
        <ele>185.9</ele>
        <time>2011-05-08T13:32:09Z</time>
      </trkpt>
      <trkpt lat="45.18025" lon="5.70547">
        <ele>182.4</ele>
        <time>2011-05-08T13:32:18.999Z</time>
      </trkpt>
      <trkpt lat="45.18027" lon="5.70583">
        <ele>187.4</ele>
        <time>2011-05-08T13:32:38.999Z</time>
      </trkpt>
      <trkpt lat="45.18023" lon="5.70623">
        <ele>189.6</ele>
        <time>2011-05-08T13:32:48Z</time>
      </trkpt>
      <trkpt lat="45.18029" lon="5.70667">
        <ele>195.3</ele>
        <time>2011-05-08T13:32:58Z</time>
      </trkpt>
      <trkpt lat="45.18024" lon="5.70715">
        <ele>218</ele>
        <time>2011-05-08T13:33:08Z</time>
      </trkpt>
      <trkpt lat="45.18017" lon="5.7077">
        <ele>229.9</ele>
        <time>2011-05-08T13:33:18Z</time>
      </trkpt>
      <trkpt lat="45.18014" lon="5.70824">
        <ele>232.1</ele>
        <time>2011-05-08T13:33:28Z</time>
      </trkpt>
      <trkpt lat="45.1801" lon="5.70874">
        <ele>249.2</ele>
        <time>2011-05-08T13:33:38Z</time>
      </trkpt>
      <trkpt lat="45.18013" lon="5.70935">
        <ele>249.8</ele>
        <time>2011-05-08T13:33:49Z</time>
      </trkpt>
      <trkpt lat="45.18018" lon="5.70999">
        <ele>245.6</ele>
        <time>2011-05-08T13:33:59Z</time>
      </trkpt>
      <trkpt lat="45.18021" lon="5.71053">
        <ele>240.6</ele>
        <time>2011-05-08T13:34:08Z</time>
      </trkpt>
      <trkpt lat="45.18025" lon="5.71112">
        <ele>223.5</ele>
        <time>2011-05-08T13:34:18Z</time>
      </trkpt>
      <trkpt lat="45.1804" lon="5.71142">
        <ele>217.9</ele>
        <time>2011-05-08T13:34:28Z</time>
      </trkpt>
      <trkpt lat="45.18073" lon="5.71133">
        <ele>240.1</ele>
        <time>2011-05-08T13:34:38Z</time>
      </trkpt>
      <trkpt lat="45.18098" lon="5.71129">
        <ele>257.4</ele>
        <time>2011-05-08T13:34:48Z</time>
      </trkpt>
      <trkpt lat="45.18101" lon="5.71193">
        <ele>247.1</ele>
        <time>2011-05-08T13:34:59Z</time>
      </trkpt>
      <trkpt lat="45.18106" lon="5.71237">
        <ele>237.2</ele>
        <time>2011-05-08T13:35:09.002Z</time>
      </trkpt>
      <trkpt lat="45.18117" lon="5.71224">
        <ele>220.3</ele>
        <time>2011-05-08T13:36:33Z</time>
      </trkpt>
    </trkseg>
  </trk>
</gpx>